GFSGL_con_3kmhel_000.txt.gz
Helicity
175 205 236 218 194 206 187 143 135 129 116 115 115 99 81 66 62 70 64 59 71 67 63 77 73 93 106 117 150 159 159 192 161 92 95 84 77 45 38 20 15 12 -2
195 225 278 268 273 245 211 182 148 138 141 121 111 96 77 65 57 66 62 60 59 58 62 75 72 86 95 103 137 154 173 188 214 130 89 84 86 71 46 21 24 -2 -8
336 324 343 341 341 316 221 220 173 157 140 106 102 91 75 66 61 56 64 52 63 71 79 94 93 88 83 97 122 150 177 167 190 185 135 125 120 76 53 33 21 11 3
467 455 414 424 414 357 325 208 200 139 136 101 92 72 59 64 60 53 62 56 65 81 89 92 100 103 78 91 108 143 144 136 144 147 129 138 117 90 96 40 -1 20 -12
559 528 498 505 493 535 443 151 166 126 109 100 89 60 49 69 53 58 61 52 55 93 105 111 106 103 73 84 137 122 132 132 138 132 125 119 85 73 67 59 32 -7 -2
503 496 466 551 716 749 436 70 4 88 112 111 88 73 70 75 71 72 75 90 102 132 127 105 115 118 94 65 78 97 126 125 127 138 121 123 95 112 94 105 78 -1 -32
379 389 445 577 586 583 312 125 0 100 106 101 105 82 73 86 104 93 69 110 125 155 162 139 145 131 114 99 103 111 119 88 98 113 121 119 114 124 129 155 126 129 114
330 362 457 486 528 425 297 278 -14 63 83 97 80 83 90 89 125 82 77 114 141 154 148 159 165 125 103 108 123 119 87 86 104 118 116 96 98 123 153 144 144 147 61
323 384 429 451 347 417 227 167 30 -7 41 72 52 75 101 88 115 121 132 122 138 132 157 169 164 135 100 112 123 108 80 73 94 74 66 61 58 75 101 147 156 96 -55
334 328 361 342 261 206 179 128 59 22 29 40 71 89 74 50 31 135 103 131 134 149 156 142 127 130 124 154 145 130 106 86 79 39 21 32 65 77 66 138 158 96 -94
280 277 280 285 228 182 229 192 226 143 86 90 102 87 270 121 -36 44 82 117 133 153 133 122 136 141 132 153 147 121 87 68 50 41 15 41 65 64 81 111 153 191 -76
224 259 289 283 200 201 232 243 148 98 67 165 133 160 190 130 118 86 101 135 153 149 133 131 120 122 117 135 114 75 61 58 52 39 38 44 54 82 105 116 160 184 118
264 279 289 259 238 236 253 215 211 137 142 172 113 137 116 168 124 153 161 176 183 156 136 120 87 91 119 142 96 71 62 62 58 44 37 51 68 101 98 113 156 108 58
249 212 265 239 339 317 283 272 185 146 225 177 108 107 165 134 123 152 164 165 153 139 120 103 105 133 174 134 83 76 62 61 59 37 29 42 67 92 88 106 153 -41 89
160 159 167 238 401 332 381 272 125 138 161 96 75 118 128 116 129 153 143 129 126 118 112 117 117 155 137 68 73 73 84 88 65 41 20 25 45 76 50 74 109 -56 14
163 210 218 255 191 220 248 234 238 168 88 89 55 126 145 141 183 159 125 105 94 106 110 116 120 91 53 59 67 70 85 84 58 34 16 13 8 35 46 55 78 13 -53
131 152 104 108 156 222 191 157 147 165 234 187 148 187 172 159 195 180 155 127 94 105 105 104 70 43 52 66 81 86 76 62 42 33 18 6 -3 22 25 37 66 0 -26
57 38 55 74 118 160 153 161 182 174 168 153 234 190 151 132 135 124 130 127 117 113 102 88 78 74 74 82 87 73 62 51 42 27 13 15 10 18 21 37 44 9 7
16 24 43 82 123 144 168 168 169 140 133 177 157 140 132 128 153 140 88 81 74 77 92 92 85 82 86 88 77 58 44 45 32 24 15 17 18 22 28 26 43 35 -11
88 79 98 106 112 110 118 104 131 160 156 116 103 105 90 132 108 100 102 86 73 72 76 80 84 87 82 72 60 48 41 42 39 33 24 20 23 19 26 23 20 35 20
97 131 114 83 65 65 90 134 136 144 118 82 85 99 95 101 100 87 71 65 45 76 72 76 81 79 68 56 47 44 37 35 33 27 28 25 22 26 25 7 10 16 3
118 122 96 89 119 139 129 134 136 135 137 121 129 136 128 98 113 84 72 30 38 67 74 79 77 64 55 51 43 39 35 32 32 29 28 25 20 19 21 12 8 5 14
141 135 135 128 137 140 152 158 145 135 118 116 130 140 127 121 135 109 65 55 60 66 79 88 74 58 57 50 38 33 34 33 27 19 18 19 17 17 17 21 18 13 11
117 115 115 113 116 120 131 135 117 106 102 93 124 129 132 139 120 96 59 80 79 80 91 83 63 58 50 37 28 23 21 21 17 13 10 13 17 18 15 15 15 15 12
73 73 80 90 99 111 120 117 94 82 87 92 94 104 110 112 98 92 98 90 67 78 75 71 63 50 34 23 19 16 17 18 16 10 12 14 17 22 18 14 19 20 33
74 66 68 76 80 77 77 77 68 65 76 81 84 81 82 90 98 102 120 97 81 66 68 66 54 40 26 20 16 15 21 28 36 30 21 24 27 25 19 21 30 23 29

GFSGL_con_3kmhel_003.txt.gz
Helicity
39 58 80 84 56 45 62 192 128 82 173 133 139 110 107 95 93 72 49 34 34 33 49 54 50 53 55 60 74 91 105 114 95 55 62 71 58 43 36 33 31 33 35
121 99 119 147 179 169 177 130 185 141 74 136 123 111 110 89 76 62 37 20 26 23 41 62 59 73 73 69 74 82 87 105 118 94 61 65 61 58 46 32 34 35 27
148 149 131 181 232 240 387 277 171 171 103 82 106 115 115 98 76 56 40 14 11 18 34 40 52 68 69 73 77 82 86 91 110 130 101 66 69 60 45 29 30 26 20
193 230 253 269 281 392 433 352 356 323 171 80 99 92 104 98 68 52 47 33 21 26 43 57 71 94 83 74 91 83 77 84 90 112 99 84 67 59 55 42 37 29 26
226 280 325 291 330 383 527 727 721 948 351 -33 26 92 111 91 68 60 57 53 52 42 52 69 67 108 110 110 135 102 87 81 86 100 94 77 70 62 59 60 50 33 16
183 185 190 232 364 420 501 645 759 493 107 -2 -8 -8 89 85 69 76 72 72 87 94 66 76 96 144 123 136 122 101 90 91 104 114 95 75 63 69 70 66 51 28 -4
119 117 148 243 307 380 443 573 653 427 340 103 -15 32 100 76 77 89 98 100 111 125 130 111 121 128 156 151 142 117 82 94 132 104 92 69 81 67 72 61 58 92 83
89 117 168 190 214 253 341 459 377 240 272 61 -4 33 47 48 69 102 95 95 72 102 95 94 138 129 147 152 125 103 86 100 106 127 124 105 93 70 82 102 118 130 122
72 103 159 218 239 255 287 294 203 171 138 100 12 37 36 58 124 121 120 129 73 59 92 114 147 145 171 160 124 97 84 96 120 105 94 81 64 53 74 126 117 111 134
29 52 107 167 150 174 181 184 163 136 142 187 124 19 28 59 136 169 140 246 122 77 101 137 166 158 161 131 115 109 115 136 112 79 78 68 58 57 69 82 96 127 118
28 79 57 85 110 128 186 173 171 199 204 190 100 61 94 56 75 99 207 184 195 85 95 139 163 172 153 132 119 129 159 129 71 54 49 54 55 51 65 88 88 97 140
16 102 102 70 111 167 218 191 114 120 131 122 90 97 107 108 167 198 104 138 114 86 98 145 157 163 152 109 101 175 130 70 66 56 60 59 51 55 68 76 71 64 99
143 171 138 141 149 132 134 122 126 159 179 132 129 140 167 172 139 172 136 138 110 91 146 174 153 116 105 104 156 139 78 69 69 62 74 72 63 58 56 57 45 49 54
145 108 59 72 100 111 96 99 97 108 139 133 98 52 165 165 111 122 164 136 104 99 114 129 118 117 168 165 126 89 64 68 80 83 80 65 54 53 55 45 45 64 68
64 49 45 65 76 106 123 115 102 115 107 86 111 112 169 128 115 134 133 102 124 159 115 106 89 93 90 105 83 44 50 66 71 76 72 54 41 32 33 33 46 60 80
85 66 76 79 87 102 128 136 144 110 125 112 134 147 143 165 177 171 161 165 189 147 113 101 93 88 88 70 41 47 60 69 82 73 62 50 36 27 29 31 32 43 61
84 64 76 63 71 87 83 87 102 129 150 149 129 122 156 187 210 212 199 181 156 128 117 104 78 67 77 68 60 63 74 82 74 73 57 40 33 29 23 23 26 40 38
70 106 87 75 75 72 77 94 104 110 137 151 221 240 215 198 183 186 184 154 149 119 102 96 86 87 85 79 84 82 75 67 68 64 51 33 27 21 24 23 29 35 44
127 112 108 83 63 58 74 85 96 117 148 173 191 187 208 212 187 129 117 114 109 90 85 86 87 87 86 77 73 69 62 60 62 52 41 32 26 22 21 16 21 32 28
101 97 89 77 80 89 92 79 91 94 105 157 162 158 152 135 97 58 92 110 94 84 86 74 71 77 74 68 66 61 51 52 52 43 33 24 21 17 18 13 16 12 25
109 91 87 79 103 100 79 76 72 89 114 127 137 137 125 78 84 92 115 105 94 40 72 60 73 68 64 63 58 52 49 46 40 31 24 22 18 19 16 11 8 2 11
111 124 130 135 117 86 94 111 117 112 116 129 139 145 111 75 113 116 125 107 112 56 80 82 79 71 68 64 58 51 47 39 33 27 21 18 17 18 18 16 11 7 3
113 122 121 119 110 113 104 120 126 135 137 125 117 116 115 109 121 119 122 135 101 71 91 91 81 67 66 62 61 52 43 43 35 23 20 18 16 20 20 26 25 21 10
119 110 111 105 99 97 113 123 113 117 112 117 107 104 126 132 118 133 135 122 87 95 100 94 77 65 70 59 51 37 37 33 23 18 14 20 17 17 20 26 32 35 27
82 95 100 94 82 86 98 114 110 105 98 101 96 90 100 99 106 130 127 117 99 97 89 86 76 68 55 46 37 31 51 35 16 13 14 21 24 17 25 26 36 36 43
73 68 65 62 68 77 86 86 86 89 93 92 90 81 83 84 95 116 123 120 116 104 87 76 72 61 51 41 30 50 47 35 27 24 18 25 31 33 24 27 37 33 38

GFSGL_con_3kmhel_006.txt.gz
Helicity
27 26 18 29 42 35 43 54 57 147 92 79 67 100 93 95 81 71 40 43 56 45 25 18 17 20 25 31 39 56 62 59 56 25 40 46 83 82 61 52 53 51 50
61 74 60 80 96 109 82 74 202 108 148 121 89 72 54 58 85 73 61 47 50 40 33 19 23 36 48 31 49 59 58 73 59 63 38 43 54 75 75 65 56 63 66
47 73 85 115 167 172 142 144 259 171 184 206 420 383 170 90 79 67 62 56 51 31 22 27 20 48 40 34 51 56 60 95 101 97 76 70 65 71 76 89 69 59 41
60 76 114 138 147 189 195 341 308 277 407 522 582 579 381 -25 42 49 62 60 56 47 32 28 36 51 48 49 57 56 68 88 75 78 87 74 127 70 82 88 74 61 72
60 79 103 132 164 221 252 333 448 512 553 557 546 508 323 102 77 56 68 69 64 66 60 50 56 59 71 74 87 108 120 100 96 94 81 81 96 94 66 78 83 87 74
72 63 64 125 160 193 248 247 386 615 741 747 609 462 239 251 67 66 64 69 68 65 84 78 94 86 107 106 127 123 126 131 105 87 73 82 99 83 77 81 104 89 70
74 73 85 130 136 151 144 186 314 466 560 435 392 308 189 143 57 66 70 48 57 96 111 117 111 91 90 80 113 124 125 122 123 111 112 115 88 81 96 89 77 80 76
66 57 61 79 92 97 133 129 177 270 356 306 244 175 91 101 76 108 112 73 53 103 154 183 153 108 119 96 130 129 113 102 113 132 122 138 131 111 102 92 79 74 90
41 36 71 68 59 67 104 105 117 168 204 182 143 87 67 84 117 138 129 89 90 112 127 144 177 131 154 163 134 118 109 108 128 151 120 100 81 76 94 118 95 102 76
107 131 106 28 16 47 74 121 144 95 136 132 76 78 107 104 133 160 141 100 141 149 131 133 234 197 205 148 119 119 114 93 125 110 97 73 61 56 76 97 94 102 86
130 80 9 -17 18 64 95 187 117 123 129 85 79 75 125 112 82 127 114 104 133 156 125 134 196 178 138 128 128 135 148 169 106 73 56 52 62 73 86 118 112 95 75
36 37 52 48 75 95 156 235 179 97 89 107 77 88 85 45 60 106 102 77 165 182 151 158 261 180 126 124 125 204 179 116 88 84 63 60 81 89 98 99 79 81 83
74 71 81 118 121 156 181 179 154 103 75 92 99 75 99 146 167 162 178 140 112 149 179 242 233 136 109 108 137 147 111 80 95 75 55 75 97 90 75 67 71 72 77
87 132 156 136 126 115 113 111 85 98 87 52 62 139 199 143 101 127 169 159 199 155 183 156 155 126 144 205 157 82 74 97 71 51 52 73 79 74 71 57 59 46 51
148 123 116 127 132 141 164 165 101 161 104 83 91 92 124 97 95 129 111 125 137 206 138 89 85 90 90 88 91 101 89 48 41 42 55 64 77 72 63 54 53 47 36
132 146 182 166 149 101 88 101 173 169 132 111 97 97 104 158 226 237 208 225 208 159 90 102 113 115 98 99 93 88 71 65 49 66 62 64 72 67 54 42 45 37 32
203 201 170 130 110 125 114 97 120 142 162 173 168 162 153 169 224 199 185 165 117 104 96 129 103 104 87 85 84 87 75 93 90 60 63 59 65 53 40 34 26 21 29
180 166 97 109 146 126 89 60 55 88 100 133 182 165 188 177 162 137 96 70 99 80 107 100 83 83 84 84 85 73 73 67 63 58 54 54 50 40 32 27 16 9 8
126 119 115 137 111 95 81 56 62 97 105 150 156 171 179 174 145 132 95 72 80 90 105 80 80 81 79 65 65 60 58 54 65 44 44 45 40 32 25 18 9 0 -1
165 184 123 113 135 91 79 66 86 90 98 107 99 148 174 151 131 105 93 90 83 94 94 80 76 94 72 65 64 55 43 45 44 38 39 31 30 24 23 15 8 -3 -4
143 127 147 139 113 87 86 91 79 72 69 80 80 166 170 96 106 107 91 94 83 109 106 72 75 64 68 60 53 49 51 51 49 36 27 24 20 19 19 15 8 3 -1
136 130 138 101 97 106 112 90 71 63 78 90 107 266 179 99 93 87 106 121 118 126 115 80 60 62 68 68 67 53 55 51 43 34 24 19 17 18 19 19 16 12 6
88 75 92 109 108 156 108 87 87 91 95 119 116 172 137 100 79 109 139 125 131 115 118 76 72 74 73 58 58 56 53 53 42 30 21 19 17 25 17 21 21 22 19
91 93 113 118 109 75 80 81 85 125 89 103 93 95 106 101 98 140 160 146 127 127 110 76 74 77 82 45 54 46 44 45 36 21 16 20 23 23 20 21 27 26 27
95 112 100 93 75 73 106 76 81 70 107 88 85 97 96 112 115 126 113 100 122 109 97 84 78 72 51 50 51 53 77 58 29 18 10 15 26 14 19 23 31 26 35
80 80 84 87 93 100 100 100 94 93 83 83 88 81 88 97 88 118 90 97 87 95 102 89 76 58 65 53 53 95 61 40 23 21 11 9 24 27 22 20 32 30 31

GFSGL_con_3kmhel_009.txt.gz
Helicity
99 99 74 54 49 40 33 61 72 67 140 160 187 155 176 119 136 262 43 43 105 72 36 30 23 10 0 -3 26 37 61 24 28 20 47 65 86 78 70 74 62 71 71
124 140 135 107 105 112 111 132 116 158 195 169 188 190 249 209 272 254 100 63 83 81 57 49 28 15 59 25 7 7 26 54 36 24 39 50 55 45 74 75 89 54 51
78 102 108 110 145 164 195 190 209 193 255 186 240 266 375 222 208 156 230 140 70 67 63 52 46 28 39 -1 17 23 37 44 67 43 33 50 38 72 49 82 101 115 97
88 71 102 127 144 185 222 255 251 327 357 333 371 382 452 337 316 136 148 207 73 65 74 58 59 63 69 68 47 58 56 45 24 49 72 90 96 79 80 121 97 103 111
117 84 114 147 119 151 199 277 299 341 339 403 460 528 543 454 408 283 196 270 106 73 79 82 66 58 57 77 98 87 68 72 64 68 62 89 77 71 92 107 88 98 107
145 108 141 179 156 187 232 281 301 263 247 320 466 545 549 403 314 313 227 224 95 117 124 97 78 126 150 167 146 143 134 102 104 118 111 108 103 103 92 100 103 121 124
108 128 163 233 252 237 229 227 290 250 220 336 468 484 464 405 353 224 182 184 101 106 100 101 90 102 162 139 162 175 166 95 124 140 138 125 111 107 114 110 113 120 108
157 180 208 239 238 215 208 226 220 143 168 216 281 396 366 200 196 213 198 139 99 99 95 111 118 76 109 160 157 201 136 113 121 152 149 144 120 132 143 117 109 102 83
201 172 158 151 148 122 113 93 92 112 159 214 225 349 233 140 174 199 206 144 105 98 87 93 105 150 140 198 217 213 147 143 109 107 158 167 141 102 78 79 67 89 90
184 155 125 103 102 125 87 79 102 123 161 191 156 189 137 111 159 172 139 133 102 126 120 125 141 124 273 221 171 157 149 110 85 93 142 129 88 82 88 126 105 87 92
201 185 160 135 105 69 73 97 130 155 209 175 144 122 91 96 110 138 154 126 39 118 130 132 136 216 192 162 146 146 137 152 137 115 90 66 72 73 77 114 179 164 117
227 172 161 112 72 97 95 106 166 214 190 157 137 97 73 75 127 146 158 74 109 146 194 150 227 288 185 176 158 174 168 141 109 88 64 76 75 60 78 138 118 109 107
209 170 157 137 130 178 179 228 258 202 169 122 109 73 92 74 146 153 109 65 77 107 173 224 304 208 187 140 125 148 125 91 69 63 78 64 58 77 88 78 84 89 99
178 157 134 151 190 233 255 224 192 175 134 110 118 132 106 145 121 127 129 105 110 129 170 158 182 166 141 167 162 91 62 39 66 77 50 50 59 59 67 71 67 62 60
93 119 158 171 209 251 282 211 186 221 145 123 111 89 105 128 114 111 105 40 84 116 112 126 78 43 40 81 111 102 70 59 60 67 71 70 59 61 66 66 57 51 47
106 132 151 192 202 191 189 215 262 207 171 195 204 142 128 140 204 241 211 179 203 181 113 67 75 96 89 110 108 118 117 106 80 87 78 57 58 62 61 48 37 34 30
115 154 137 100 105 85 109 115 114 171 204 206 156 147 124 137 156 191 188 177 164 142 74 74 96 106 106 112 106 101 99 110 142 72 53 54 51 52 44 35 27 20 18
161 132 98 91 114 135 121 102 106 94 104 118 196 165 161 147 149 149 153 133 104 73 57 92 110 118 100 98 91 91 89 85 73 65 61 47 44 43 32 26 21 17 13
90 96 92 99 115 149 130 113 72 116 87 200 126 158 166 188 176 155 108 68 70 90 100 105 94 89 94 102 95 78 74 58 64 56 44 43 39 27 23 23 16 11 13
140 168 107 146 163 128 118 89 96 93 98 226 117 118 152 150 118 104 98 89 76 73 102 94 112 89 79 91 76 69 51 42 43 43 41 36 28 22 20 18 15 10 8
104 124 165 133 133 97 99 74 86 90 47 86 109 257 167 87 66 97 124 116 77 70 103 86 83 88 66 70 58 52 44 42 50 45 38 33 32 26 22 19 14 11 12
68 86 47 59 81 113 85 78 72 55 52 65 154 178 233 136 76 106 127 144 130 94 87 112 62 72 71 82 87 67 43 49 49 47 38 33 32 25 29 19 21 16 15
93 54 81 93 131 137 97 70 59 79 64 125 113 175 133 139 92 105 141 128 149 133 112 93 75 45 81 89 59 48 40 57 62 45 35 34 33 34 23 26 28 26 20
54 81 89 89 128 95 66 117 153 161 117 92 143 194 166 165 88 90 131 153 138 155 129 119 68 52 103 93 54 38 46 70 58 41 44 32 34 35 26 28 40 18 18
95 71 94 101 68 60 67 60 79 57 119 118 135 99 97 97 88 130 163 149 117 103 126 97 59 62 70 59 44 123 102 91 40 23 22 23 27 29 36 30 41 19 23
72 99 96 92 85 94 93 91 80 84 80 62 43 108 93 80 84 87 96 90 86 65 53 93 72 68 76 64 55 152 91 46 30 33 24 27 27 39 48 25 37 23 19

GFSGL_con_3kmhel_012.txt.gz
Helicity
150 114 100 92 77 56 38 67 85 54 117 252 284 269 223 180 187 176 81 67 97 172 189 94 85 89 35 4 31 28 32 52 68 24 16 41 59 69 85 88 114 140 131
183 132 116 104 97 94 94 94 161 185 169 233 337 325 284 276 291 284 151 102 157 190 168 222 85 78 51 22 21 34 50 34 54 54 54 54 67 79 90 95 121 136 147
174 165 159 113 118 118 140 167 183 222 274 327 387 412 377 424 403 381 297 193 171 188 187 250 113 76 83 78 59 44 38 46 73 61 41 65 86 78 63 90 109 121 111
173 167 166 165 167 167 179 170 193 273 339 374 426 433 378 429 451 428 339 268 207 175 193 271 170 126 139 85 66 65 71 78 90 86 67 92 76 66 97 77 84 114 129
181 163 157 151 157 151 150 191 218 233 319 313 381 385 378 397 450 460 378 309 233 147 193 242 189 135 117 124 143 95 101 144 153 150 122 95 75 85 92 61 74 89 83
171 211 158 148 162 178 199 193 237 238 263 302 330 349 413 457 379 388 328 315 236 179 189 245 171 125 68 88 122 99 162 178 178 233 163 127 146 125 124 89 106 107 98
165 226 185 173 212 215 206 214 220 269 264 310 301 315 298 305 423 387 379 350 261 166 183 246 144 105 106 115 107 114 156 198 202 227 162 137 120 132 112 98 114 133 114
211 213 216 213 270 263 216 213 257 300 318 318 270 264 381 356 327 389 369 309 223 172 190 219 147 93 112 129 162 167 176 164 172 159 175 145 141 127 136 156 131 125 108
206 237 198 262 333 323 292 312 290 321 260 191 208 321 355 246 297 245 226 170 143 147 221 184 136 112 106 116 166 158 134 123 107 112 155 175 176 148 134 155 127 140 104
198 246 354 380 376 389 351 305 291 193 146 181 266 286 247 175 152 133 141 144 170 193 118 99 138 113 118 133 143 132 122 96 108 128 150 157 139 114 99 132 152 172 143
263 326 368 352 371 307 256 230 182 137 154 222 248 219 156 115 81 113 145 151 111 119 94 118 72 91 144 171 143 117 134 155 135 149 137 100 95 120 128 102 162 164 147
320 305 286 288 244 241 213 179 155 183 229 241 239 192 138 114 100 121 126 114 166 129 110 89 98 184 219 146 120 146 152 143 144 138 113 85 97 96 83 96 94 127 157
309 309 304 275 263 193 192 169 202 213 230 235 194 153 150 135 142 159 140 127 122 114 85 127 185 192 179 128 100 118 136 128 118 104 101 75 49 52 62 88 94 87 95
377 357 291 285 249 203 220 214 226 220 220 170 160 163 142 157 140 110 117 129 159 213 179 156 82 108 83 89 143 114 80 36 24 64 57 70 85 85 83 87 83 70 62
324 256 231 224 201 258 320 269 244 244 175 148 127 121 117 103 79 111 102 121 118 112 102 107 77 86 76 101 138 128 89 55 61 65 116 98 82 77 81 84 74 71 85
169 147 147 173 216 224 263 312 362 268 223 226 211 148 130 150 173 161 122 111 117 90 54 83 84 65 98 134 152 133 132 96 136 214 165 110 85 80 78 71 80 75 62
87 71 89 113 123 152 169 189 212 217 204 201 197 172 120 134 170 183 161 161 138 124 106 84 59 108 171 179 198 187 169 177 153 120 93 94 84 73 67 59 61 58 52
52 15 18 29 55 58 78 69 97 125 137 136 204 182 202 173 149 130 117 108 100 88 70 48 107 157 186 171 163 137 156 178 153 133 107 86 72 72 54 50 46 42 58
111 77 75 74 124 71 74 80 138 85 97 140 148 141 183 182 161 136 107 88 66 77 93 92 158 151 141 132 145 151 138 99 89 75 69 75 64 52 44 45 34 25 31
111 78 62 138 206 209 198 78 57 123 292 182 111 105 124 154 124 100 85 90 83 74 107 148 164 159 138 116 122 130 98 73 65 71 70 65 49 42 39 37 32 41 48
91 98 117 158 177 127 101 64 61 73 165 154 128 115 96 89 92 71 60 42 40 49 83 132 152 137 117 95 89 73 61 61 67 79 77 62 46 41 44 26 35 41 34
66 54 131 138 104 123 95 75 71 96 112 122 164 205 160 80 50 92 161 165 155 124 135 145 127 98 101 163 167 136 91 55 61 93 87 51 40 41 29 36 52 48 34
83 46 39 103 218 217 174 107 161 172 190 51 198 170 143 103 79 107 171 240 190 175 148 164 189 98 68 150 122 74 51 69 127 110 64 43 44 45 38 47 60 39 36
99 135 165 172 197 194 116 149 205 79 96 134 116 113 100 124 167 202 156 177 153 102 169 207 190 130 166 146 116 80 78 121 128 100 50 34 40 39 51 56 41 26 63
71 38 98 120 65 75 38 52 3 20 127 109 75 93 64 123 118 126 193 201 167 162 181 234 172 132 96 94 123 146 145 160 103 34 24 25 14 28 43 44 33 33 34
73 55 118 110 115 42 86 53 104 89 65 54 127 91 113 130 97 84 99 112 111 79 83 92 77 108 123 119 162 145 103 73 48 42 24 22 44 62 43 42 32 44 24

GFSGL_con_3kmhel_015.txt.gz
Helicity
293 238 168 99 75 46 0 7 62 90 166 205 262 292 261 231 212 236 214 211 161 110 106 102 82 142 121 74 105 106 97 86 79 57 37 30 55 50 54 74 83 94 119
313 238 181 99 63 56 46 36 73 126 193 271 314 356 313 285 283 328 281 254 226 150 118 126 126 165 139 81 77 79 97 77 82 56 55 59 54 57 76 87 77 79 92
305 248 174 100 77 76 84 94 113 144 214 334 409 423 437 389 361 380 357 301 263 180 157 119 113 160 146 98 86 78 76 56 94 101 91 89 78 97 106 100 89 69 74
300 240 193 136 118 118 117 121 166 191 250 333 414 462 449 452 425 418 407 337 315 250 180 148 145 163 138 107 128 97 75 81 92 98 97 94 119 95 118 124 96 68 38
311 252 186 152 113 99 108 124 136 191 257 342 417 454 489 488 461 468 426 343 334 282 214 178 159 156 125 117 141 106 111 115 93 126 157 146 144 135 85 86 57 24 41
288 269 170 127 124 112 125 151 180 186 232 330 381 420 431 424 404 463 468 408 335 250 227 184 173 166 135 116 127 118 133 134 155 194 178 153 132 124 96 81 71 76 55
264 285 206 144 145 152 169 181 203 221 226 272 281 352 371 365 378 336 378 376 352 305 258 205 148 177 135 110 109 70 96 79 152 179 150 146 145 136 127 118 116 126 139
300 267 270 203 158 186 214 214 191 231 233 249 276 349 323 380 411 326 250 304 307 274 246 213 193 133 128 126 111 183 117 72 101 144 143 120 149 132 163 156 148 138 151
388 277 313 270 212 237 266 237 250 287 272 301 335 320 361 389 357 301 294 264 243 196 177 188 203 126 78 109 113 112 72 93 88 71 105 113 114 100 117 177 144 171 133
425 290 326 308 279 327 339 329 419 391 370 310 330 286 307 280 231 178 195 174 132 119 114 129 159 126 103 124 96 85 105 104 92 108 123 111 95 94 83 180 133 172 161
430 398 357 327 380 399 476 513 471 333 322 274 219 233 242 191 187 143 144 147 119 144 123 123 122 135 114 83 97 96 126 140 134 130 118 109 100 110 161 140 125 113 121
485 397 423 439 456 557 569 364 317 349 266 176 211 226 195 163 157 124 100 117 135 138 110 74 75 95 84 120 126 115 122 137 124 112 119 106 147 133 111 67 46 75 134
556 496 522 579 584 557 455 365 319 214 219 212 227 214 185 165 147 116 106 131 161 172 171 127 130 125 128 146 99 65 116 123 96 69 72 92 93 69 55 50 62 93 93
653 615 609 565 465 370 305 263 194 211 209 220 208 224 172 149 148 128 143 138 157 156 150 158 125 125 117 93 96 101 102 92 76 61 55 63 73 91 67 68 77 64 69
681 575 510 471 440 440 387 296 234 260 193 158 142 179 148 142 111 109 113 120 138 138 168 160 117 89 83 72 97 109 107 121 102 94 95 118 110 86 74 68 79 86 91
417 385 352 314 284 273 291 348 404 280 233 183 114 154 114 53 107 113 111 100 93 107 110 101 87 85 104 120 129 123 127 127 144 148 139 141 127 89 74 76 78 83 78
261 202 197 211 220 231 230 249 279 303 284 302 264 188 138 133 149 148 136 131 101 118 66 68 68 84 116 121 98 137 155 162 228 274 227 143 93 85 91 77 64 66 60
141 146 150 146 146 154 162 186 211 200 194 194 250 158 159 181 184 167 157 153 105 69 75 80 88 145 149 150 146 148 154 175 168 136 95 84 114 122 89 64 55 64 59
94 80 76 89 85 77 87 100 113 224 223 217 172 142 161 173 170 152 110 94 80 76 103 97 132 179 186 178 168 148 131 126 93 85 97 99 84 84 67 51 54 42 53
103 87 139 107 122 96 85 79 107 148 170 129 76 92 73 145 127 94 66 56 70 90 138 179 225 221 171 133 121 109 114 99 88 87 81 66 69 65 54 52 51 53 89
182 152 169 191 166 115 82 116 167 157 155 99 88 121 105 102 84 74 45 28 46 51 138 162 152 112 85 77 96 96 83 61 71 102 115 92 72 49 50 43 46 61 80
99 79 114 114 185 122 81 91 160 175 174 145 133 89 126 89 84 58 54 20 16 72 122 170 187 163 120 136 153 141 98 85 97 138 131 104 60 53 44 43 49 70 63
92 67 190 222 204 197 294 274 160 205 217 160 191 171 99 59 58 82 96 87 131 172 189 171 155 142 139 150 151 124 97 132 142 123 107 74 54 54 54 53 62 56 70
228 163 267 224 230 278 226 233 186 168 103 161 138 152 101 104 129 141 150 190 182 191 166 174 189 227 232 209 196 157 127 145 124 100 69 52 40 28 48 47 43 39 76
150 169 139 209 180 137 129 103 122 93 111 146 136 88 105 56 124 89 114 132 139 148 146 171 194 221 258 191 150 136 139 155 114 79 51 44 37 45 57 48 40 56 75
91 40 34 86 141 243 262 91 161 120 73 59 84 78 92 114 171 141 122 121 125 115 117 123 139 166 204 144 175 140 112 106 88 72 61 50 43 56 50 37 35 44 44

GFSGL_con_3kmhel_018.txt.gz
Helicity
318 259 234 151 122 108 36 3 0 6 47 118 175 162 146 145 170 186 180 193 201 166 115 77 51 75 127 159 145 115 96 95 111 72 52 45 66 47 27 52 66 82 84
327 257 207 152 114 94 47 6 -29 6 70 150 197 228 207 197 203 229 233 219 220 204 168 153 84 68 86 116 124 127 115 91 154 89 85 81 76 60 57 66 61 66 60
325 263 192 142 117 91 76 45 11 36 89 172 219 260 283 282 278 262 265 263 244 233 230 209 127 112 99 110 118 108 114 116 128 101 85 65 60 65 67 83 72 63 79
339 282 234 165 136 98 79 75 58 70 114 194 273 288 304 319 343 326 333 300 273 270 256 240 217 144 124 118 133 105 89 112 119 97 95 77 73 90 112 111 104 106 62
332 299 286 191 141 108 93 92 113 77 111 182 254 279 315 337 370 378 392 340 331 325 306 254 209 175 128 152 155 98 92 89 99 113 115 111 120 108 108 106 119 98 88
350 265 288 207 148 121 104 122 151 145 168 226 230 272 311 321 332 379 375 360 365 354 304 243 183 154 131 138 133 111 96 115 102 70 52 49 109 113 115 119 121 118 81
372 276 253 230 177 149 130 147 155 180 215 221 254 273 261 285 303 339 366 386 345 295 242 216 181 154 147 117 72 85 74 100 97 115 74 99 116 116 119 125 126 131 126
373 313 243 222 204 174 173 170 197 209 191 212 219 243 231 271 265 323 353 312 307 224 194 188 156 174 174 136 84 150 121 106 106 146 124 98 124 99 140 141 131 129 150
382 370 283 219 239 213 185 201 211 211 196 179 198 245 194 221 256 339 339 334 246 180 159 139 126 134 149 124 140 116 140 102 91 68 80 90 88 93 114 149 143 173 136
392 393 407 310 269 255 225 220 207 226 205 194 256 253 188 243 250 304 305 226 218 171 128 101 97 123 130 144 163 144 104 86 84 104 114 109 109 106 101 137 157 145 139
333 419 438 400 304 273 266 255 284 256 237 257 293 247 237 233 216 222 199 220 165 124 103 75 78 124 162 146 139 156 109 105 97 101 108 108 115 120 128 132 130 135 118
401 405 474 470 368 339 356 351 303 308 288 293 268 244 166 150 182 118 112 89 115 106 95 83 71 90 88 100 125 94 88 106 121 125 115 77 84 126 127 98 83 58 65
444 404 410 412 400 418 496 409 349 311 297 289 341 245 195 210 142 101 87 78 97 99 90 80 100 95 94 92 83 106 142 142 138 138 102 56 81 72 81 87 71 60 61
427 483 511 538 519 460 447 406 365 346 316 337 293 239 204 160 154 142 125 129 155 148 152 148 118 100 107 98 119 121 123 124 113 103 96 91 75 94 89 87 75 57 73
542 524 571 614 633 651 702 519 361 357 292 229 171 165 175 149 115 119 134 121 121 131 179 149 119 122 119 120 112 112 110 99 114 141 143 118 114 124 101 92 78 84 91
693 503 578 655 673 640 501 366 405 269 166 168 162 164 157 146 121 102 104 120 148 162 153 129 112 119 126 122 105 97 95 91 111 125 126 137 126 106 88 74 99 103 93
536 556 577 505 383 221 202 288 313 350 305 216 143 154 166 145 131 117 120 131 131 134 110 103 116 130 114 88 85 82 88 81 111 153 165 140 103 83 92 99 92 86 80
312 342 329 324 352 249 287 186 214 204 217 251 321 209 170 172 161 150 191 219 158 74 94 111 114 108 111 124 123 112 122 139 147 144 139 128 120 110 106 87 79 78 84
222 169 152 169 157 141 170 193 222 251 259 267 261 252 244 243 211 181 175 157 120 84 98 123 118 135 125 137 127 111 101 94 106 119 122 134 125 107 81 68 60 63 78
156 119 150 167 151 120 144 143 125 157 182 142 162 167 179 212 148 132 111 108 89 96 116 125 154 177 147 130 113 93 75 58 72 84 90 101 100 87 64 55 66 70 88
83 74 85 87 71 82 120 81 101 158 177 205 70 86 73 101 95 67 77 54 71 91 108 129 135 117 125 130 114 88 92 101 88 69 90 103 93 77 59 65 60 72 80
89 105 87 98 82 110 174 265 157 94 90 81 102 109 96 110 81 56 46 59 37 37 58 96 134 128 128 104 83 75 89 85 77 108 126 109 95 72 77 65 65 79 72
96 119 153 181 183 172 158 117 108 71 150 171 154 155 92 71 55 34 54 51 65 27 55 151 153 139 121 120 105 75 104 83 66 103 115 93 65 59 57 53 59 65 75
110 144 167 190 192 190 183 174 188 168 173 160 136 114 114 106 56 60 74 62 90 110 136 188 203 192 162 142 133 87 72 104 108 99 103 81 65 51 50 49 57 62 79
91 87 125 122 166 203 193 146 116 75 79 122 119 99 113 150 94 56 63 100 113 122 133 178 209 193 211 158 105 104 86 117 111 101 88 77 66 55 69 61 57 63 67
92 101 108 118 104 117 131 107 82 101 89 56 83 141 154 125 100 130 118 144 135 129 150 195 191 205 166 120 119 133 93 70 77 75 87 79 73 74 69 48 53 60 52

GFSGL_con_3kmhel_021.txt.gz
Helicity
442 407 352 269 222 220 132 97 85 38 -11 -12 26 83 96 109 120 127 122 137 146 145 151 160 145 128 103 128 135 143 116 114 88 62 48 58 57 55 56 49 49 49 61
468 424 360 308 233 188 131 68 74 42 28 17 18 55 94 113 133 154 154 158 156 157 150 172 167 191 121 108 137 138 116 108 80 57 78 62 55 77 47 46 47 53 59
421 383 328 258 253 183 121 72 65 39 26 40 48 71 110 132 155 166 174 189 180 170 191 204 173 211 193 130 126 137 136 119 89 79 71 60 64 69 68 68 73 60 73
381 362 327 261 238 181 127 71 54 68 75 67 104 116 130 161 186 195 233 239 220 213 231 205 179 198 208 167 141 148 158 146 126 86 71 66 70 68 84 78 76 85 89
352 315 299 277 204 167 99 72 74 70 76 129 161 157 180 190 217 247 276 292 262 242 288 215 155 131 134 159 161 133 152 139 140 136 119 117 118 103 63 54 91 87 94
319 303 309 299 218 166 128 85 96 110 113 179 202 230 253 253 245 272 316 320 296 309 321 200 153 116 82 88 127 139 163 158 166 163 167 167 152 160 83 100 127 116 111
344 276 294 318 246 193 160 144 116 133 189 196 203 240 251 232 240 290 314 324 342 338 264 224 153 144 113 95 86 105 121 152 164 192 172 137 117 129 100 121 126 146 151
312 272 284 310 269 241 192 167 137 161 192 218 229 236 202 173 213 252 265 289 279 260 228 205 192 155 159 134 112 118 114 140 165 157 173 120 99 92 149 131 123 138 159
275 292 334 329 267 289 239 203 179 156 177 219 238 206 157 158 156 178 256 245 243 212 180 145 163 151 123 118 134 127 116 102 119 89 99 85 86 79 105 149 140 166 153
308 315 351 377 336 311 293 263 235 200 164 236 207 177 160 190 156 167 247 248 221 204 157 165 140 137 105 116 130 157 114 87 93 117 135 121 113 84 110 151 174 162 154
256 310 304 372 368 332 306 319 312 285 231 194 193 194 194 181 122 209 313 238 185 174 190 144 99 73 72 106 145 158 108 118 117 118 123 128 136 100 105 132 128 137 141
268 319 371 388 433 400 347 335 326 292 226 248 227 201 162 131 174 234 280 191 210 224 159 108 87 75 75 98 124 97 127 139 122 135 148 139 109 69 100 111 93 90 90
282 302 343 368 465 446 472 398 335 296 267 309 302 238 227 214 218 186 178 149 162 143 113 105 128 118 116 124 106 131 127 128 149 142 131 108 90 82 76 85 100 106 95
374 355 404 429 438 495 552 425 454 372 345 339 303 299 296 235 209 151 204 160 152 127 150 151 152 156 153 149 143 118 110 116 130 131 110 101 95 92 102 126 121 93 91
243 365 484 560 587 553 601 428 362 412 348 349 324 297 290 248 236 222 240 190 145 164 223 204 183 149 144 140 122 107 116 122 121 130 122 112 95 103 106 119 109 99 96
313 433 516 654 799 822 838 836 798 612 448 265 224 148 171 137 184 228 194 171 171 212 188 140 116 121 127 119 115 117 111 109 116 123 123 121 112 114 102 101 103 98 87
235 488 670 786 948 699 566 487 737 628 318 146 115 116 118 140 218 190 176 166 176 178 130 119 100 114 111 100 99 106 108 101 103 107 119 107 107 98 99 100 111 101 89
600 628 723 743 784 653 469 437 386 276 187 194 409 239 186 173 187 197 219 247 159 118 143 113 96 94 90 90 105 107 98 92 94 105 102 93 98 100 103 99 95 86 89
434 383 351 516 247 222 172 178 191 313 66 182 290 280 211 236 251 216 179 153 114 101 99 98 84 81 90 96 104 106 95 85 85 90 87 104 110 112 98 84 78 85 82
851 266 82 203 172 406 221 153 134 97 139 180 161 169 190 259 225 189 136 117 113 93 79 79 72 89 104 113 113 103 82 76 72 67 62 73 100 123 111 85 90 81 87
147 218 79 209 98 63 86 89 73 108 121 112 129 109 98 179 189 114 92 63 63 71 63 54 85 107 120 124 130 92 48 39 50 57 72 92 123 116 93 79 81 78 87
-24 52 131 85 30 28 27 25 25 56 71 114 138 148 139 150 117 87 47 31 48 56 44 64 93 98 136 132 96 91 69 52 77 85 102 111 116 101 82 79 72 81 87
26 26 20 -1 16 68 103 89 72 106 104 101 117 120 48 59 59 30 37 60 75 59 41 82 93 83 88 82 82 92 83 38 58 92 106 94 91 76 67 67 67 73 74
46 49 81 89 92 99 111 119 98 85 92 109 113 100 90 68 46 34 71 108 102 96 88 100 97 100 127 89 111 85 50 41 85 93 84 83 74 70 59 59 63 65 62
99 105 184 117 86 85 99 99 88 92 90 92 109 82 63 90 85 87 101 120 110 134 125 117 151 147 123 139 115 82 44 59 96 95 96 94 77 60 55 66 67 60 62
189 71 20 41 37 92 82 94 99 85 89 59 75 94 58 68 95 119 143 131 126 126 131 134 135 143 131 108 89 100 80 78 68 74 96 100 87 68 65 55 50 52 50

GFSGL_con_3kmhel_024.txt.gz
Helicity
357 355 323 285 292 288 239 170 151 133 65 -14 -26 -14 -3 44 69 88 70 78 102 98 99 121 123 133 144 133 126 125 121 146 89 57 28 42 44 48 47 47 49 48 44
441 421 406 387 343 349 263 176 160 139 93 24 11 14 7 39 91 108 103 104 109 115 119 149 124 125 143 156 159 125 117 127 129 85 52 58 70 61 46 62 53 38 44
393 395 365 350 364 325 292 192 175 147 102 56 40 21 27 44 105 113 132 149 137 139 153 173 161 177 151 141 133 126 101 131 149 119 88 92 95 84 79 90 117 89 57
307 333 341 350 378 338 325 233 170 160 134 68 44 64 63 55 94 134 157 175 160 133 152 188 168 181 163 160 141 107 110 116 128 121 79 85 91 100 103 118 119 94 64
340 278 259 309 299 276 254 235 174 144 120 106 98 86 93 85 103 160 178 196 190 157 173 214 177 170 123 137 160 154 129 147 157 123 120 122 135 154 145 140 124 101 78
396 303 271 295 313 265 256 247 188 138 129 110 85 96 106 93 101 175 203 209 201 204 224 227 213 194 136 150 135 150 153 200 194 183 143 148 125 165 150 119 107 89 34
343 302 294 334 337 291 275 245 216 175 180 136 103 112 100 105 151 203 227 233 201 227 248 253 240 168 121 149 139 149 173 139 153 159 180 174 135 140 126 121 108 110 104
294 362 346 333 330 308 300 248 200 204 192 181 157 152 139 144 191 213 246 224 201 228 227 221 184 162 171 192 184 202 176 120 110 123 162 133 120 120 119 119 134 126 118
240 269 316 346 364 372 328 278 241 231 219 189 198 204 174 167 213 238 257 226 208 200 224 211 195 170 184 211 206 195 162 112 87 88 100 125 111 112 133 150 141 150 145
388 383 384 397 378 363 329 303 303 277 265 275 216 194 165 174 219 234 250 260 211 211 228 194 206 164 188 223 187 164 138 131 124 142 143 144 116 128 119 107 126 130 150
402 388 376 340 329 349 368 375 332 327 304 276 230 203 176 169 178 215 258 244 212 203 182 217 197 164 204 203 171 172 127 117 137 139 132 133 121 119 108 83 84 116 138
290 349 330 342 334 323 326 307 359 399 374 313 237 210 213 214 193 241 265 245 193 210 196 171 192 184 216 203 183 131 154 159 162 150 130 113 122 103 88 83 101 103 97
133 211 240 251 263 339 345 375 377 405 344 295 310 216 220 263 359 272 184 212 206 230 199 198 254 298 283 218 158 160 169 142 147 136 121 114 104 109 107 109 99 108 100
91 137 219 242 283 259 261 242 306 370 364 357 329 390 411 461 381 250 238 230 290 302 315 325 346 320 230 187 188 141 116 122 115 115 121 116 120 108 103 101 103 122 116
40 92 155 214 271 314 455 451 348 270 307 262 359 532 479 401 403 443 244 203 214 266 338 333 344 285 243 200 148 123 109 111 105 117 121 122 111 98 91 100 108 118 112
39 66 127 234 274 453 575 520 602 561 610 626 650 877 677 256 202 284 298 83 172 234 242 272 287 234 201 148 121 128 105 89 90 104 114 110 101 90 93 105 114 118 105
28 61 155 291 418 525 553 475 587 876 865 761 643 689 491 63 64 216 95 106 184 185 196 228 202 160 129 106 120 115 104 94 109 102 105 103 96 93 100 104 112 104 97
83 167 267 417 436 447 526 483 519 648 632 748 622 438 208 205 299 228 189 269 184 128 197 205 174 134 116 113 101 118 138 128 108 94 93 100 99 96 100 93 90 90 79
198 215 258 488 712 902 863 867 825 736 531 258 93 212 217 337 278 266 222 190 133 136 149 129 125 117 108 96 105 125 129 120 96 94 92 100 96 91 80 78 79 76 83
163 157 186 411 573 1118 757 755 599 390 254 326 107 88 309 393 384 214 158 140 144 144 122 114 104 88 106 117 121 123 139 117 84 75 72 77 79 72 70 74 70 75 86
71 60 26 191 2 99 77 96 230 454 377 120 33 6 74 149 212 152 100 135 125 116 102 89 80 86 115 132 130 114 102 72 46 43 53 62 66 73 74 73 73 71 72
-2 -0 54 65 2 2 29 -7 27 66 75 120 45 96 190 177 125 95 131 124 60 54 60 71 80 80 107 117 116 112 87 50 36 27 42 64 80 85 88 80 74 66 69
-14 -38 -49 -19 -17 28 53 -0 76 64 65 99 118 101 94 139 130 102 43 31 42 49 46 52 63 68 55 68 107 118 111 50 22 46 68 86 91 95 91 73 66 59 61
43 32 30 50 73 52 30 68 74 64 108 164 152 87 56 53 54 26 21 47 50 63 64 52 56 51 58 61 88 87 70 69 58 46 67 85 84 84 83 72 66 64 57
77 80 110 88 79 132 118 117 124 86 46 47 40 31 33 41 37 8 28 74 83 82 78 79 81 90 103 124 122 85 77 102 63 62 80 83 78 77 70 63 68 75 72
169 149 157 150 175 69 30 9 11 37 10 23 44 52 91 100 94 70 6 43 89 75 88 95 65 82 105 99 108 91 96 102 71 58 70 74 79 73 72 66 63 70 73

GFSGL_con_3kmhel_027.txt.gz
Helicity
180 191 171 124 109 125 127 126 112 126 94 47 -19 -43 -50 -42 -19 -5 12 37 63 77 86 89 81 77 85 86 79 73 74 69 86 86 57 67 54 59 68 73 57 47 60
256 218 200 188 183 187 197 164 138 141 133 102 40 -16 -35 -33 -19 -9 26 42 65 73 79 93 81 86 97 90 80 72 77 74 89 88 90 80 66 77 86 87 72 72 82
237 237 193 195 206 219 200 193 157 147 131 106 68 9 -18 -26 1 1 15 44 68 73 95 118 106 130 121 117 117 111 95 104 89 111 74 83 91 92 108 101 106 111 102
189 226 237 229 239 259 227 185 196 189 143 112 106 55 22 -6 6 23 26 40 59 77 94 113 129 153 150 165 148 141 145 144 127 140 120 73 75 107 98 108 127 146 143
162 216 224 234 234 243 208 172 158 169 179 146 127 78 51 16 7 31 54 64 75 76 94 114 127 147 142 164 140 159 179 207 208 169 162 124 93 98 126 123 109 123 93
229 239 231 217 235 253 230 219 190 168 148 126 121 109 74 49 42 90 117 92 88 85 109 109 109 151 176 190 137 155 176 226 242 191 156 134 116 96 152 100 101 99 77
205 210 222 251 260 243 236 243 211 195 172 160 134 143 83 49 107 167 155 129 106 85 106 113 137 155 163 196 152 150 150 162 174 171 159 126 140 136 126 109 110 107 84
152 158 219 259 239 243 242 235 250 261 217 189 168 150 129 68 140 202 186 133 140 109 112 132 154 139 184 210 171 172 199 184 183 151 118 95 107 120 125 98 86 101 96
156 198 259 245 251 272 279 244 239 275 280 216 183 154 141 91 172 214 228 122 126 142 139 132 170 141 157 214 207 195 238 221 196 149 141 166 139 161 143 96 100 122 121
178 226 297 278 306 339 384 292 253 249 286 284 246 203 146 112 200 236 238 132 112 142 161 143 168 162 182 222 184 221 247 213 196 211 175 154 134 148 120 79 102 113 108
115 110 153 209 256 271 283 236 170 147 148 288 254 314 240 204 164 230 237 208 211 189 236 210 167 181 222 217 190 199 183 195 204 202 198 165 151 124 106 88 87 89 108
106 109 142 195 199 195 293 224 336 213 90 37 80 208 295 312 264 218 252 233 285 289 295 185 170 208 229 227 227 179 205 206 202 192 192 155 136 117 122 123 107 81 95
76 60 75 77 142 183 216 209 272 278 128 93 85 4 77 186 328 326 311 297 348 299 209 189 229 216 301 278 219 224 201 185 201 195 164 147 116 137 158 136 105 96 94
63 70 73 98 117 137 128 177 243 249 248 381 271 165 188 231 195 352 340 441 454 503 411 337 301 355 332 266 251 192 149 162 161 161 157 153 151 150 124 105 89 104 88
58 47 43 38 67 77 113 164 293 314 321 512 350 301 304 401 419 369 571 702 686 453 410 377 346 287 279 275 227 202 194 168 174 177 165 142 139 129 107 106 104 106 83
129 107 88 73 73 85 184 251 418 336 305 375 332 254 470 632 556 562 534 596 594 216 306 224 200 178 190 192 200 191 182 180 184 176 135 125 119 105 108 113 105 89 81
102 105 105 110 90 141 268 257 292 460 429 383 482 582 499 414 586 608 569 487 271 390 378 227 52 110 185 176 175 185 220 185 201 152 123 108 100 100 124 113 96 80 80
134 169 198 222 175 197 216 325 473 420 532 697 1041 796 700 532 297 366 540 554 161 374 409 262 129 197 197 170 174 209 217 200 162 134 119 105 101 108 111 100 92 79 70
197 163 92 86 186 291 286 329 398 586 708 795 951 966 681 585 512 358 414 331 344 299 88 231 183 181 160 157 187 197 186 157 141 135 118 108 113 107 92 85 79 69 55
121 111 79 64 115 136 289 474 645 519 704 1010 905 629 570 550 424 380 272 191 245 92 172 157 146 137 143 192 199 182 173 177 157 134 112 104 105 87 80 72 71 57 50
103 121 52 14 44 66 63 171 299 132 129 79 143 254 212 214 232 236 256 216 412 97 103 131 144 157 230 198 183 165 175 176 146 122 104 95 91 82 72 64 68 59 38
63 48 64 101 -8 -5 49 -4 14 51 34 157 183 194 164 102 125 93 59 56 97 82 116 168 167 184 154 140 147 162 175 145 119 97 90 84 77 68 68 69 66 51 44
42 45 38 22 -7 12 26 -37 -33 -2 24 -27 -79 3 26 10 27 56 67 100 108 165 187 170 151 110 103 108 134 141 130 120 91 74 62 70 68 56 63 69 63 48 47
49 34 20 20 35 27 22 17 35 54 61 40 43 42 3 37 51 81 123 157 155 139 93 77 68 73 99 132 151 130 103 102 102 77 65 64 56 71 64 69 62 56 56
144 95 83 60 44 72 90 89 98 102 108 109 138 126 140 164 163 131 118 95 71 62 64 64 70 71 81 96 103 106 141 161 117 96 65 66 60 66 62 64 62 65 59
217 249 236 211 167 140 139 145 147 164 206 134 129 115 111 59 43 49 34 22 33 50 62 78 88 85 68 72 102 157 193 164 136 84 52 60 67 61 54 49 48 53 67

GFSGL_con_3kmhel_030.txt.gz
Helicity
148 169 116 70 67 61 80 87 71 57 72 52 69 11 -7 -18 -25 -37 -47 -25 2 18 33 67 75 73 76 78 66 51 64 68 87 82 95 136 99 88 118 81 84 78 93
136 163 180 165 118 76 80 70 84 83 79 91 78 58 10 -7 -14 -27 -35 -22 12 37 54 68 80 95 93 73 81 92 94 86 80 131 108 133 91 103 101 127 99 78 90
79 85 82 93 95 98 87 61 74 96 95 62 63 86 50 21 16 1 -24 -14 10 25 47 78 86 115 131 88 86 111 92 106 122 121 143 130 109 93 92 93 124 103 117
39 62 89 118 137 140 145 115 99 113 107 96 97 102 94 44 28 20 -3 -5 15 22 46 77 101 136 146 134 124 116 115 136 144 144 154 153 152 112 82 55 98 98 74
38 38 68 105 125 133 149 124 109 119 128 135 118 105 104 74 23 38 35 24 38 38 48 83 111 118 146 146 157 159 157 153 148 201 169 172 165 145 129 81 69 86 109
55 79 66 83 100 130 163 140 122 138 163 168 161 146 135 100 60 65 75 62 76 82 83 112 123 155 152 172 187 185 195 161 143 152 149 157 161 137 112 114 79 98 86
33 82 87 114 105 127 168 173 145 172 179 194 192 175 181 167 153 143 154 89 106 116 111 134 154 147 172 159 193 153 198 205 126 137 131 130 143 132 127 127 114 99 81
93 75 92 74 83 105 143 185 171 190 186 184 191 186 178 156 193 234 196 121 134 143 146 146 182 188 225 168 180 208 207 213 173 156 155 92 98 117 122 118 104 105 79
125 109 94 82 59 77 136 176 186 175 172 162 110 114 119 95 172 281 289 162 90 147 182 190 182 183 259 251 195 190 210 178 207 193 200 195 187 161 136 105 109 85 65
122 101 85 111 130 120 139 133 150 143 141 142 170 162 127 83 98 165 275 172 107 131 144 195 224 228 296 301 229 209 258 198 196 249 230 188 167 148 143 118 97 96 86
72 87 101 133 162 173 183 176 207 192 153 170 169 199 196 186 148 182 231 222 226 217 209 222 189 263 375 342 265 304 276 202 181 192 182 181 176 153 140 118 91 91 100
72 79 117 104 93 101 144 181 181 173 181 211 218 124 319 255 192 272 276 246 197 256 306 275 293 353 318 325 305 252 224 185 212 164 169 200 180 149 123 154 113 100 118
83 96 91 87 79 114 161 158 181 169 183 231 268 253 318 265 285 296 313 222 152 259 188 307 463 369 309 330 307 279 259 173 221 195 200 160 152 114 204 166 138 122 107
65 74 89 73 70 71 93 109 125 129 167 164 255 260 359 222 251 368 356 343 162 224 364 546 604 358 309 283 371 266 205 151 252 171 172 179 152 212 179 142 118 91 64
118 114 92 75 73 76 67 88 100 78 120 141 172 175 261 368 268 378 574 553 474 472 740 768 532 473 493 475 265 244 179 228 304 186 201 223 187 167 147 151 104 91 67
173 126 112 93 78 78 87 88 227 238 225 155 131 208 172 164 265 459 518 453 566 758 846 724 547 443 553 609 444 257 181 219 198 220 209 178 161 150 155 144 101 81 69
188 165 136 105 109 108 79 75 98 199 185 214 199 146 212 380 513 524 397 534 505 590 622 584 613 556 577 896 756 301 165 165 179 222 143 157 149 142 157 127 96 71 70
105 113 116 122 117 112 117 129 139 160 159 154 253 318 388 456 513 536 515 557 496 522 486 466 469 608 666 561 424 316 160 146 220 201 163 153 151 152 135 97 83 65 73
55 53 55 71 107 135 177 204 214 252 289 273 254 303 400 571 642 653 541 512 491 468 460 446 481 532 507 318 263 189 173 194 183 170 157 168 153 123 106 80 71 120 117
146 173 164 165 162 151 153 163 155 159 262 256 289 234 237 447 594 997 725 706 561 373 344 326 379 415 241 148 110 170 186 180 181 165 175 168 129 101 86 80 78 100 83
63 51 100 132 153 147 169 164 138 78 76 110 120 151 109 231 330 341 431 401 372 238 245 197 151 125 86 149 155 185 195 180 154 157 166 124 118 89 85 85 81 91 96
125 86 115 118 91 88 107 88 50 65 72 79 86 120 180 217 106 127 70 46 91 164 144 142 93 63 102 194 198 188 174 157 159 153 132 105 99 94 99 81 91 99 97
110 91 78 82 68 51 53 65 58 44 50 36 20 3 14 47 66 80 67 86 112 111 53 58 79 94 95 151 149 143 139 131 137 134 112 98 96 92 94 84 86 100 87
108 85 65 70 73 68 65 58 54 46 31 50 26 -27 -28 22 41 19 63 64 43 108 101 84 87 147 153 121 120 101 105 114 135 114 90 89 94 119 87 79 90 102 78
161 148 166 131 71 68 66 88 100 86 77 69 76 60 54 13 -4 2 16 34 61 91 88 122 111 101 85 86 72 60 169 231 87 121 70 100 85 82 62 79 90 88 61
199 196 165 144 147 151 113 67 51 92 109 100 128 161 195 205 170 84 76 79 89 109 130 104 79 63 55 51 56 178 218 236 167 116 60 59 51 55 66 72 79 70 60

GFSGL_con_3kmhel_033.txt.gz
Helicity
171 197 154 124 96 71 77 93 73 81 89 35 125 108 74 35 21 7 -28 -6 37 36 31 76 77 29 44 74 74 72 79 74 86 53 86 198 175 113 171 120 101 93 75
155 187 199 178 133 108 90 92 93 100 114 129 118 146 102 57 44 41 18 5 62 49 61 78 104 77 73 56 85 101 97 108 90 120 74 216 193 163 104 138 69 35 39
99 122 150 167 181 172 147 119 117 114 114 105 115 147 153 116 90 75 57 29 51 78 69 93 108 131 142 110 116 115 121 125 130 103 102 147 161 189 160 101 84 59 39
69 57 72 97 142 172 202 190 129 126 122 110 110 127 154 140 131 108 90 68 57 79 99 96 116 147 162 170 146 139 124 164 144 112 114 104 165 173 173 122 121 113 74
108 80 71 53 54 85 137 176 162 141 128 125 129 151 143 135 118 140 94 72 77 90 114 130 123 161 182 188 180 187 189 192 143 178 149 109 118 157 216 139 133 103 73
101 102 86 66 64 62 97 153 161 163 172 166 190 205 212 161 121 145 148 102 81 96 117 176 170 206 211 229 192 169 205 232 198 140 132 143 140 172 147 123 116 126 90
135 125 89 103 103 96 92 133 164 203 211 213 201 218 215 218 228 238 216 166 115 112 130 169 212 178 255 251 227 177 222 262 204 211 146 98 147 169 183 169 146 112 100
98 158 127 140 159 154 113 110 133 142 184 215 206 202 226 246 224 263 316 237 183 113 117 156 205 213 283 299 263 243 233 283 262 223 211 129 115 146 224 137 117 124 103
101 158 153 144 162 177 165 162 168 193 192 214 228 243 246 248 296 268 295 247 223 190 146 132 134 205 259 367 316 276 259 254 288 270 205 197 225 237 208 134 124 136 89
148 145 182 165 183 185 163 180 188 157 163 156 165 209 233 233 302 396 383 259 246 227 225 205 224 204 249 401 381 342 359 334 285 336 251 208 269 300 269 192 124 123 88
108 115 171 178 198 164 139 129 141 154 140 151 153 171 179 221 280 403 465 378 338 350 306 291 343 392 407 457 467 472 391 322 281 330 293 219 206 204 200 180 147 130 99
124 127 134 139 155 157 133 132 152 155 143 114 148 138 172 189 251 354 433 451 433 380 372 318 277 414 434 419 437 421 403 330 362 379 291 177 171 202 189 172 147 152 105
123 126 119 128 126 122 154 159 140 159 135 140 162 199 200 229 248 321 361 372 311 376 317 401 298 277 436 491 426 449 405 376 376 312 218 188 204 159 180 240 217 158 141
120 103 105 107 119 117 120 139 122 139 156 149 191 207 214 197 229 251 266 287 311 260 323 330 472 505 670 639 589 435 373 294 292 297 191 156 235 247 315 338 256 204 145
118 112 103 83 92 98 95 96 111 95 79 90 112 88 108 129 186 179 224 240 288 386 338 490 524 719 920 909 763 497 373 605 243 251 495 357 162 270 281 312 215 171 98
109 122 111 104 93 92 101 94 98 95 118 72 63 99 110 163 140 161 333 380 430 354 305 554 555 720 982 997 860 674 650 564 597 370 448 372 197 228 259 205 174 104 96
314 314 270 189 176 147 85 72 69 73 107 148 190 137 114 95 57 86 247 390 472 465 357 427 483 667 800 877 864 754 720 497 524 615 430 304 161 227 236 206 168 96 93
201 193 180 201 196 185 184 166 158 143 179 243 284 216 181 125 83 146 300 487 556 430 335 397 444 588 713 829 750 614 502 517 621 524 310 181 205 196 204 152 134 127 85
194 168 131 106 134 122 143 166 173 172 168 160 169 186 188 180 240 321 342 414 576 562 459 420 510 617 767 717 640 445 392 473 384 337 247 162 203 176 149 126 79 143 117
60 82 68 49 30 53 52 53 75 124 115 173 171 169 159 152 193 202 259 277 356 287 491 662 806 833 645 505 345 353 358 403 187 137 167 182 173 142 127 120 100 139 141
122 78 83 91 136 125 127 147 169 180 146 132 132 132 78 76 112 86 96 94 238 27 160 168 925 636 416 256 243 271 222 241 185 173 225 193 188 137 109 107 112 109 124
111 81 80 102 99 139 171 189 197 174 164 125 89 79 59 63 46 42 44 57 107 68 113 87 105 146 132 166 191 227 184 141 151 188 195 199 169 150 119 111 112 114 101
114 108 117 109 100 104 129 134 123 91 69 52 37 32 21 28 27 23 43 17 18 21 70 153 143 132 121 161 150 99 122 197 202 162 170 164 139 127 103 113 92 114 99
178 237 180 152 173 168 168 101 93 85 76 65 50 34 2 22 25 30 12 42 30 30 65 65 91 137 120 104 92 139 156 199 158 145 164 129 109 126 103 92 93 94 109
231 225 154 180 190 183 193 184 161 135 102 120 114 106 124 51 15 16 15 7 26 61 77 50 4 9 83 108 91 59 86 148 135 149 120 128 107 141 117 111 95 94 104
214 191 176 125 117 96 108 113 140 160 159 147 156 163 156 202 201 235 154 65 33 10 9 28 54 54 65 44 4 139 282 299 251 162 98 115 117 114 93 75 82 95 111

GFSGL_con_3kmhel_036.txt.gz
Helicity
146 146 137 124 114 111 83 68 43 40 47 -22 158 208 176 141 99 72 40 18 37 46 56 39 101 70 46 71 112 85 101 90 60 27 105 261 284 266 223 189 158 141 128
150 118 103 108 117 104 93 81 74 73 57 48 110 198 230 185 143 119 102 47 55 111 108 90 118 118 76 51 141 144 115 106 119 86 61 186 239 222 222 206 153 86 82
116 105 105 113 123 121 119 120 117 123 113 103 100 204 238 206 170 141 113 81 33 109 120 114 127 166 125 94 126 179 195 178 167 153 115 110 200 258 247 185 126 93 29
126 96 97 106 129 135 131 123 127 158 165 156 161 197 248 240 194 176 146 107 55 21 104 118 139 171 222 185 153 171 204 241 205 196 169 120 131 254 302 267 165 99 87
150 160 147 117 117 107 116 130 141 153 202 213 206 188 221 238 214 196 188 185 160 98 71 158 171 190 216 244 227 197 210 242 291 269 224 183 160 155 311 278 252 178 151
218 235 210 163 126 106 96 113 123 124 127 143 167 188 212 248 271 273 237 198 195 175 132 120 182 205 219 275 249 226 268 284 271 306 285 284 241 158 194 279 286 248 275
228 240 284 260 180 141 111 98 112 134 145 156 184 207 235 265 294 332 322 285 235 207 198 159 142 188 238 274 269 230 213 249 279 271 281 240 253 226 253 293 293 339 290
147 160 227 336 293 207 172 152 144 148 164 181 183 206 231 284 337 377 383 320 333 304 257 236 207 168 222 289 341 321 262 263 285 312 265 226 211 250 290 286 255 245 239
67 79 149 263 330 301 256 211 185 172 179 203 210 217 237 246 308 382 435 351 324 348 368 319 287 257 234 320 345 373 348 292 290 263 227 271 274 266 279 290 257 260 247
89 96 175 203 263 330 300 255 224 203 197 203 214 237 248 219 247 338 446 386 332 352 345 374 371 339 336 396 384 373 383 365 322 333 324 329 330 301 272 241 221 232 259
128 158 162 196 211 247 283 283 264 222 181 176 165 171 170 180 181 254 380 411 426 399 416 437 457 461 488 486 457 463 520 431 361 334 310 336 402 367 344 293 192 219 329
152 174 187 171 203 199 244 259 246 207 172 156 135 108 123 128 126 156 266 338 280 306 288 292 345 381 424 537 569 477 547 520 509 495 462 459 429 333 283 257 199 134 184
120 186 205 176 187 163 194 215 236 177 157 144 137 126 149 129 106 113 202 226 196 216 251 246 374 249 289 362 449 443 548 550 539 576 539 517 408 279 194 190 263 129 176
145 148 166 161 162 151 142 178 163 150 154 153 148 154 151 132 106 103 148 242 203 225 182 229 276 286 311 328 420 519 498 566 602 651 596 526 363 235 191 295 475 148 269
143 128 130 113 122 119 116 125 135 108 109 118 121 110 107 121 132 237 168 197 263 288 291 247 228 259 277 385 564 572 648 646 720 679 581 618 374 279 191 491 445 305 185
164 167 121 103 91 104 96 93 63 113 155 156 172 162 136 140 142 83 65 147 197 323 358 334 369 420 454 473 480 539 547 683 736 661 804 611 330 195 435 518 390 235 206
237 208 119 78 90 96 38 79 91 210 218 146 132 138 126 94 99 99 55 4 102 370 456 457 463 545 555 500 558 579 670 695 856 785 803 811 191 240 506 516 268 231 149
200 277 340 398 395 434 390 337 289 300 243 215 136 79 65 84 107 102 119 118 172 293 361 384 435 488 562 546 546 543 624 768 842 763 712 558 341 457 487 473 249 202 172
263 311 258 259 261 221 185 170 170 166 169 173 149 143 146 224 204 187 151 183 222 267 256 300 339 368 468 631 624 629 696 722 780 831 736 385 425 484 422 232 166 150 146
239 267 218 159 168 173 153 136 113 108 126 135 153 181 200 189 198 203 169 167 189 254 249 222 211 207 244 372 460 822 792 775 852 702 384 373 445 357 171 153 173 201 188
178 192 172 185 180 141 133 103 100 138 114 130 93 91 104 117 137 146 128 100 134 207 214 152 149 117 162 199 165 409 765 1263 537 375 289 284 223 183 174 162 144 191 192
134 172 227 162 149 238 203 219 226 185 179 154 114 69 60 66 93 88 95 92 95 75 45 51 58 23 9 27 49 137 227 169 172 155 181 172 161 150 154 152 154 170 201
302 234 241 269 256 240 188 234 233 211 180 156 142 142 143 144 85 47 39 29 32 44 28 29 28 54 65 83 150 195 181 165 141 140 134 186 212 192 172 179 197 201 209
282 320 274 277 277 301 238 167 192 207 193 169 166 168 173 117 100 93 73 20 6 16 39 56 55 75 58 89 108 87 54 26 41 99 168 174 194 198 205 196 162 176 192
225 174 122 139 166 195 213 209 202 203 184 179 156 152 150 153 154 152 151 65 72 28 33 37 38 54 54 68 55 20 42 82 107 145 176 185 181 171 170 148 152 150 163
359 311 291 215 156 156 172 181 192 192 198 191 194 189 200 200 209 211 237 293 327 208 85 33 3 2 45 -3 -60 49 109 128 156 189 210 170 176 178 176 164 133 137 129

GFSGL_con_3kmhel_039.txt.gz
Helicity
187 138 81 32 59 109 90 51 18 21 33 53 133 187 246 227 168 116 63 17 14 12 46 60 42 24 12 27 60 120 104 113 109 89 105 128 257 255 231 198 176 185 141
213 122 54 24 19 70 103 93 71 19 27 25 128 172 204 187 179 166 119 62 32 43 61 74 62 56 50 55 96 100 149 152 158 92 138 202 248 246 267 236 189 164 153
227 151 99 71 71 74 91 97 86 75 25 38 74 147 193 222 226 199 191 160 94 75 82 104 98 119 91 75 97 113 102 126 183 193 155 216 206 259 270 244 181 112 105
202 180 150 122 105 103 97 92 105 96 90 62 72 158 251 288 264 249 215 181 132 83 113 138 155 193 164 136 112 118 149 155 201 238 208 189 233 226 259 270 205 141 87
219 191 181 163 164 140 131 110 99 110 102 100 110 139 220 303 376 354 303 269 220 155 119 157 153 167 207 219 181 147 172 215 221 228 236 212 181 238 294 278 241 184 114
260 235 195 188 174 167 156 147 124 107 129 138 147 176 208 264 315 417 393 325 296 248 192 169 187 182 192 230 241 209 200 219 245 296 278 279 237 217 249 263 245 250 200
284 283 256 217 196 174 155 156 143 140 135 147 164 168 207 229 273 354 403 344 310 320 293 229 196 190 236 244 245 266 247 212 221 277 344 345 273 240 250 288 280 308 255
315 335 315 317 299 238 174 158 148 132 133 160 166 180 186 213 265 306 344 326 297 288 312 321 308 256 231 275 287 291 277 246 208 222 244 262 291 247 256 290 325 310 293
273 314 349 408 377 367 330 238 166 132 123 129 138 160 189 198 244 290 306 276 284 326 344 359 382 378 386 407 372 378 353 357 326 290 280 271 269 252 318 407 420 443 350
236 226 307 341 370 394 430 405 331 231 158 144 142 148 164 170 198 257 306 283 253 302 317 346 396 440 447 472 463 454 455 493 453 412 353 364 331 326 335 369 411 416 368
183 282 255 272 284 330 385 414 429 383 298 196 143 141 135 131 130 215 279 281 288 245 261 280 317 340 351 419 439 403 462 470 452 474 414 384 441 472 445 425 393 374 381
187 206 184 231 259 326 357 353 365 379 341 286 194 116 100 98 99 162 220 233 212 237 233 249 260 260 308 327 424 418 390 478 511 548 489 482 546 562 596 543 469 491 349
130 143 204 219 222 271 267 298 337 333 322 299 251 183 121 106 115 104 148 173 183 196 165 162 189 234 233 251 326 407 415 451 485 485 526 545 675 616 510 555 460 399 365
146 118 144 219 247 234 256 239 227 270 275 264 240 197 153 118 116 121 136 173 146 175 140 130 161 224 233 272 329 346 416 473 528 538 511 551 690 712 601 556 507 415 308
89 92 125 184 217 217 198 212 181 178 195 191 173 163 153 122 142 230 227 182 168 163 172 162 172 219 244 297 364 375 387 396 452 497 511 608 929 856 705 565 500 347 401
116 110 163 194 201 204 182 195 416 263 239 272 280 182 224 234 256 252 206 156 111 112 135 165 189 238 281 323 356 436 495 439 393 454 483 689 812 970 867 646 529 250 330
135 128 141 146 142 124 140 123 201 336 398 294 209 202 219 159 146 110 70 64 103 85 102 139 197 251 284 314 372 435 519 490 429 480 463 631 878 1067 1112 626 547 274 429
148 182 267 284 273 346 345 325 291 292 231 241 188 112 56 31 -10 -7 5 19 83 110 144 190 231 267 293 296 319 374 413 480 438 446 461 685 855 1115 1124 730 289 305 333
178 192 242 300 279 288 360 360 295 275 247 230 169 122 116 104 68 50 100 83 153 213 209 198 204 189 183 191 214 228 260 278 448 398 412 629 848 1453 916 681 190 300 294
160 113 160 196 220 268 262 254 247 240 228 190 170 146 141 172 158 160 159 159 163 181 181 159 162 148 137 160 186 202 194 197 306 283 296 383 753 438 550 210 258 302 142
168 183 178 253 289 353 383 385 382 361 302 183 175 163 188 204 212 170 159 122 103 119 151 154 136 102 83 69 53 88 132 119 147 196 108 686 715 244 165 219 162 121 86
183 212 299 372 437 487 485 445 382 348 388 308 251 220 165 141 173 148 136 122 94 79 78 78 80 70 59 55 51 10 -5 8 33 35 8 81 133 225 185 120 59 83 100
521 571 572 480 398 370 380 395 387 343 294 266 254 256 248 245 227 207 209 174 95 41 33 34 42 48 35 35 30 48 68 70 48 105 160 158 125 119 68 63 101 118 136
378 409 423 366 301 280 282 275 266 285 266 261 249 235 225 212 205 189 176 167 154 100 64 49 58 61 53 42 29 42 43 49 44 40 45 66 56 61 85 109 110 138 135
407 337 309 285 243 203 220 235 235 235 233 236 243 239 230 235 233 236 228 186 169 167 183 174 169 132 71 53 38 15 -2 -14 2 11 27 78 93 111 122 137 150 162 197
583 391 177 150 178 177 185 202 234 250 252 241 237 243 241 240 239 238 259 273 254 243 243 241 246 266 256 197 117 77 14 21 57 83 104 103 110 123 137 145 146 150 158

GFSGL_con_3kmhel_042.txt.gz
Helicity
192 167 120 101 67 71 25 18 7 1 42 62 82 101 87 92 92 90 68 35 17 -1 -5 -2 -18 -16 -1 -0 9 13 56 110 115 71 113 143 156 198 188 194 182 187 131
165 163 125 81 60 55 54 12 12 -0 -2 64 99 98 114 121 125 138 118 90 64 31 24 22 22 4 3 10 43 62 62 88 147 124 103 138 170 176 221 251 202 164 162
163 107 107 98 87 60 66 56 26 11 -7 -23 27 98 150 157 152 123 111 118 113 82 57 53 45 49 34 24 60 85 98 94 104 102 107 138 176 204 234 217 232 190 144
198 153 127 125 122 102 84 75 53 36 19 16 45 98 134 160 163 150 140 123 103 99 93 72 45 50 55 45 51 67 90 103 111 144 111 144 183 212 273 261 232 199 156
224 191 156 142 144 132 111 92 83 62 41 50 68 80 118 139 157 173 183 177 154 119 107 120 101 102 122 129 83 68 100 99 118 136 169 221 268 306 323 316 272 212 148
244 239 210 179 165 165 147 120 106 103 94 64 88 103 146 162 212 273 263 238 225 202 176 157 149 145 158 177 185 144 157 133 135 188 209 236 253 311 344 349 293 316 215
189 195 177 177 165 163 169 153 138 136 117 121 105 114 154 190 235 298 356 321 297 288 272 238 213 183 205 220 242 261 242 237 203 219 240 297 312 339 343 344 353 341 252
197 190 173 144 135 117 129 132 136 124 122 121 119 125 115 144 205 262 314 301 256 265 274 272 249 235 243 258 246 240 275 284 264 245 231 234 296 290 344 282 306 307 256
143 197 228 240 220 178 159 138 103 89 81 93 98 109 135 129 147 196 207 179 184 210 220 230 253 248 261 295 289 267 266 274 300 322 306 285 293 334 373 379 405 469 363
161 211 305 340 284 266 238 219 219 168 118 89 67 75 106 112 133 173 197 163 132 169 195 231 294 337 329 353 344 307 271 309 324 327 339 270 277 335 426 392 366 511 471
210 258 281 354 367 281 289 307 287 268 239 188 118 91 93 112 142 163 175 170 163 156 161 177 212 242 273 339 401 400 395 253 254 328 363 369 373 409 528 457 420 514 528
137 197 268 333 328 311 306 331 323 308 287 252 218 198 175 155 123 132 136 141 145 149 148 163 180 188 239 271 330 342 350 352 321 292 371 420 423 478 543 501 533 576 492
67 136 191 252 276 279 274 264 272 270 267 252 244 219 195 192 186 123 115 130 93 124 134 130 127 151 204 240 251 295 341 318 319 301 309 391 492 541 615 553 512 529 576
162 101 94 123 163 224 227 240 245 244 236 225 226 208 189 200 206 196 177 167 116 134 114 130 126 132 154 165 200 223 283 340 381 386 364 327 392 512 686 775 683 686 732
139 133 110 112 149 196 316 288 223 209 231 237 237 223 208 182 193 212 206 185 188 157 152 148 129 132 125 138 179 231 301 363 388 399 410 423 424 452 582 683 774 851 782
99 108 98 111 171 222 286 293 427 389 282 221 207 260 265 221 196 177 166 166 164 154 162 142 129 132 151 171 205 232 257 289 355 354 356 368 380 388 502 659 724 754 823
93 135 136 100 121 163 229 276 332 425 466 476 355 288 216 153 168 158 144 152 148 121 117 118 109 108 120 164 213 239 260 246 250 332 309 365 382 302 435 755 757 881 1041
119 93 105 107 122 149 222 308 343 340 313 330 352 291 232 208 206 164 101 126 143 133 115 112 123 127 123 140 173 194 210 201 191 181 192 217 207 328 302 607 811 997 1108
114 82 92 191 231 236 270 280 281 301 296 265 242 236 215 175 113 92 77 91 92 99 109 137 148 163 170 165 162 171 161 175 222 204 197 188 176 182 -49 95 413 642 950
116 86 115 150 218 267 288 328 380 389 350 304 278 246 216 186 187 165 134 130 142 155 166 175 171 150 146 149 147 142 149 161 175 107 42 85 229 309 215 450 462 316 94
102 151 204 257 293 293 337 393 365 364 374 375 345 279 238 192 198 209 207 192 169 154 155 166 166 154 149 137 137 131 150 139 110 81 81 -16 105 240 161 262 142 44 183
211 301 344 360 400 483 457 423 409 356 329 330 337 324 307 283 273 269 267 236 215 185 153 136 137 133 123 114 113 128 111 85 73 71 93 46 69 94 84 96 68 121 202
388 377 376 406 390 395 440 421 377 351 321 309 322 330 333 328 306 280 256 248 235 217 185 166 157 145 121 112 123 108 97 70 58 63 91 92 62 77 38 22 19 -8 -33
623 667 634 513 387 391 377 401 413 400 370 354 331 319 308 274 262 263 255 243 231 226 209 191 181 175 152 128 117 126 109 71 77 61 51 63 55 43 23 18 2 2 -0
787 697 585 533 546 401 352 355 371 364 354 338 307 288 282 277 278 279 271 259 267 283 276 240 219 210 203 172 154 142 125 73 59 52 40 49 50 55 42 42 52 68 69
726 638 483 429 379 416 336 389 359 321 305 277 261 259 268 268 264 263 260 271 259 276 291 289 286 258 201 151 178 186 179 117 52 11 39 50 65 82 101 89 102 122 110

GFSGL_con_3kmhel_045.txt.gz
Helicity
245 201 158 111 70 52 34 22 20 11 -1 -6 13 30 43 54 41 35 17 7 -5 -28 -35 -21 -18 -30 -19 -10 12 18 44 84 96 32 70 62 123 131 112 152 148 144 128
309 256 162 107 91 51 46 32 29 11 7 4 18 23 32 46 64 56 39 24 23 1 -21 -34 -32 -59 -32 -24 -4 23 38 61 69 54 24 65 101 113 126 171 180 164 153
283 225 147 96 73 61 42 54 43 28 34 11 -6 10 19 24 45 64 64 65 68 45 32 7 -12 -54 -46 -37 -10 -7 -2 14 53 76 56 47 60 132 129 150 174 192 162
230 166 130 123 100 85 80 59 54 54 36 15 5 12 7 12 16 34 74 93 95 76 63 52 26 16 12 -7 -1 17 11 7 40 73 62 62 68 103 171 184 186 209 194
210 178 135 140 131 90 56 68 78 64 65 66 42 19 20 28 29 49 59 76 86 94 87 94 84 84 82 62 34 33 60 67 83 102 105 142 165 226 279 277 242 217 208
227 193 168 171 147 100 72 70 85 77 64 67 70 63 57 57 54 109 101 96 94 91 98 102 108 104 115 153 160 132 139 125 134 165 125 150 178 266 301 292 299 346 307
218 124 117 144 119 103 97 92 86 90 86 91 83 93 105 119 129 161 187 138 125 137 138 127 119 118 136 132 127 157 142 197 209 166 163 183 204 299 312 334 355 375 345
187 146 149 172 141 119 112 118 107 110 118 104 85 90 95 86 123 188 215 194 148 171 188 192 187 169 169 186 156 128 119 146 175 213 219 226 253 258 354 334 304 303 282
219 198 158 151 158 129 125 132 144 124 108 105 105 93 101 103 135 157 185 173 153 161 177 198 220 205 207 226 208 180 151 159 159 174 236 224 208 285 373 398 388 430 417
132 179 198 180 190 191 176 129 119 97 81 104 59 55 73 78 108 150 181 134 81 90 101 132 183 219 221 256 265 237 206 190 185 202 271 226 207 209 279 377 329 475 451
148 204 171 159 180 191 187 177 181 202 191 103 63 53 68 85 95 135 161 128 100 92 105 129 159 172 186 232 297 259 243 192 208 238 231 263 309 353 343 362 349 390 462
161 171 156 177 190 217 218 241 235 210 197 193 187 165 167 161 162 172 172 169 125 127 105 112 133 137 161 194 238 233 234 251 264 237 242 244 252 309 379 482 560 480 514
127 116 173 220 218 223 248 203 248 239 218 206 199 194 187 209 212 209 193 173 123 142 114 107 118 144 131 130 128 157 207 232 256 253 278 305 327 290 324 437 539 551 541
199 164 140 171 202 179 181 216 220 192 161 173 177 184 187 205 209 204 194 165 104 137 89 101 127 134 120 117 137 157 184 221 260 280 300 303 277 307 349 437 578 630 636
221 218 193 131 125 194 264 225 178 163 174 183 172 179 186 181 184 203 217 233 214 197 212 170 128 114 104 109 101 87 109 167 220 253 290 309 293 286 307 286 385 408 492
138 139 151 145 132 161 204 236 276 232 223 216 186 185 216 191 164 172 176 200 172 165 157 132 120 111 113 91 86 84 106 133 164 179 189 205 232 245 283 307 295 338 573
50 104 134 152 136 175 208 217 254 279 366 386 294 232 183 145 192 200 213 208 170 164 145 138 124 118 116 122 120 108 93 121 148 179 186 181 183 191 221 264 316 300 239
79 66 89 126 153 197 232 255 255 224 234 247 376 337 349 291 227 167 163 185 182 187 163 140 127 119 111 93 86 101 121 145 177 191 177 188 177 189 195 195 211 254 204
148 151 158 149 163 183 204 202 221 252 270 245 240 275 275 269 250 203 168 153 150 153 137 122 96 80 75 79 98 113 114 128 149 146 157 156 101 103 127 152 181 145 162
103 118 129 142 156 202 238 254 307 331 330 299 282 228 200 190 193 198 194 172 159 139 116 99 85 75 89 104 121 118 121 136 138 135 133 122 87 97 79 99 73 109 155
83 112 127 174 193 192 214 296 312 352 364 355 310 252 215 199 214 222 215 196 162 131 121 118 130 143 152 156 136 129 146 132 121 121 115 100 80 74 72 77 89 145 187
124 150 163 154 172 231 267 286 310 320 294 270 274 302 304 265 250 242 244 241 240 237 235 223 207 194 180 167 163 142 138 145 150 137 105 89 89 78 69 63 107 128 106
187 212 241 243 234 257 305 301 340 347 349 347 336 333 329 321 322 316 297 283 286 297 268 240 224 213 192 183 159 144 153 153 152 124 125 108 74 41 52 57 48 41 69
284 319 320 338 320 318 291 308 408 359 329 347 329 328 354 362 352 338 323 307 288 270 248 238 226 230 197 183 170 159 142 148 124 118 123 120 82 71 64 46 57 77 100
405 485 498 462 453 482 472 500 479 421 368 358 348 334 324 314 319 313 293 267 262 264 268 249 257 268 282 271 268 265 236 148 97 87 100 111 96 69 70 77 81 83 66
522 602 659 647 655 673 606 545 521 464 423 387 381 372 343 315 285 261 257 252 232 231 239 248 287 311 320 286 284 222 172 176 131 96 90 100 96 83 71 80 80 83 101

GFSGL_con_3kmhel_048.txt.gz
Helicity
139 191 184 174 164 63 63 44 26 -2 9 -3 -14 -7 -6 -1 6 4 -20 -33 -31 -39 -40 -37 -7 -20 1 3 4 0 17 30 50 13 28 22 24 53 69 118 116 133 124
175 199 204 214 209 104 122 62 24 11 9 33 21 -3 -20 -17 -2 21 9 -16 -20 -38 -32 -42 -14 -38 -19 -24 -24 8 24 49 57 59 18 26 51 36 50 61 99 113 152
207 192 182 194 213 140 112 85 47 13 5 43 33 19 -5 -24 -20 -2 14 27 6 -10 -17 -20 -7 -29 -25 -30 -17 -3 11 22 55 73 50 26 29 48 49 86 95 127 130
216 215 209 192 192 122 216 89 49 51 36 29 43 32 12 -9 -24 -22 -13 3 20 10 0 0 0 -12 -6 -18 -16 2 -6 -1 8 28 23 12 17 54 83 97 89 143 136
258 228 206 241 248 230 152 98 76 70 60 42 44 28 20 -1 -30 -25 -21 -11 -1 11 27 38 29 30 41 30 -1 -7 6 3 3 1 3 6 16 61 120 126 150 146 153
277 246 244 246 257 222 183 139 114 88 62 42 35 44 49 35 12 26 17 -3 3 9 14 23 29 38 53 77 87 85 73 69 71 70 65 95 142 157 156 200 164 165 147
250 214 229 208 191 174 161 153 91 77 91 58 56 58 58 72 77 82 88 37 10 11 20 14 8 19 63 63 67 110 102 156 170 147 126 155 129 208 187 209 233 216 215
201 158 166 182 155 141 137 126 78 71 65 62 62 75 69 59 89 117 132 89 49 47 50 52 60 55 80 116 104 74 69 82 125 167 181 169 183 176 229 255 226 235 218
173 180 171 173 149 145 129 113 109 91 51 73 74 72 85 63 80 106 115 101 75 79 84 88 107 94 100 140 114 74 33 62 127 145 181 186 178 182 196 202 277 309 339
133 156 165 176 180 186 177 157 147 129 82 81 55 77 99 82 95 126 135 77 52 45 68 94 121 129 131 169 177 145 119 100 111 131 178 177 189 200 222 253 252 341 428
167 150 151 152 146 126 111 111 123 119 115 109 117 121 66 91 81 102 139 128 83 58 60 45 80 119 125 160 218 181 178 158 133 142 140 162 198 237 298 365 381 404 400
162 124 118 146 152 137 137 144 147 155 139 135 132 127 125 127 106 108 126 154 101 107 94 104 117 130 133 126 153 144 132 138 144 144 168 179 185 228 250 310 361 447 490
110 84 93 141 153 161 169 174 184 179 166 150 147 126 118 142 149 154 171 181 145 167 156 141 145 141 114 122 110 125 138 151 168 179 170 157 165 185 209 252 272 336 376
163 138 135 165 170 171 185 188 162 156 165 175 162 145 130 139 154 148 136 147 131 149 107 92 137 148 140 143 145 127 137 128 126 106 110 118 137 170 189 214 230 216 230
210 186 133 123 136 157 224 218 190 149 147 145 147 149 145 134 133 139 157 153 149 158 158 154 130 126 125 126 100 85 91 63 72 96 121 129 142 144 132 132 166 199 242
130 134 134 118 98 97 160 195 245 228 212 161 128 142 170 145 111 72 82 106 121 180 164 138 146 139 123 109 123 103 87 95 103 121 121 118 131 134 127 139 150 160 197
151 151 139 127 109 128 132 135 171 233 240 262 217 173 163 135 158 151 165 199 177 204 152 159 156 147 147 128 102 84 78 83 90 92 93 95 107 114 118 132 161 186 183
132 80 70 84 106 125 161 180 199 213 219 259 400 321 336 263 212 191 177 190 210 207 167 156 147 134 127 109 91 87 82 81 75 65 79 89 107 103 110 111 96 92 100
121 71 77 82 84 88 139 152 177 231 281 301 307 364 314 265 245 268 233 190 193 203 185 171 151 134 105 95 89 81 73 71 69 70 80 96 118 115 118 109 82 74 49
106 83 91 89 87 99 129 185 218 232 248 253 232 197 185 201 236 235 208 188 188 174 171 176 160 137 126 113 100 83 78 86 99 105 108 102 119 127 135 124 124 119 103
103 70 91 91 101 100 124 174 209 247 275 287 279 267 246 252 257 251 224 233 237 225 208 185 182 184 175 150 121 112 110 112 115 112 109 125 132 127 122 115 108 125 132
78 80 97 128 121 109 108 128 175 214 241 260 287 361 307 293 270 260 252 255 263 252 246 244 235 220 206 193 183 163 142 128 122 127 151 150 140 120 121 124 108 123 100
62 73 118 165 155 151 160 175 205 246 278 293 302 316 298 280 274 275 282 286 292 289 287 267 246 234 226 201 158 147 131 125 133 139 160 158 152 149 140 135 117 69 63
73 118 158 218 254 249 248 260 264 286 283 294 312 353 337 305 305 313 308 299 287 281 277 276 271 272 240 228 200 163 143 153 144 135 111 132 147 132 121 87 60 49 53
187 226 252 287 304 348 384 381 390 385 384 361 383 416 389 370 374 374 361 335 325 309 308 286 268 259 263 276 270 265 247 227 187 155 132 119 111 115 107 90 66 74 84
271 349 403 458 485 500 543 561 527 543 511 474 456 440 398 415 400 374 332 308 284 281 266 253 268 296 284 280 302 279 230 249 257 263 196 169 134 116 92 98 77 100 96

GFSGL_con_3kmhel_051.txt.gz
Helicity
84 83 46 5 -13 -4 -8 27 25 29 43 -15 -7 -6 -12 -5 -11 -28 -34 -43 -49 -42 -32 -18 7 1 -1 -6 6 10 14 22 34 20 8 -5 9 27 28 51 57 75 84
124 125 110 98 84 -18 -14 38 77 54 73 -10 -10 -14 -6 -2 -6 -18 -41 -53 -53 -54 -41 -36 -8 -18 -10 -11 -6 10 8 14 20 39 11 18 23 11 30 43 63 81 89
159 110 103 110 98 41 62 98 101 100 85 10 -9 -16 -5 6 -1 -14 -31 -52 -63 -63 -59 -60 -27 -33 -26 -34 -15 -12 -15 -17 11 12 8 -23 -9 -24 -11 26 52 77 112
156 119 129 116 114 112 121 123 105 120 96 43 27 10 -7 -2 -1 -14 -28 -40 -54 -66 -61 -63 -46 -44 -36 -41 -39 -32 -36 -32 -28 -7 -5 -20 -18 -23 -11 -18 -18 29 47
184 164 136 142 140 140 130 127 122 119 104 79 38 5 -12 -30 -35 -14 -8 -11 -21 -33 -45 -50 -45 -42 -36 -32 -55 -48 -52 -55 -55 -46 -21 -32 -11 -13 4 -6 -10 -16 25
181 150 152 156 145 128 128 121 123 107 109 76 34 2 -17 -28 -23 21 31 5 -5 -14 -17 -21 -23 -37 -35 -11 14 23 -7 -3 -7 -16 -3 27 74 66 54 46 40 53 69
218 176 173 178 161 144 133 124 113 99 94 60 32 4 -4 4 -2 27 60 6 -13 -17 -14 -17 -26 -37 -37 -32 -30 10 3 37 62 41 41 72 59 76 49 71 86 117 153
211 172 190 180 151 134 124 114 103 78 76 64 37 27 10 1 26 43 33 -6 -40 -26 -25 -23 -30 -35 -41 -33 -40 -53 -44 -33 -7 46 99 123 115 99 111 97 106 150 195
165 162 195 158 135 113 101 97 90 77 68 58 43 24 10 8 38 61 39 -17 -29 -17 -19 -25 -17 -11 -8 31 -4 -30 -27 -23 -6 56 80 89 95 110 120 92 164 190 217
119 125 140 133 117 103 100 95 103 95 73 57 41 6 16 9 22 64 63 -30 -29 -18 -19 -5 17 33 18 70 54 1 -33 -44 -15 -4 42 64 55 67 136 179 205 252 289
42 34 86 104 101 80 70 66 55 41 40 39 35 40 12 13 -2 48 73 14 -3 -6 -15 -29 -28 25 54 59 104 52 45 5 8 28 71 81 83 94 129 173 286 350 333
64 102 110 111 84 45 52 44 35 37 29 33 28 20 -7 -23 4 19 86 113 45 26 7 -13 3 61 78 97 122 104 87 69 81 81 79 93 107 132 110 120 154 228 312
60 56 81 93 47 40 2 7 13 30 29 28 39 42 52 56 47 58 76 110 75 60 56 77 93 125 145 137 106 120 157 164 154 153 132 105 93 56 73 123 118 133 137
76 90 97 43 33 30 27 28 50 55 64 59 62 65 65 49 43 46 68 88 89 113 85 96 112 132 113 110 142 139 150 164 167 132 71 74 41 54 79 94 101 103 106
132 147 121 76 77 79 73 91 89 83 87 70 57 51 55 60 55 65 71 89 94 91 104 129 143 140 117 118 119 132 147 133 121 101 82 56 65 83 88 93 91 93 110
209 179 169 152 148 94 57 92 227 239 206 166 143 79 75 114 130 103 94 90 108 171 156 155 138 142 146 144 150 165 139 125 104 96 83 78 85 78 73 74 70 65 70
286 224 177 177 138 143 41 71 83 129 168 214 221 155 114 112 142 148 122 126 126 170 160 151 169 158 172 185 156 125 118 104 90 81 86 92 80 79 72 64 73 81 93
281 216 120 69 79 83 83 83 92 99 113 135 219 205 188 198 220 215 226 277 242 206 164 167 194 190 170 141 126 119 106 100 99 90 85 89 81 74 69 71 90 124 122
225 174 148 122 112 102 87 100 106 121 145 176 201 288 299 302 311 298 304 241 208 216 217 222 209 180 158 145 130 116 101 101 108 110 102 86 63 72 68 77 108 128 126
272 214 225 204 133 98 105 109 112 126 139 146 170 207 228 260 287 331 323 288 274 249 218 215 206 170 133 122 127 128 128 122 112 96 86 72 67 80 89 98 131 129 138
248 242 186 170 148 113 107 130 133 138 145 165 170 185 203 206 257 278 289 302 296 275 246 226 227 211 206 206 197 172 144 129 119 102 92 81 77 84 90 104 132 130 128
193 153 128 88 95 91 93 114 146 162 184 211 249 264 277 253 248 253 277 278 263 244 235 222 232 243 244 230 216 200 180 147 119 103 97 89 87 93 109 122 152 158 149
138 140 102 91 100 133 141 144 164 194 196 166 157 184 199 207 217 256 285 297 294 293 290 285 287 292 261 245 219 186 171 147 123 104 104 103 107 126 136 152 167 163 129
66 106 94 92 86 111 143 185 224 245 234 204 197 201 206 215 242 276 301 324 339 347 341 327 322 317 295 271 240 195 167 138 110 96 87 98 121 142 149 159 174 161 108
75 81 106 92 117 159 203 222 239 251 271 249 227 233 216 226 257 273 293 313 338 363 364 347 323 307 310 303 282 241 203 170 123 127 106 124 141 159 174 157 144 119 98
129 156 177 222 223 241 243 261 299 340 365 365 308 274 265 267 259 286 324 341 344 348 357 360 339 316 294 293 300 286 248 238 218 228 172 197 212 199 178 143 117 96 83

GFSGL_con_3kmhel_054.txt.gz
Helicity
144 138 98 24 -8 9 -26 -8 -17 -17 -9 -9 -2 -14 -3 2 13 13 -11 -29 -28 -21 -14 -8 6 16 17 6 5 11 9 11 19 14 4 -7 20 4 -1 23 53 66 82
134 155 140 113 74 3 -52 -42 7 -19 -13 -10 -5 -18 4 7 21 26 5 -24 -33 -35 -27 -21 -6 -8 -1 -2 -3 -1 -4 -8 2 14 -10 -15 -11 -4 6 2 23 42 65
99 101 95 76 67 63 30 31 60 2 -9 -12 -10 19 20 19 29 27 17 -11 -43 -44 -44 -37 -25 -21 -16 -16 -22 -22 -17 -18 -14 -9 -12 -37 -33 -41 -31 -3 14 6 26
121 100 94 108 104 77 80 64 47 76 45 14 38 31 18 12 22 24 18 -2 -32 -50 -52 -52 -52 -44 -36 -31 -33 -30 -34 -35 -38 -17 -14 -24 -27 -42 -38 -34 -44 -33 -13
158 131 139 123 142 132 108 97 75 83 76 58 56 38 17 -2 8 22 15 6 -8 -19 -37 -57 -60 -46 -44 -48 -62 -51 -54 -49 -44 -34 -16 -16 -9 -9 -15 -33 -14 -3 48
165 173 173 167 165 152 159 136 127 99 89 75 54 47 27 -1 14 35 12 -9 -3 -8 -17 -24 -30 -44 -46 -45 -45 -51 -53 -38 -23 -18 7 44 47 39 34 30 23 29 76
148 161 183 168 157 167 171 154 133 122 96 93 67 58 43 25 14 57 52 6 -19 -16 -14 -17 -12 -14 -18 -30 -36 -4 -6 12 40 46 67 64 34 37 14 42 75 82 103
129 157 141 167 135 139 153 146 139 113 103 104 79 75 63 24 30 58 66 24 -17 -17 -20 -17 -14 -4 -3 -9 -22 -31 -35 -29 13 27 55 40 35 9 47 66 68 72 93
115 150 140 165 181 147 139 140 126 125 119 104 83 71 52 22 51 61 54 -17 -29 -19 -18 -17 -10 -4 -11 -21 -8 -20 -18 -16 -33 14 35 28 29 39 62 49 101 67 77
104 112 149 134 150 167 153 162 162 137 118 103 79 64 46 20 28 48 63 -41 -41 -28 -35 -28 -12 15 -10 -5 5 -10 -20 -47 -56 -54 -31 10 30 39 57 103 102 139 112
64 46 80 119 128 132 140 149 151 115 96 80 64 62 46 26 -5 30 44 -20 -36 -27 -27 -27 -26 21 62 51 56 1 -22 -69 -40 5 56 70 75 80 93 119 112 174 154
93 56 90 103 83 64 80 84 79 79 77 75 64 46 26 12 -31 -49 17 33 -20 -20 -19 -34 -45 18 72 45 46 49 36 9 64 117 115 122 121 122 74 53 67 72 147
99 98 48 34 44 77 69 65 60 48 36 22 18 15 16 4 -6 -7 19 53 31 -17 -32 42 141 160 132 101 91 89 99 131 135 130 141 140 107 76 60 49 18 56 79
136 106 63 40 78 97 82 74 64 48 33 35 38 43 54 57 52 60 64 73 42 73 -13 9 99 134 135 125 160 158 171 145 120 124 125 93 60 58 34 41 61 71 77
178 132 108 111 100 106 119 113 76 75 86 31 41 56 62 58 62 63 74 78 92 101 108 98 107 126 125 116 135 138 156 170 169 150 111 70 50 43 55 65 72 79 79
204 232 175 175 155 164 131 103 123 83 91 121 168 152 85 127 169 102 90 111 171 156 130 138 159 148 142 132 136 150 177 193 159 117 89 84 55 60 66 83 90 86 78
403 343 259 266 244 204 217 143 139 131 91 80 98 126 133 209 130 124 137 135 131 157 138 154 150 150 148 143 150 177 167 156 155 112 98 80 73 69 88 102 87 58 59
269 335 255 159 153 232 222 189 120 208 86 -0 74 133 92 88 118 152 175 199 224 233 204 195 186 203 196 189 183 169 154 135 111 108 91 90 98 120 107 98 67 61 77
388 248 266 200 167 145 130 59 59 90 -12 38 76 111 188 207 208 210 189 182 201 246 265 262 256 203 181 187 207 197 190 178 133 112 110 115 123 116 106 92 55 103 89
306 235 265 204 145 237 247 213 -49 22 44 60 62 129 212 270 245 243 259 274 254 236 242 245 243 232 265 205 173 149 116 101 109 118 130 131 127 116 95 78 73 88 68
235 226 204 162 181 150 97 111 97 48 66 104 209 272 213 212 242 275 310 312 309 299 276 287 281 264 222 232 182 139 120 118 122 137 143 144 132 106 82 84 80 97 73
208 208 223 210 145 123 117 127 136 143 182 198 218 286 354 287 268 276 288 310 310 307 246 199 186 189 186 164 165 147 147 158 173 172 159 133 111 96 87 81 65 78 89
189 161 161 154 150 140 98 95 113 118 114 140 158 190 223 238 234 234 248 232 228 228 234 220 202 188 186 188 198 207 219 223 210 183 152 121 102 104 98 79 79 100 132
152 171 161 145 167 193 165 152 170 156 142 144 171 182 190 193 189 176 160 156 163 178 187 198 203 207 211 214 223 229 217 206 174 155 136 119 121 106 102 93 95 115 153
215 161 167 156 168 150 165 180 187 214 191 179 186 191 178 180 181 183 171 169 181 183 186 201 223 261 293 308 307 297 273 250 184 154 123 110 123 122 111 107 104 119 137
213 260 218 198 178 197 193 239 277 300 242 201 203 200 204 195 192 206 206 197 210 221 228 259 281 299 317 319 338 327 262 239 209 201 184 151 181 175 180 170 151 127 90

GFSGL_con_3kmhel_057.txt.gz
Helicity
128 155 152 142 99 84 111 105 76 49 54 11 22 -11 -16 -7 1 14 -22 -8 19 -3 -0 6 -10 11 27 19 4 12 15 14 21 10 -5 -17 -18 42 35 43 46 69 97
110 161 152 166 136 109 77 101 103 72 53 46 14 14 -19 -16 7 21 12 -7 11 10 1 -5 -0 1 3 1 17 3 -0 -5 -4 -6 -16 -16 -3 -5 19 63 51 10 11
84 121 154 149 153 131 113 93 91 99 95 53 51 39 58 10 22 35 28 9 -0 11 -17 -21 -15 -13 -4 -6 -8 -8 -12 -12 -24 -7 -5 -26 -30 -35 -34 8 59 77 95
92 62 108 152 159 149 162 115 108 102 111 85 83 89 84 59 36 24 38 28 20 7 1 -28 -32 -24 -21 -19 -21 -18 -24 -27 -23 -20 -13 -12 -14 -26 -23 18 40 46 29
120 107 126 148 159 172 162 154 122 112 113 117 94 93 93 60 36 47 43 54 40 12 2 -1 -29 -29 -26 -30 -43 -43 -48 -48 -44 -41 -23 -18 -14 -18 -17 -27 -6 31 76
122 169 131 158 151 137 159 168 147 131 113 113 104 94 86 47 50 84 77 37 34 35 13 4 -21 -41 -22 -35 -30 -43 -60 -36 -11 -20 -21 -7 -5 -3 -6 -15 -0 25 67
58 141 153 195 177 160 155 172 158 140 141 120 113 108 87 80 44 109 113 59 18 21 16 11 -16 -30 -13 -9 -21 1 -4 -10 15 34 61 79 50 30 -4 3 31 49 71
87 104 170 200 190 172 193 168 164 161 157 160 139 139 125 90 73 81 119 82 24 -8 -9 -1 -5 -14 7 15 -10 -24 -13 -1 17 50 111 96 59 17 25 37 22 65 91
57 94 154 185 192 161 192 198 183 161 157 173 154 143 143 116 110 92 112 64 4 -2 -11 -1 -4 -9 -2 -7 3 14 14 18 -6 -4 35 45 68 50 51 61 92 66 38
47 106 137 169 176 163 157 184 204 199 174 160 151 145 143 139 143 135 134 38 9 -8 -16 -14 13 36 25 9 18 25 32 27 -4 -41 -50 -14 65 115 106 137 127 149 80
113 123 127 123 146 133 145 170 139 138 128 123 138 153 140 124 112 133 138 86 -2 7 -34 -25 -26 40 77 55 64 55 38 -24 -34 -47 -11 99 126 90 103 186 165 128 109
137 150 156 114 121 130 140 166 167 131 145 160 138 140 110 104 81 79 99 74 1 -22 -11 -36 -59 -45 42 67 53 26 -16 -15 -14 9 55 75 59 107 187 142 86 77 78
188 181 198 134 152 161 169 168 142 164 138 135 116 97 76 64 40 33 66 63 31 -10 -32 50 146 36 79 128 103 91 92 133 122 113 81 72 116 128 108 113 67 63 87
178 183 180 150 147 149 143 132 117 124 108 106 97 70 57 57 56 48 72 46 4 -24 -30 -12 61 139 172 184 178 119 123 110 117 120 123 126 130 102 78 53 73 73 63
179 166 188 165 139 125 132 125 115 114 102 87 72 59 54 49 49 52 64 67 67 91 119 105 106 120 120 107 124 145 154 134 127 120 154 155 131 96 59 85 76 67 76
230 221 202 190 184 144 167 200 385 298 228 174 172 145 184 166 181 108 214 204 138 96 97 101 83 81 87 86 95 125 153 162 154 200 166 140 108 94 109 104 90 79 84
228 179 192 196 174 205 190 185 261 313 230 200 150 74 60 118 131 161 166 250 216 159 82 63 83 114 126 122 152 168 169 172 179 161 152 119 97 107 119 79 93 85 78
283 346 241 218 188 275 207 176 222 237 238 226 222 185 126 77 94 87 90 127 139 159 109 112 163 125 138 137 142 153 161 183 153 139 111 111 112 99 108 118 94 98 111
467 419 261 226 377 410 358 330 160 158 184 165 139 64 111 120 69 88 83 80 99 109 135 176 201 183 171 172 171 190 183 147 173 205 97 93 111 97 111 115 117 114 134
694 445 336 201 267 274 293 203 204 81 87 17 102 51 -97 -59 37 93 127 139 158 236 247 220 241 227 225 206 211 211 209 206 164 128 127 172 146 130 129 128 139 132 114
509 423 256 144 75 146 93 207 248 162 122 155 234 357 18 -4 52 132 200 288 383 405 285 306 356 319 324 293 284 233 234 203 211 172 121 119 122 126 129 133 121 119 102
415 418 327 112 163 93 96 158 188 53 32 262 208 79 25 75 140 227 269 310 380 404 350 297 314 302 290 300 286 228 202 154 121 55 65 79 95 136 144 133 107 80 59
226 358 313 138 82 161 108 92 133 135 141 143 110 106 160 263 200 204 216 233 244 261 280 293 289 254 196 173 170 163 179 243 301 247 180 147 129 117 102 120 97 82 91
122 137 127 221 131 144 213 161 117 223 315 277 285 196 230 230 221 210 199 175 179 179 192 221 232 180 154 179 180 214 231 210 206 197 194 177 173 157 129 113 97 102 136
325 240 196 204 344 295 184 200 197 196 209 249 311 361 382 257 245 233 193 182 192 186 188 196 221 242 300 357 285 266 253 249 220 213 191 181 162 156 157 159 148 137 109
250 268 275 255 255 280 311 310 297 253 235 233 251 276 236 213 198 193 209 200 177 176 190 234 248 250 231 251 308 310 276 289 266 220 197 176 254 326 369 302 263 172 135

GFSGL_con_3kmhel_063.txt.gz
Helicity
155 118 99 62 18 21 30 -17 58 54 84 104 150 125 91 71 65 69 25 3 29 17 -4 1 12 6 -3 -7 -13 -15 -10 -16 -7 6 -21 -33 -42 -40 -3 44 84 154 220
192 168 120 126 96 35 42 37 -9 39 91 124 124 92 60 61 74 69 44 10 7 17 21 7 1 6 3 -16 -23 -1 -6 -6 -9 17 -16 -24 -37 -16 22 30 62 93 160
208 171 154 120 122 86 43 84 72 31 -10 128 161 167 128 92 72 68 58 23 5 -16 17 8 -0 -0 9 -0 -18 -20 -18 -18 -32 -29 -11 -37 -20 13 15 -31 -4 4 71
247 204 172 146 120 107 94 85 142 110 85 37 118 145 188 161 121 82 80 50 19 8 -4 -4 -3 -8 5 4 -3 -10 -22 -36 -48 -44 -27 -13 -7 -19 -35 -56 -65 -34 -77
220 201 187 181 140 118 91 99 114 147 109 136 133 163 130 132 108 87 88 94 61 19 6 5 -9 8 8 -6 -2 2 -9 -24 -31 -33 -28 -31 -21 -22 -39 -49 -23 -25 11
236 230 187 160 159 130 126 108 127 121 120 99 108 132 158 123 104 105 88 98 101 81 33 8 3 2 9 6 -4 -4 -0 1 -1 24 -14 -0 19 13 7 6 -3 -14 38
230 257 231 205 162 161 160 154 145 123 148 156 110 95 85 113 122 116 98 75 82 89 81 59 19 7 8 -8 -2 5 19 25 35 22 19 43 48 66 18 26 32 73 158
135 283 286 254 213 176 180 178 167 160 134 111 131 135 111 92 120 121 112 79 77 80 85 94 89 56 34 36 -0 13 19 22 17 19 65 93 91 89 130 130 106 138 156
70 153 306 307 263 228 207 208 207 196 169 132 126 133 138 113 119 122 120 94 87 105 117 110 123 107 93 84 23 2 54 72 48 47 49 59 94 98 113 190 138 152 125
-70 65 381 375 318 293 273 239 237 218 183 195 144 133 149 138 145 128 137 138 96 114 129 140 148 147 114 101 71 36 44 64 63 62 76 27 1 -0 33 151 159 188 192
6 127 335 406 370 342 303 272 257 242 218 191 178 166 146 155 135 135 134 121 109 146 157 144 134 124 124 117 124 116 95 112 109 73 43 67 98 111 88 134 177 208 197
80 68 140 295 330 358 347 314 265 246 222 194 184 157 144 133 132 138 135 148 129 148 177 160 154 141 103 71 54 59 58 43 115 107 113 79 2 18 103 89 103 124 136
178 114 123 196 319 314 351 332 293 243 221 199 179 150 133 130 127 132 166 165 135 174 178 168 162 114 74 10 19 67 23 45 67 77 13 4 106 129 113 108 88 71 93
114 103 140 204 241 302 365 355 329 269 225 183 179 149 111 112 115 130 170 172 113 101 140 196 237 191 125 102 93 81 105 138 177 182 146 136 119 124 120 110 87 100 115
119 83 113 172 255 282 326 366 331 291 250 219 151 182 161 132 145 166 209 220 173 154 171 156 163 151 98 81 90 101 109 118 145 164 161 133 109 127 114 101 116 117 134
146 175 70 122 225 322 323 400 498 366 205 135 112 128 158 161 131 136 185 224 213 226 226 184 147 131 117 110 125 144 170 163 167 157 137 120 122 134 108 119 151 164 149
178 204 239 107 213 283 324 301 312 355 360 325 167 70 104 171 159 185 144 150 233 359 206 191 160 143 133 140 127 126 124 183 159 133 113 114 133 118 124 154 161 170 138
223 251 188 230 177 216 278 276 258 271 303 304 381 266 290 259 214 175 143 205 257 239 188 188 178 156 123 92 71 109 156 170 168 144 136 117 103 120 125 135 166 171 152
233 211 225 236 202 142 174 222 280 284 281 368 394 399 392 308 261 212 176 126 141 207 207 178 172 152 122 101 159 178 175 164 154 145 139 129 126 132 149 169 198 185 133
248 347 283 202 247 201 206 203 257 291 296 380 413 365 370 351 257 190 141 131 156 161 165 142 118 164 215 221 222 193 203 206 204 194 172 160 203 249 267 244 200 138 131
428 300 350 204 264 270 336 336 327 365 403 417 507 396 262 267 205 178 184 194 188 181 144 164 157 85 27 187 195 197 170 198 222 252 230 217 201 183 167 183 163 165 159
411 525 431 365 183 690 371 476 438 511 466 439 456 477 324 302 235 253 227 186 171 304 301 250 256 282 391 447 274 243 298 393 376 288 210 193 175 178 156 127 103 95 113
233 299 371 498 258 176 347 399 400 456 497 445 387 462 335 273 191 121 151 208 307 407 513 550 584 567 598 550 546 416 362 356 335 296 288 287 250 192 147 127 120 132 148
235 248 283 405 605 514 458 388 549 450 510 555 542 412 188 176 121 105 103 208 352 426 462 520 513 473 403 379 397 306 302 277 245 241 246 230 183 201 224 191 155 146 157
188 189 237 257 306 314 247 284 304 343 465 487 556 315 382 244 210 243 374 335 374 416 429 382 352 384 379 314 241 275 267 296 237 233 197 211 278 331 286 276 275 226 213
123 166 178 218 235 252 266 275 296 298 283 325 434 495 501 437 422 331 318 328 330 313 313 303 265 308 267 273 310 323 319 405 362 344 337 376 387 376 309 278 274 247 268

GFSGL_con_3kmhel_066.txt.gz
Helicity
223 161 59 -9 -51 -76 -49 -26 -26 -13 -25 19 50 92 68 47 35 19 -1 -7 -10 -11 -21 -19 -4 8 7 -7 -10 -23 -28 -35 -24 -15 -19 -34 -24 -27 -18 -40 -28 48 95
286 245 188 75 -0 -48 -75 -62 -35 -4 12 22 58 82 97 59 43 29 13 -4 -17 -10 -3 -20 -3 6 3 -29 -29 -11 -22 -34 -43 -34 -51 -58 -63 -50 -34 -22 -18 -16 4
325 274 224 164 84 -5 -55 -51 -25 -18 90 75 87 86 96 81 68 46 43 27 14 -9 -19 -11 -8 -16 -3 -5 -10 -15 -23 -30 -27 -19 -16 -32 -43 -61 -56 -66 -35 -42 -37
304 326 254 212 163 139 72 17 -33 -32 -22 79 108 106 109 105 88 66 51 39 27 7 -15 -29 -16 -15 -11 -16 -8 -4 -8 -15 -26 -31 -35 -36 -47 -43 -30 -48 -21 -62 -9
266 287 275 187 237 196 170 142 51 -31 -41 46 88 116 110 115 104 91 76 53 28 15 -7 -19 -27 -27 -9 -8 5 -4 -2 -3 -13 -19 -25 -26 -27 -20 -30 -11 -3 -18 20
180 178 268 224 208 230 201 178 167 34 -51 71 25 48 108 109 102 128 131 88 45 21 4 -10 -8 -16 -19 -15 -12 -12 2 18 3 17 6 4 15 22 28 9 7 10 16
163 288 245 335 176 200 225 200 175 147 130 26 77 69 45 95 132 130 131 115 73 38 28 11 -16 -22 -15 -20 -27 -7 4 3 17 89 53 60 55 60 52 36 23 129 125
173 216 277 274 298 208 201 198 169 167 148 129 104 90 85 70 94 103 93 102 100 35 36 47 44 16 14 29 12 -28 22 23 19 44 44 92 86 86 50 46 58 117 118
160 235 133 194 225 254 201 117 189 189 171 159 160 132 124 85 92 95 112 86 47 44 32 22 38 27 35 60 40 -0 -25 12 25 1 31 23 35 38 66 129 39 87 79
39 102 152 20 178 238 248 229 175 252 192 169 151 159 146 140 142 124 130 99 33 43 64 12 13 45 63 81 72 51 1 25 91 94 87 64 47 34 21 143 124 138 105
-22 20 -8 -29 34 260 293 288 230 284 231 199 164 148 150 155 134 142 152 133 66 50 57 53 51 50 88 120 138 66 69 82 96 141 107 72 37 58 69 124 160 158 124
-18 -84 -80 -89 -61 119 293 338 307 300 274 231 203 184 180 172 162 151 162 167 118 91 68 87 91 91 98 108 125 109 119 114 146 105 69 48 62 79 102 127 110 121 141
110 -6 -16 -5 -20 124 228 296 344 319 220 240 215 175 156 182 181 155 181 182 131 131 96 112 125 128 135 118 78 62 30 97 69 59 63 67 105 113 98 64 79 99 89
84 68 -34 22 19 88 168 266 321 322 262 190 218 196 165 144 142 163 174 176 118 110 31 102 142 164 159 141 129 102 105 90 92 95 96 107 126 113 81 89 91 107 80
25 26 -51 -29 -19 40 107 256 290 292 340 316 271 269 233 184 172 184 178 196 189 174 172 118 153 153 159 166 145 122 130 123 104 103 123 113 96 98 81 98 94 86 116
-25 41 62 54 23 30 108 253 388 327 268 275 317 326 267 181 182 156 153 162 178 201 253 193 189 188 165 162 158 145 148 146 149 140 136 134 124 106 78 106 110 107 126
-50 12 90 112 78 111 93 148 236 339 368 282 261 242 217 218 122 128 125 121 177 357 230 192 177 189 175 178 177 170 168 166 157 207 180 150 130 113 118 103 113 145 142
-49 19 58 92 55 78 76 111 201 241 289 293 334 242 167 200 146 89 122 289 265 214 207 183 183 175 171 180 178 162 155 132 153 152 160 142 142 131 143 122 137 142 150
-70 22 96 37 15 40 80 107 156 215 216 266 379 326 270 219 221 219 206 201 210 205 204 210 175 152 165 148 101 78 88 110 105 125 143 159 160 164 136 121 129 158 177
122 119 129 87 41 35 57 93 137 180 221 230 216 245 382 360 252 264 261 234 198 147 141 177 195 196 225 184 158 168 167 130 -20 178 184 187 165 153 128 146 177 191 170
144 120 227 112 121 65 81 98 137 216 241 225 245 269 283 312 328 376 323 272 228 188 122 185 187 209 219 169 188 213 296 92 -143 -55 126 137 162 202 190 183 186 180 176
115 120 103 138 231 105 149 186 173 199 328 384 381 359 399 483 466 466 385 356 288 290 287 290 288 255 215 178 130 126 177 409 334 186 88 155 193 193 173 175 182 173 159
85 147 153 148 408 372 260 269 318 371 658 491 401 468 484 537 575 467 394 370 333 333 352 308 259 266 276 276 316 355 334 254 233 256 277 276 237 225 208 205 185 191 151
92 164 227 129 392 572 420 451 453 417 621 524 583 547 497 483 513 465 484 430 355 344 348 370 383 354 333 343 313 339 323 279 248 241 270 302 307 287 254 250 187 137 147
146 201 311 225 125 351 645 561 739 707 610 699 669 712 521 369 412 421 424 418 475 492 471 440 435 448 467 407 332 300 221 162 145 185 166 218 269 289 265 212 215 219 197
71 121 172 205 155 168 159 198 235 423 568 559 424 454 490 445 457 500 538 453 518 396 374 349 338 353 367 368 369 386 357 351 301 251 219 237 258 248 210 226 233 217 215

GFSGL_con_3kmhel_069.txt.gz
Helicity
214 164 129 98 129 130 -1 3 -1 1 -26 -1 2 2 11 26 17 13 4 -10 -8 -18 -29 -40 -39 -45 -28 -30 -36 -26 -12 -13 -38 -13 -27 -27 -21 -28 -32 -54 -55 -37 -30
266 215 162 159 173 116 10 -9 14 1 10 -16 -20 -19 0 44 39 37 26 -2 0 -11 -19 -33 -21 -32 -16 -18 -13 -20 -12 -14 -32 -32 -46 -50 -55 -57 -65 -40 -37 -43 -62
327 256 207 168 168 153 136 125 89 42 6 22 7 -16 7 45 80 62 47 25 1 -9 -24 -22 -12 -23 1 -5 0 -8 -12 -13 -18 -37 -52 -63 -79 -70 -67 -58 -56 -42 -82
191 227 244 212 192 163 161 163 142 134 85 29 59 48 -7 13 43 70 57 37 18 -6 -17 -29 -34 -36 -17 -2 -4 -6 3 -9 -19 -34 -46 -44 -47 -27 -29 -38 -34 -17 -5
183 195 217 199 186 175 164 155 181 176 136 134 116 111 86 67 47 42 63 42 31 20 5 -6 -26 -39 -33 -27 0 12 13 16 8 -13 -21 -11 -18 -20 -27 36 6 -3 7
147 167 177 198 197 176 162 178 146 145 184 179 142 130 125 108 58 47 67 31 8 13 15 9 7 -15 -29 -28 -34 -20 3 21 16 37 18 -8 6 1 30 29 27 18 24
70 119 156 192 220 217 219 201 166 149 148 154 170 176 128 98 79 56 74 79 37 8 11 -3 -27 -16 -1 -26 -38 -37 -41 -16 2 82 20 50 46 81 83 43 33 48 96
19 100 169 213 209 218 224 218 189 171 152 154 143 159 167 152 124 106 98 82 84 27 8 -1 -11 -25 9 20 -4 -33 -32 -40 70 86 68 68 103 102 125 56 37 48 59
151 124 110 112 155 182 227 249 219 195 178 151 151 146 160 148 156 152 183 142 62 27 22 35 18 -33 2 48 32 -21 -39 -40 74 56 53 35 42 47 72 69 56 72 68
210 230 173 204 116 132 167 221 235 233 195 193 155 148 145 138 157 177 192 190 86 68 68 62 -4 -6 13 47 78 73 -21 -21 89 99 113 82 57 43 32 101 100 84 104
203 147 141 157 115 76 57 119 229 267 254 214 189 174 153 146 142 180 201 182 117 108 15 56 87 59 36 58 100 89 63 90 88 80 88 109 67 44 57 108 130 141 142
92 114 141 127 93 74 17 33 171 243 268 275 236 210 197 171 152 163 198 200 150 145 124 115 99 90 91 87 122 46 38 127 139 119 95 92 56 40 68 102 111 147 158
55 56 106 101 84 90 58 2 87 186 205 237 232 206 191 209 190 177 211 218 171 186 157 128 106 73 72 103 95 102 117 149 124 137 83 70 77 81 90 81 70 86 99
-21 38 128 34 88 118 73 10 66 171 221 230 209 172 197 180 188 191 210 226 178 184 134 143 138 131 127 132 132 125 160 171 165 139 102 76 73 96 117 116 91 108 115
-107 -18 63 54 -61 101 61 14 42 114 229 238 224 189 248 266 248 277 290 304 276 235 215 161 123 131 112 113 128 126 150 175 163 137 115 96 93 91 90 98 106 113 126
-220 -198 -25 67 111 26 49 52 27 84 118 176 175 163 205 189 237 240 221 246 261 296 255 185 155 148 134 122 122 120 152 179 175 161 146 133 108 95 97 116 128 118 116
0 -68 -91 -49 23 69 32 22 33 46 105 149 137 143 125 170 200 213 199 158 221 313 228 185 167 147 135 142 159 169 158 178 170 198 185 162 142 150 155 131 139 147 128
84 31 -77 -94 -122 2 -22 65 63 67 68 90 105 152 125 122 201 199 218 324 295 245 220 205 181 188 197 211 207 178 160 170 171 151 147 140 128 132 145 137 157 174 177
96 49 -39 -22 -167 -78 -47 10 71 49 42 59 162 186 172 211 205 259 230 227 239 245 233 255 206 193 208 226 236 212 190 157 132 117 152 180 214 212 144 81 123 170 215
84 84 -3 -60 -172 -153 -61 -10 59 36 36 34 141 170 224 225 223 232 276 259 216 247 230 180 201 183 227 263 258 238 216 254 314 324 280 252 187 186 125 122 201 73 217
93 90 84 -95 -89 -57 4 36 53 61 61 56 70 131 224 238 166 166 235 226 243 205 197 189 171 193 258 258 219 249 251 225 204 193 195 177 152 161 36 163 -10 -272 196
135 101 69 29 -58 15 29 78 2 34 72 85 107 186 179 237 255 321 389 430 448 453 418 355 330 308 319 293 246 178 161 150 160 123 122 126 70 137 263 165 191 266 151
99 123 92 49 57 62 60 63 63 117 96 96 196 260 332 412 485 499 514 515 535 573 544 439 400 310 299 285 255 216 185 198 181 191 201 186 228 181 122 116 161 162 168
113 97 108 119 28 115 115 117 335 352 408 448 410 463 599 646 655 608 602 642 669 661 642 676 629 544 413 314 286 256 245 246 261 302 291 276 237 190 147 177 175 201 185
149 125 135 149 136 240 251 278 421 577 486 540 690 702 811 844 795 766 639 585 579 572 685 669 581 539 511 462 407 416 353 268 267 256 257 286 230 174 135 188 200 191 179
217 181 167 152 121 144 219 280 341 537 830 704 737 691 632 819 851 657 572 543 555 521 599 658 660 566 495 469 596 607 674 599 318 275 231 232 207 179 161 157 178 211 183

GFSGL_con_3kmhel_072.txt.gz
Helicity
205 146 173 34 61 12 21 11 4 30 26 -23 -15 -7 -7 0 11 11 5 2 8 -1 -12 -18 -11 -24 -20 -12 -16 -16 -13 -20 -35 -19 -29 -30 -41 -34 -29 -50 -61 -57 -49
272 264 212 170 139 74 0 17 122 44 55 6 -27 -23 -19 -11 -2 21 21 21 21 9 -1 -9 -10 -17 -23 -26 -17 -21 -21 -25 -21 -26 -28 -36 -48 -47 -53 -52 -55 -29 -68
239 201 165 190 212 128 56 62 114 92 70 51 19 -18 -26 -20 -11 13 40 32 29 19 0 -3 -7 -21 -1 -7 -5 -1 -10 -11 -17 -16 -23 -21 -45 -58 -62 -58 -48 -46 -31
135 147 156 149 146 159 149 106 95 126 110 97 79 69 40 28 -4 -11 10 40 35 25 14 4 -6 -20 -10 5 10 6 7 2 2 -8 -14 -24 -34 -37 -22 -48 -35 -9 -8
161 151 127 139 151 148 127 134 126 131 125 144 151 126 92 74 61 51 29 0 25 29 8 2 -1 -7 -10 -14 14 21 17 15 15 0 -13 -7 -9 -12 -20 16 3 -4 -10
134 126 155 152 146 146 149 159 156 120 128 153 154 167 159 137 91 77 94 83 51 30 2 -6 -8 -12 -12 -9 -17 -14 17 34 22 34 18 -4 7 30 38 26 32 -4 -23
75 145 163 150 165 161 148 140 128 139 131 130 157 166 160 164 149 112 104 114 103 92 85 100 40 -1 -3 -15 -22 -29 -41 -42 42 75 32 56 45 73 72 47 51 27 18
112 57 76 122 133 158 152 152 143 140 140 143 140 167 158 159 162 146 137 134 131 119 123 120 104 44 48 46 -12 -66 -66 50 75 101 105 66 97 97 105 72 51 25 17
204 189 145 49 104 111 138 151 134 153 159 150 152 164 157 132 149 156 193 180 136 100 134 128 114 112 68 93 57 -19 -69 -50 73 49 58 72 70 96 111 91 47 30 -2
244 235 210 198 145 110 118 115 137 165 151 162 144 160 176 154 151 160 179 163 131 130 132 125 86 68 115 142 133 105 -69 -2 80 52 49 31 37 71 113 100 60 49 38
147 241 251 149 139 139 116 121 160 152 126 151 158 148 141 157 154 173 188 174 161 156 141 132 150 131 104 144 145 118 67 90 93 93 21 22 73 86 80 102 109 100 70
108 86 189 172 86 109 101 105 64 71 121 154 156 161 155 144 135 152 188 204 173 170 164 157 144 140 126 113 148 108 82 125 119 108 99 60 62 77 85 88 85 108 106
90 95 64 104 182 96 41 53 70 66 110 132 168 176 158 159 161 149 191 203 172 189 154 150 139 122 105 106 106 134 132 144 145 138 134 94 88 89 91 95 73 81 67
45 79 104 60 72 118 50 18 63 69 72 121 170 175 143 159 157 168 187 210 169 161 121 135 135 163 163 142 141 132 155 180 188 172 147 119 98 100 91 103 91 98 55
62 79 84 3 7 63 47 79 57 62 61 84 148 180 157 181 200 189 209 233 236 216 202 139 124 135 145 148 140 135 144 166 178 186 160 126 118 109 98 103 99 93 76
11 13 37 21 -9 34 34 96 15 19 61 84 39 125 135 138 163 161 189 232 246 278 216 149 129 147 150 138 116 111 133 153 169 188 182 165 145 127 102 100 104 94 80
-12 -15 -4 -3 -47 -54 -25 -26 32 41 6 53 85 23 89 101 100 146 176 178 193 312 207 186 160 149 175 178 136 126 139 155 142 164 174 170 167 140 129 110 120 127 109
64 26 14 -20 -32 -56 -49 -39 -10 26 112 66 47 76 73 65 94 166 207 304 257 227 182 163 179 185 169 171 159 127 117 120 156 187 188 183 182 164 158 150 150 150 171
101 53 29 14 -19 -40 -25 -33 -10 -12 58 104 78 95 71 104 64 164 187 228 234 232 234 196 189 192 208 243 209 202 181 187 191 214 192 194 192 192 179 189 189 207 231
35 44 84 70 62 -7 -70 -33 -15 -23 -2 97 117 85 66 142 145 166 231 251 211 218 226 197 190 197 193 219 239 222 228 211 211 210 208 211 205 196 206 237 243 237 237
43 58 48 71 62 86 62 21 28 44 49 99 78 33 27 105 114 166 206 207 207 208 223 219 209 213 191 174 203 214 215 213 224 230 252 281 285 279 301 282 228 250 246
53 75 71 53 61 76 76 42 56 35 34 93 95 51 33 83 112 137 169 228 274 313 333 268 268 311 327 283 257 224 223 260 272 248 223 232 217 176 136 143 164 169 169
25 46 60 89 80 82 75 48 40 49 -27 25 88 73 93 107 199 295 331 366 391 403 412 433 446 452 433 417 389 368 347 310 274 265 219 197 155 143 156 187 152 165 211
19 56 67 83 104 123 100 57 43 53 29 46 98 209 305 322 407 442 466 483 546 566 553 556 580 552 521 463 395 399 374 344 287 219 180 206 217 195 187 206 207 266 164
68 67 82 97 123 148 139 92 60 111 191 240 295 375 412 443 516 589 564 578 647 693 722 727 722 687 670 587 533 460 460 466 427 318 321 380 223 208 247 262 225 256 260
130 121 136 119 129 154 143 143 147 193 234 341 386 393 400 437 531 607 636 747 823 861 910 851 700 636 593 587 624 631 604 565 465 549 542 578 419 428 385 447 395 439 255

GFSGL_con_3kmhel_075.txt.gz
Helicity
105 115 89 45 33 31 24 19 10 3 11 1 -10 -22 -19 -23 -12 1 14 15 12 3 2 1 1 1 11 4 4 -0 -11 -18 -11 13 -11 -12 -19 -15 -14 -22 -36 -53 -53
115 111 126 68 58 28 38 26 19 2 13 19 18 8 -23 -19 -25 -0 8 13 23 9 4 -0 -1 2 -4 8 -1 3 -9 -13 -20 -7 1 -6 -9 -3 -18 -32 -35 -28 -36
68 98 140 118 90 32 28 46 46 17 14 23 28 19 -10 -31 -25 -19 -8 -4 6 12 6 8 -7 1 12 17 14 11 -4 -6 -10 -8 3 6 2 -6 -1 -26 -17 -19 -12
36 37 73 148 129 65 44 51 56 57 38 28 28 27 6 -22 5 -18 -7 -6 -2 8 8 10 1 -0 -6 21 30 34 31 27 13 7 5 8 10 15 -7 -22 -9 3 -0
45 44 36 70 120 118 97 80 70 70 65 49 33 34 18 -19 -1 49 49 37 28 12 -0 1 5 8 11 1 27 32 44 44 41 27 12 7 12 21 6 7 7 15 10
54 51 65 76 90 87 99 99 102 88 69 71 67 57 37 8 -10 64 68 60 45 42 42 18 5 10 5 18 20 4 -14 45 45 46 26 16 29 27 27 12 14 35 27
83 61 51 66 71 88 80 71 79 93 87 78 59 61 72 65 68 92 101 78 74 68 57 53 56 53 48 25 34 22 -2 1 18 35 33 51 45 48 49 45 45 51 41
111 105 71 59 62 71 70 76 81 81 86 87 64 61 70 77 99 103 129 79 88 82 80 70 65 66 69 68 59 39 29 13 60 71 53 46 50 55 59 59 57 46 33
210 150 88 99 36 24 44 85 87 86 84 73 62 67 71 68 93 117 143 78 74 75 87 79 82 68 83 117 89 71 56 15 70 57 9 22 44 44 45 72 66 44 25
184 234 196 89 72 80 33 51 59 87 93 86 66 62 57 55 74 113 141 86 71 72 77 70 94 90 110 153 128 98 84 59 71 64 54 49 49 44 93 104 82 57 25
151 172 199 214 104 107 79 51 61 81 109 106 80 77 69 58 49 112 160 128 107 99 89 91 80 114 102 175 190 123 101 93 74 68 50 59 86 103 115 126 102 74 31
126 136 143 208 204 211 112 100 120 95 111 133 111 108 99 71 62 84 141 165 116 109 98 86 89 119 134 140 166 101 107 131 101 113 107 101 119 125 115 104 96 92 71
112 113 108 128 171 110 159 97 82 100 126 108 87 73 72 78 63 80 124 153 132 119 71 72 90 120 137 127 123 124 121 118 126 137 142 134 123 119 139 117 101 101 85
68 67 79 73 66 98 75 125 56 90 129 118 82 86 70 67 76 83 103 132 129 121 67 61 69 87 90 83 83 96 117 131 145 155 159 153 137 139 135 117 105 112 113
34 40 42 59 65 45 49 57 52 43 106 118 108 99 86 81 76 93 101 96 127 114 113 97 96 103 108 130 103 92 101 121 144 146 144 146 144 130 125 124 120 118 130
-2 32 69 54 43 41 39 31 27 3 11 101 80 41 64 80 68 65 113 153 139 173 159 121 125 125 103 140 146 128 125 134 109 113 126 128 127 127 122 116 132 143 154
10 15 18 60 60 73 79 42 38 43 -43 -0 40 37 22 55 87 78 95 137 148 231 154 116 101 109 121 126 142 101 93 132 103 79 101 114 117 116 138 138 146 144 161
40 24 -19 -1 13 28 38 37 23 28 25 26 8 -3 27 18 66 89 97 167 176 209 132 152 144 140 121 105 113 122 105 123 137 103 79 108 133 144 148 151 152 136 140
36 -10 6 8 10 7 12 19 11 26 45 7 14 11 41 74 55 43 90 151 161 132 187 172 148 111 143 150 127 136 133 151 169 145 109 87 123 166 175 168 160 148 156
20 17 41 30 23 22 5 13 -4 -8 14 -53 -12 59 15 13 52 44 119 155 133 120 144 128 160 146 146 149 137 154 165 185 215 220 192 160 182 212 220 213 220 197 185
14 41 56 40 36 38 39 38 37 19 1 -46 1 9 15 26 72 82 112 152 145 139 112 141 135 139 154 156 156 158 159 148 172 214 254 219 201 208 230 252 234 237 245
34 42 62 59 70 47 35 39 58 63 51 19 19 19 36 35 35 54 74 89 92 125 116 156 200 217 230 227 210 186 163 156 169 193 214 240 261 263 307 283 295 330 306
53 55 76 79 86 89 56 50 32 54 65 62 55 45 70 90 115 110 136 143 157 196 204 229 288 297 308 310 319 313 313 361 379 359 273 285 271 248 252 266 291 287 226
59 51 47 63 67 77 90 79 61 50 51 50 75 87 52 126 190 193 189 204 238 249 260 287 342 316 291 309 314 326 315 326 353 317 302 342 320 275 237 215 244 217 172
69 89 72 50 22 61 88 89 86 92 71 37 73 98 111 156 216 257 258 312 330 340 349 383 435 447 413 350 346 396 418 410 359 324 352 399 448 423 289 177 176 168 176
94 95 106 99 59 40 68 95 104 107 101 81 112 150 188 226 286 291 333 377 430 479 488 520 589 623 584 560 512 524 454 448 415 367 357 366 409 457 454 444 476 496 446

GFSGL_con_3kmhel_078.txt.gz
Helicity
34 41 42 40 32 23 20 8 -0 8 7 3 -6 1 -1 3 5 3 -8 -2 -14 -11 2 -1 -9 12 10 1 6 18 17 9 7 21 23 1 -0 -16 -10 -18 -39 -52 -46
48 57 54 70 41 25 30 19 9 2 1 4 -4 11 26 5 2 -1 -3 -14 -4 -5 -9 -9 -3 -11 -15 -7 -5 1 12 22 1 3 4 -6 -15 -2 -21 -30 -37 -46 -14
32 41 40 43 35 31 28 22 25 16 9 4 2 10 29 10 7 -9 -15 -9 -4 -3 -2 -8 -11 -5 -8 -3 27 11 -25 -17 9 -8 9 2 7 -6 12 -31 -32 -8 -39
57 36 52 50 39 44 39 40 33 37 28 19 17 18 13 17 -8 -15 -19 -9 -8 -14 -12 2 -11 -2 3 14 19 35 37 41 36 30 31 28 25 40 25 3 2 1 7
148 86 74 70 58 46 47 53 45 49 50 40 37 41 32 15 -5 7 -9 -1 -2 -9 -22 -18 4 -6 -10 -8 -17 31 41 44 50 51 52 48 40 50 49 14 -7 26 30
123 111 123 96 79 69 60 59 66 61 56 57 55 54 45 46 44 52 24 9 9 -8 -12 19 -3 50 18 6 2 -26 -32 29 37 37 38 44 58 43 35 14 4 -6 8
209 127 101 133 123 104 96 96 89 75 72 69 60 62 70 72 74 86 82 22 8 28 21 17 26 45 81 38 52 30 -5 -17 -1 1 2 45 29 53 53 56 48 24 9
195 219 303 246 107 92 93 98 99 105 106 90 74 75 72 78 98 117 127 76 52 33 37 35 34 34 61 75 60 58 64 60 64 59 56 17 16 25 32 26 54 51 31
164 175 158 153 232 223 99 95 108 133 128 110 102 87 84 72 94 120 145 89 77 71 71 72 75 68 69 102 88 85 88 77 89 122 84 48 50 22 33 51 52 23 11
102 123 151 167 152 222 162 126 73 80 96 137 128 104 90 61 76 109 128 101 100 89 95 86 84 79 113 153 127 95 90 114 99 79 127 54 19 58 83 111 93 71 25
86 98 106 111 205 230 104 81 103 78 81 91 102 115 87 67 55 98 149 109 122 118 102 107 97 125 106 109 160 108 86 121 121 100 80 78 88 94 106 152 150 113 61
67 85 100 105 102 133 170 153 133 106 103 104 95 82 76 69 61 82 121 129 97 104 95 83 86 109 150 150 156 84 30 71 40 38 60 93 106 115 114 144 202 154 84
86 87 73 83 95 106 130 148 176 167 173 126 139 99 62 74 92 89 139 154 127 112 99 84 86 103 93 121 116 133 137 124 90 101 128 140 133 102 117 142 196 201 137
59 74 58 79 78 79 99 129 132 147 207 266 247 138 135 113 106 102 107 119 111 126 95 62 57 69 80 72 93 104 128 149 182 168 154 144 132 117 115 118 109 116 100
72 35 63 46 55 72 56 64 76 97 110 152 171 184 165 116 110 123 197 146 72 62 93 116 97 91 89 93 104 112 124 124 156 155 148 143 133 123 128 113 108 106 104
130 92 46 70 50 43 39 28 16 -14 32 42 86 178 112 79 132 110 75 43 71 90 89 90 91 85 108 124 121 113 111 120 124 110 110 112 110 113 118 111 102 113 115
130 136 102 50 18 59 14 10 22 21 -18 24 50 75 52 92 114 93 103 61 19 91 89 105 96 89 89 118 166 140 81 76 101 99 91 100 108 103 108 106 118 126 123
108 91 90 71 54 33 36 54 29 20 -15 23 29 38 33 7 37 64 65 21 54 124 93 96 88 101 106 115 148 116 109 82 86 114 92 72 96 118 115 119 127 128 114
117 117 88 102 94 58 59 34 33 25 15 20 -8 29 38 8 59 16 21 59 28 63 124 70 108 102 139 122 121 103 114 136 136 126 92 81 83 120 125 118 112 133 133
70 78 95 102 87 56 31 21 3 -16 -33 -14 -14 27 18 63 87 97 19 64 101 45 61 104 90 103 101 105 108 105 105 118 130 137 154 136 109 123 125 131 134 125 177
52 73 67 100 98 84 51 38 32 -7 -17 -35 -26 -26 4 19 42 41 77 58 74 81 55 89 117 108 87 70 98 110 112 119 118 152 169 170 146 131 146 143 152 172 198
34 64 80 65 105 121 84 54 26 53 6 -11 -22 -20 -75 -9 14 3 38 70 86 103 86 102 140 154 144 104 92 107 116 145 162 155 164 187 173 164 172 181 183 201 236
24 39 49 70 70 86 91 107 95 61 60 54 24 -1 -6 -17 13 77 82 98 105 105 107 121 129 116 120 104 119 169 235 251 267 258 183 169 167 209 234 276 277 268 264
23 40 49 60 65 56 83 94 118 115 89 74 81 63 20 13 40 62 69 80 87 97 136 126 129 148 145 184 218 206 223 218 210 227 246 244 286 261 235 221 245 252 252
-4 29 56 60 64 79 76 72 86 105 104 84 79 91 61 30 26 75 91 94 105 147 181 204 216 217 223 241 258 254 258 209 167 215 238 249 239 258 289 326 329 313 244
-42 -14 23 61 71 83 87 78 68 68 70 85 89 112 102 60 40 41 90 106 135 205 232 255 248 239 205 253 327 352 291 265 244 269 282 299 320 310 317 326 353 362 377

GFSGL_con_3kmhel_081.txt.gz
Helicity
20 19 12 22 27 23 25 23 16 12 39 30 33 -5 26 15 18 16 -12 21 24 -16 -17 18 12 -9 23 26 -16 -16 10 -1 -21 -0 35 6 -11 -38 -26 -29 -33 -17 4
29 37 29 37 35 32 25 29 27 17 7 9 9 30 2 3 3 40 17 2 4 9 7 -3 4 -0 -9 -17 21 47 46 66 40 1 -11 -24 -40 -46 -28 -40 -44 -41 41
55 61 49 39 38 28 46 33 48 36 18 8 15 48 17 -2 3 6 1 1 -1 14 -5 5 -0 -7 -6 -6 -6 -16 -24 -41 -69 -76 -23 -9 -30 -22 -43 -40 57 50 54
155 41 72 57 42 35 44 55 41 54 42 26 21 33 48 20 5 -12 1 4 -9 -3 -5 -1 5 18 11 17 -8 2 -9 14 25 -5 -44 -46 -4 26 35 -2 11 19 14
381 251 73 27 61 90 73 63 64 64 59 53 46 39 42 47 31 35 4 -15 20 -14 -18 1 19 16 22 30 13 42 11 34 5 10 23 -11 34 56 60 36 -21 -9 32
261 306 344 229 232 92 89 80 73 76 82 79 70 70 68 49 44 70 83 39 25 20 17 -17 -25 22 52 44 34 -23 -11 43 27 18 18 16 20 20 36 7 5 4 -12
236 263 254 240 259 230 189 116 86 84 95 73 80 68 80 92 -1 71 117 88 53 70 64 44 28 11 117 82 78 65 16 4 44 29 13 -0 -28 40 -30 -20 -30 2 3
171 213 214 232 253 240 252 129 115 119 122 113 90 71 74 80 88 58 95 114 98 91 87 95 91 50 34 97 101 85 92 79 79 82 107 76 41 15 3 -21 17 33 34
65 106 134 167 192 205 240 224 197 112 136 144 117 74 62 70 74 98 112 87 94 93 108 106 99 117 116 84 80 108 121 123 103 172 149 135 132 70 35 8 23 -8 22
107 85 67 92 107 144 161 164 176 168 100 121 110 103 75 56 75 97 106 99 98 108 113 116 113 104 110 138 142 107 53 115 139 92 135 109 96 105 110 123 91 86 53
111 92 70 60 71 81 93 94 131 174 176 138 95 106 83 85 81 112 118 104 107 107 106 107 125 137 113 91 161 148 96 126 120 99 72 62 95 134 155 184 177 147 107
88 90 86 79 66 54 47 100 122 86 93 107 100 83 71 71 76 97 116 110 95 101 92 82 88 105 165 169 160 112 90 89 98 82 61 116 171 176 160 133 219 290 246
109 104 84 78 72 64 71 48 72 98 90 129 101 141 86 63 64 64 69 133 128 137 106 86 80 76 80 141 148 196 155 120 138 149 177 184 192 177 152 147 137 210 224
121 80 94 77 64 61 63 75 98 93 133 194 124 162 115 187 132 139 228 190 173 116 102 62 55 64 108 110 137 126 142 136 138 153 164 160 152 149 152 164 144 127 144
138 150 93 73 82 81 63 78 106 106 95 113 118 146 172 168 142 195 222 242 152 81 201 132 80 61 76 111 115 121 125 98 95 120 143 133 128 137 141 141 135 130 141
61 113 193 216 152 144 129 99 45 7 22 16 25 26 53 63 90 124 141 159 124 71 45 32 67 64 65 78 96 103 106 121 124 141 112 94 100 103 109 124 128 133 140
60 62 84 150 190 168 134 119 97 63 -13 -21 -10 -16 -11 -1 35 89 111 91 108 83 88 108 47 57 45 66 84 111 122 126 140 166 118 110 126 105 90 97 105 127 151
54 47 66 73 103 163 180 112 81 90 52 55 27 -24 -13 16 33 55 71 83 114 113 146 137 73 50 66 40 65 114 130 112 111 112 118 97 83 92 80 111 151 149 139
57 55 67 90 99 118 164 235 202 136 94 43 1 -10 1 -33 -6 16 39 81 69 69 59 103 72 66 53 56 29 68 103 77 86 104 98 98 114 88 69 73 59 131 125
68 66 53 62 82 94 107 124 157 162 120 94 69 -15 -21 40 5 44 13 31 60 44 36 60 95 115 49 52 46 52 74 80 87 74 98 105 100 108 86 78 85 104 139
47 57 68 54 62 68 95 116 123 177 228 187 141 139 63 35 3 17 54 73 64 56 63 85 60 102 95 68 74 89 78 76 73 94 113 109 105 129 128 117 101 100 111
9 25 39 53 53 56 66 73 75 87 137 165 123 122 97 49 -7 -21 -36 4 53 55 66 72 79 84 99 89 128 154 99 77 74 80 88 110 129 121 111 124 139 126 136
-22 -4 19 28 53 57 48 61 64 62 83 99 119 128 116 152 126 36 24 44 69 72 75 54 25 13 17 54 48 62 77 88 152 176 172 176 137 129 130 144 144 141 177
-91 -72 -24 17 43 45 40 40 56 46 70 99 117 129 117 80 68 85 32 13 -10 -32 -29 10 20 20 32 34 25 38 54 70 99 132 179 196 178 169 154 182 195 237 238
-97 -121 -64 -0 15 33 47 49 43 41 54 88 96 98 106 80 51 27 52 28 -9 -29 -29 13 27 41 59 88 71 82 73 84 49 46 90 98 79 122 142 185 220 227 239
-50 -91 -124 -66 -23 8 29 47 57 49 50 68 74 70 86 82 66 32 6 19 49 40 21 56 87 89 111 126 132 105 103 107 139 120 136 145 169 192 214 239 260 281 302

GFSGL_con_3kmhel_084.txt.gz
Helicity
33 42 28 35 18 -4 -17 14 -3 17 75 90 59 -15 11 11 26 28 2 -19 33 25 -18 1 4 -19 -36 5 30 42 10 12 -31 -0 13 -27 -44 -21 -1 37 16 12 22
35 30 50 52 31 43 26 9 22 23 40 57 59 4 78 7 7 36 17 -1 38 12 22 14 21 -0 -13 -48 -30 10 27 24 -26 -62 -68 -68 -48 3 -4 90 87 79 46
49 73 58 59 60 38 86 57 43 39 40 35 42 43 38 10 -11 20 31 -5 -14 -14 33 45 8 10 -6 -26 -26 -27 -9 -2 -15 -44 -42 -35 -31 -42 -51 -9 79 93 94
250 176 87 75 70 47 64 87 70 81 63 46 26 42 79 37 25 33 21 11 -8 -25 -17 13 47 42 46 51 5 -29 -39 -39 -31 -25 -24 -29 -18 26 54 66 41 15 9
334 286 309 311 112 83 77 67 78 94 88 71 45 10 28 73 40 52 -27 78 73 25 -7 -13 23 47 39 63 71 38 39 2 11 -23 -17 -21 10 57 23 14 6 9 5
129 194 247 233 265 229 150 113 81 86 65 84 81 47 29 14 7 75 117 65 45 104 53 -15 -28 -29 13 35 62 54 13 13 -11 -33 -42 -37 -48 -41 -10 1 -9 -20 -10
34 -7 92 234 240 242 252 212 161 99 64 66 74 84 74 69 12 -30 1 95 94 48 87 99 61 -11 36 82 102 102 63 48 95 66 24 12 -17 -39 -17 -14 5 -4 15
129 128 138 149 189 227 197 179 191 179 124 81 61 65 63 97 70 40 -3 26 44 41 45 67 122 103 -18 65 102 93 88 72 81 115 144 132 114 90 62 23 -17 8 21
101 121 153 183 197 191 174 167 139 130 137 119 78 54 51 58 78 63 82 98 57 48 64 76 68 66 98 82 87 126 123 118 110 121 133 154 155 115 100 93 118 -30 22
128 118 83 79 90 121 136 135 124 118 101 88 119 87 53 56 80 76 94 119 96 77 66 78 73 81 105 111 146 164 105 135 167 150 158 113 93 116 116 169 167 141 93
119 115 103 75 76 61 52 80 133 118 98 92 96 92 76 62 77 70 74 103 106 103 100 97 106 102 132 123 162 155 120 174 152 141 91 47 75 132 173 220 233 206 144
127 112 111 103 75 64 54 58 52 63 102 100 75 82 88 106 92 83 73 46 113 108 82 76 71 141 120 102 136 136 146 148 152 129 118 111 119 131 157 188 251 270 280
113 139 119 88 90 72 70 76 65 69 70 53 90 102 138 80 76 128 117 138 156 152 144 74 56 14 -5 -38 -40 2 123 140 165 164 160 160 165 154 134 126 94 127 208
130 111 89 128 103 83 58 71 80 91 118 137 115 84 110 82 79 119 132 125 92 85 104 80 117 86 27 40 30 34 106 147 197 215 214 188 150 136 135 134 124 119 131
135 141 148 139 154 182 168 158 121 108 102 97 79 63 57 65 96 104 88 72 38 45 59 69 101 130 96 122 106 106 144 175 205 208 192 174 140 123 119 115 95 89 105
79 85 85 81 89 95 99 106 145 137 93 73 82 81 68 36 45 61 66 93 87 61 64 88 95 120 96 143 118 69 76 91 148 181 184 182 155 109 97 91 99 136 135
53 49 57 60 57 72 71 61 29 57 118 106 108 62 63 40 23 30 61 66 59 45 109 108 103 111 93 102 153 124 33 52 90 102 135 165 170 148 114 102 87 83 70
69 43 29 41 49 55 62 64 66 72 84 120 152 117 122 74 19 11 77 56 72 62 94 95 105 119 105 102 121 132 94 78 65 59 118 132 103 145 125 132 128 99 100
22 16 24 19 21 28 38 50 59 83 100 106 126 104 78 73 54 8 22 49 80 70 89 94 71 81 88 87 102 122 123 87 83 66 15 43 74 85 94 99 86 70 74
22 16 9 -6 3 17 36 51 66 78 89 104 122 187 226 125 116 156 136 94 48 59 54 57 62 45 53 70 57 79 49 55 59 68 66 56 60 47 77 80 71 75 51
-3 -3 24 8 25 22 28 48 57 77 96 97 93 123 191 211 226 176 149 146 133 97 53 24 30 58 76 89 82 49 39 61 42 34 85 78 97 73 64 88 86 86 76
12 -3 -21 -30 -11 16 36 40 32 42 67 81 92 99 106 79 110 141 116 78 69 64 86 69 64 90 84 48 1 -53 -26 39 106 104 99 87 61 86 79 59 80 88 90
19 -6 -12 -32 -56 -47 -18 20 31 36 42 60 84 99 107 100 89 76 92 122 219 236 231 268 156 89 80 51 15 -37 -30 -25 18 30 43 49 63 105 121 102 80 85 90
35 15 2 -13 -38 -61 -52 3 40 47 41 42 63 81 81 84 79 68 62 86 66 59 44 43 35 -14 -80 -74 -32 12 18 17 39 53 51 52 52 77 96 107 125 117 159
79 43 10 15 -19 -44 -40 6 54 63 51 41 48 54 60 63 59 59 51 50 52 40 36 46 25 21 -18 -57 -50 2 30 33 25 29 39 50 62 88 106 131 146 158 168
72 58 27 16 9 -40 -49 -27 16 41 47 41 40 51 61 57 49 48 59 59 47 59 53 76 60 37 18 -5 -30 -27 -3 13 24 7 32 59 68 83 116 130 146 205 208

GFSGL_con_3kmhel_087.txt.gz
Helicity
63 50 38 8 -17 -20 -27 -10 44 25 52 10 19 19 -2 -1 9 29 15 8 5 35 19 -6 17 -29 -41 -3 21 31 35 20 -12 0 -11 -57 -74 -58 -29 -13 0 43 50
90 85 51 56 44 7 -18 -32 24 64 42 12 17 -20 15 -6 -2 51 19 2 11 24 17 15 -7 -12 -25 -36 -21 -4 7 26 -26 -68 -41 -64 -71 -35 -31 -6 5 16 18
115 44 78 69 63 42 24 8 -13 56 100 62 17 14 15 -2 -3 26 32 16 4 14 14 9 24 16 -2 -16 -22 -37 -54 -40 -29 -48 -66 -37 -30 12 9 4 -13 19 21
190 196 180 146 59 31 84 69 32 18 48 9 9 10 44 57 3 -8 15 11 1 -2 12 -7 24 13 11 17 16 -5 -29 -39 -29 -33 -29 -15 0 18 14 12 30 22 4
106 257 177 125 123 50 35 75 60 46 62 68 37 3 13 67 50 -14 -13 13 34 16 1 -1 2 9 27 55 46 44 22 3 -1 -2 6 21 4 -12 -30 -17 -40 -42 -39
136 197 213 205 82 128 181 192 149 71 43 45 27 37 19 39 23 56 -12 0 17 37 50 34 13 9 -13 25 51 46 78 74 40 12 -10 -17 -13 -33 36 -36 -43 -41 -40
48 93 71 129 124 126 143 175 169 167 158 105 51 23 1 7 12 1 -19 17 15 22 40 79 33 20 -3 0 9 28 55 67 89 78 62 73 54 38 -4 -23 -29 -32 -13
-1 -6 60 101 74 95 92 109 109 112 118 124 114 84 49 15 12 9 10 31 26 25 28 46 70 74 80 65 11 9 34 45 79 125 154 128 128 90 82 44 29 -28 30
215 243 123 91 103 119 108 115 120 113 91 80 79 79 48 40 45 30 28 40 39 30 48 73 92 92 79 62 87 61 30 108 122 141 168 155 141 122 112 177 81 56 21
154 156 176 191 172 139 89 126 139 127 116 81 63 51 44 21 27 36 53 68 55 49 50 56 37 57 68 77 111 95 68 87 117 140 168 157 120 78 87 191 177 157 163
136 145 135 123 123 100 82 68 70 92 110 127 98 76 70 96 93 92 89 64 78 78 70 65 60 108 131 108 59 80 87 111 107 123 105 109 123 149 173 198 218 197 129
126 127 140 153 147 126 119 117 120 123 124 140 107 120 96 76 30 12 38 57 85 67 76 89 91 74 11 31 51 45 58 86 108 115 133 135 138 148 172 208 198 184 177
95 133 159 150 166 183 166 174 173 161 111 103 107 91 79 65 10 39 64 61 41 62 48 40 43 45 10 -20 -35 5 73 116 120 113 120 157 204 192 169 187 197 195 174
93 119 149 155 182 211 209 211 221 238 191 131 97 62 39 28 36 44 72 62 56 53 64 78 40 35 1 -3 20 62 123 137 158 197 200 166 153 179 201 212 187 160 124
150 139 142 128 131 145 164 153 157 160 154 133 147 106 72 67 84 61 42 50 52 71 80 61 57 44 40 38 45 75 107 140 172 159 165 188 205 194 186 174 179 140 135
148 160 173 170 155 119 89 83 95 119 147 196 204 144 130 83 89 93 87 78 75 52 30 55 71 76 67 56 73 95 116 112 115 117 115 163 141 166 177 171 164 128 132
118 143 126 101 96 86 78 55 49 84 59 66 111 150 153 158 158 112 96 50 73 50 81 89 93 99 106 118 125 129 115 97 109 125 120 101 84 116 171 168 154 112 95
86 91 80 96 98 92 80 79 58 44 52 59 67 87 122 161 90 160 178 91 69 46 106 116 102 95 101 95 108 109 86 78 104 109 164 127 155 107 117 34 28 77 127
97 91 79 73 58 55 45 38 43 53 52 39 32 40 74 122 83 121 115 100 69 104 142 119 148 121 84 84 86 108 119 113 80 87 117 102 95 26 -15 93 -9 71 107
72 95 76 41 30 31 26 18 15 20 32 43 43 49 57 68 67 54 60 111 128 106 99 127 132 150 171 112 76 92 114 129 80 66 78 103 141 138 171 9 35 49 59
36 29 56 18 6 -5 -27 -23 -28 -38 -37 -16 12 31 63 66 70 79 89 69 88 120 118 94 97 114 117 122 57 36 61 47 14 27 52 84 146 117 140 100 35 54 55
79 46 15 -3 -13 -11 -16 -42 -58 -69 -62 -42 -19 12 46 63 76 91 113 133 127 117 117 116 117 131 130 110 97 55 32 49 24 -6 3 41 36 113 98 69 84 42 29
106 64 30 7 1 -7 -22 -29 -34 -56 -66 -46 -22 -7 12 36 67 99 119 122 132 134 144 169 127 64 75 57 58 48 9 -8 7 3 -4 16 38 45 70 131 127 103 97
78 107 64 4 10 8 1 -10 -25 -43 -51 -27 -8 15 31 38 55 83 107 120 119 127 134 169 173 122 36 -40 -52 -61 -35 -31 -35 -13 17 34 52 65 72 65 77 69 115
53 157 112 33 32 55 18 -3 -17 -62 -41 -7 37 59 71 63 43 56 84 106 102 102 95 97 123 112 37 -56 -91 -90 -80 -37 -17 1 27 51 73 66 66 81 86 80 74
82 142 129 109 90 63 41 4 -9 -65 -36 13 48 61 68 69 45 38 56 77 87 88 95 98 92 94 92 74 51 31 20 13 33 53 62 61 72 83 69 64 71 92 93

GFSGL_con_3kmhel_090.txt.gz
Helicity
62 65 69 18 -37 -29 -35 -19 -20 -0 21 23 27 16 8 13 -7 7 6 12 -2 5 8 6 5 10 16 28 37 44 41 22 -9 10 14 -12 -47 -42 -35 -22 -6 4 10
68 21 30 35 44 -15 -22 -26 11 24 24 23 18 9 23 6 -9 -1 10 7 6 6 24 14 1 -3 -2 -24 -33 -2 37 45 16 -48 -27 -33 -42 -50 -51 -4 32 38 29
63 71 38 51 44 30 13 -8 9 23 27 42 40 20 13 10 7 11 -2 15 15 11 11 10 13 -1 1 -13 -30 -35 -22 -11 -10 -28 -39 -14 -33 -16 7 61 46 36 28
29 83 130 103 85 46 2 7 17 28 32 33 41 26 21 23 13 19 3 -1 5 10 5 7 7 7 18 8 1 7 -0 -9 -19 -26 -20 -19 -19 4 27 -2 21 4 2
45 52 94 135 127 82 85 56 28 39 39 47 38 34 27 24 23 14 12 14 4 2 3 7 14 17 19 8 -0 22 15 36 17 24 24 36 36 49 19 18 12 -1 -2
82 147 85 60 104 150 134 140 132 79 49 34 31 28 20 27 8 2 6 7 9 8 14 19 26 31 28 31 20 43 10 7 18 60 12 6 15 17 -14 -17 -10 5 -12
228 184 155 51 22 108 127 129 87 84 98 97 91 73 46 33 17 11 -0 5 -2 -1 6 10 2 12 6 17 14 9 9 19 52 90 74 83 81 92 61 8 42 96 64
197 114 105 90 112 90 26 75 29 50 77 96 80 92 80 77 58 34 18 15 16 8 2 10 32 42 43 37 21 11 9 20 60 89 105 101 127 101 127 53 78 70 71
220 211 170 107 91 18 34 32 40 18 23 53 87 94 86 77 71 82 55 24 21 17 15 23 21 29 32 32 62 65 78 73 75 62 87 92 100 103 109 128 100 111 24
147 159 192 241 108 132 138 129 137 90 75 84 94 117 120 109 116 74 37 30 33 24 33 25 15 16 51 61 56 65 55 64 71 98 118 111 106 102 126 190 143 138 146
112 143 163 161 130 130 125 126 118 145 175 181 160 163 139 133 112 98 72 41 50 40 36 27 45 52 90 71 53 44 63 57 43 52 76 101 124 150 186 203 212 220 180
99 110 138 154 155 190 211 222 192 196 196 189 195 123 92 99 92 100 66 34 47 53 43 55 51 61 61 40 18 -5 27 48 54 56 63 70 102 127 142 198 241 239 221
148 168 176 182 200 207 227 271 253 240 220 206 194 199 178 115 70 61 86 102 78 42 52 81 80 65 36 21 13 20 22 48 73 112 108 79 84 89 92 128 186 199 207
108 164 188 200 228 235 217 224 230 208 215 197 165 171 157 133 124 138 84 70 81 96 96 109 107 72 32 14 30 30 50 64 82 83 80 84 87 100 104 123 139 144 144
103 122 148 172 183 182 171 157 161 138 131 135 139 117 111 122 153 159 88 108 106 72 50 29 59 68 73 69 62 62 56 64 82 99 103 105 121 117 108 123 130 134 136
148 144 117 107 112 135 157 178 153 149 166 148 121 78 134 96 79 127 191 224 129 37 17 31 42 62 72 82 81 76 70 60 90 95 113 149 151 126 117 123 151 174 153
140 129 125 130 123 111 99 108 140 139 123 137 143 147 104 52 65 78 67 88 77 -2 -7 27 44 44 50 72 98 92 82 83 84 121 148 169 151 119 107 99 131 138 141
111 120 99 103 111 109 100 84 71 93 124 138 116 116 123 140 116 92 59 -1 -7 3 17 26 25 48 64 72 112 137 121 89 80 75 99 118 130 131 132 144 161 180 187
104 100 101 101 97 103 97 96 90 87 84 100 124 106 67 61 60 32 50 23 21 25 40 57 60 52 56 67 79 88 115 116 109 124 135 124 133 146 158 154 161 162 166
99 116 108 90 98 102 99 103 108 110 105 97 78 56 52 59 35 33 17 23 29 37 40 50 72 75 78 73 89 109 91 107 123 125 123 119 120 125 135 126 129 132 139
87 83 83 74 70 63 62 65 57 56 55 49 34 20 34 -2 -21 -27 -10 -1 15 34 60 89 95 89 72 73 66 78 82 82 69 82 77 95 102 72 74 61 59 113 117
119 86 63 54 39 35 18 5 -3 -10 -18 -17 -30 -41 -24 -40 -23 -16 -14 -2 21 37 42 74 91 103 118 139 114 67 54 58 46 35 62 67 71 105 86 69 56 41 56
115 98 48 32 12 -1 9 -6 -6 -20 -25 -30 -47 -56 -60 -55 -38 -5 31 45 35 40 55 73 94 119 118 150 156 115 57 38 53 43 23 45 68 73 100 102 79 69 80
105 128 115 50 34 21 -6 -30 -37 -54 -54 -65 -78 -83 -51 -15 13 21 24 34 45 55 62 72 85 101 117 129 156 150 118 44 -6 17 49 37 32 70 54 81 90 70 83
102 125 140 77 56 47 19 -10 -22 -32 -38 -20 -39 -57 -39 -22 -5 17 27 41 45 48 57 68 79 92 104 103 108 132 127 90 29 28 55 60 56 54 91 85 106 112 76
113 100 133 108 94 73 54 29 6 -2 13 12 -1 -13 2 26 33 36 40 39 29 32 45 60 76 87 104 103 104 104 98 91 86 74 92 96 87 71 62 96 102 127 112

GFSGL_con_3kmhel_093.txt.gz
Helicity
75 51 66 56 39 16 14 8 8 1 4 3 -2 17 12 18 12 -0 -2 -2 6 9 8 3 5 7 23 30 37 48 43 45 5 22 17 28 7 -12 -33 -12 -1 29 72
77 58 41 29 27 14 2 4 6 3 12 17 35 41 17 13 3 5 5 -0 -3 10 12 -1 6 21 29 35 38 40 54 47 10 -74 -4 12 -1 -43 -16 3 42 72 53
110 98 78 64 44 23 12 11 14 14 15 36 42 31 20 25 20 14 7 7 9 10 12 5 8 -0 16 17 13 3 17 26 33 19 -0 7 -0 15 23 45 63 81 47
99 130 85 73 42 23 10 12 23 29 33 39 45 40 38 28 20 16 11 9 10 11 10 15 10 3 7 10 4 1 17 38 41 22 15 20 32 45 53 42 43 65 18
106 53 80 45 32 31 41 43 56 38 20 25 37 38 32 35 36 31 35 35 21 16 14 9 6 9 13 4 -1 -4 -9 -7 -4 26 15 44 1 61 -8 56 53 52 44
133 115 51 4 36 30 70 70 100 93 59 43 31 24 25 30 18 8 21 31 26 14 11 10 6 11 20 32 7 22 10 -19 -22 -41 -31 -21 3 -4 -10 8 38 38 -13
122 67 -29 27 97 31 35 53 69 46 79 75 89 65 37 22 33 26 21 33 33 28 20 8 6 7 2 3 1 -9 -7 -4 42 25 -4 28 9 48 27 -18 4 70 72
252 204 166 138 107 51 13 13 23 69 68 46 32 49 76 84 114 74 43 43 42 30 24 23 19 12 6 1 1 -5 -3 7 24 55 79 60 71 50 117 67 84 100 107
152 192 166 142 149 149 152 41 49 88 51 10 41 61 49 84 161 112 72 45 42 30 17 31 33 29 39 45 27 9 -0 3 16 10 13 73 69 80 106 147 115 102 49
143 144 144 132 120 95 88 20 39 -32 8 37 49 40 21 72 171 128 122 77 67 47 47 65 43 44 97 93 58 39 15 7 15 21 30 23 32 59 73 146 124 123 116
107 112 129 135 134 137 123 161 175 136 115 96 53 132 138 163 206 296 231 96 63 56 47 67 80 70 94 78 39 41 30 21 33 39 37 36 39 54 68 113 150 186 153
77 95 122 136 140 163 176 195 195 193 223 214 190 170 179 218 249 268 290 211 182 117 108 84 95 133 84 85 69 51 61 34 39 69 65 53 51 54 70 84 100 138 152
97 136 157 160 182 195 224 237 232 247 235 230 208 186 180 137 138 199 186 178 120 68 69 94 132 108 93 80 69 69 49 29 51 54 61 65 64 64 71 88 81 99 108
153 167 160 170 190 212 211 212 222 258 245 235 241 213 171 124 123 120 116 113 109 60 50 41 56 57 43 55 102 102 93 82 69 49 41 51 57 65 77 102 98 105 116
170 177 183 177 186 190 186 178 168 162 141 143 136 136 124 94 107 108 64 68 49 18 -4 -35 -13 -10 25 54 45 40 69 96 107 103 85 75 69 72 83 95 108 111 140
130 143 144 144 156 159 161 163 177 182 173 167 138 99 81 58 87 122 133 136 77 20 -24 -25 -10 4 14 22 55 84 104 119 122 108 95 81 66 64 69 86 114 137 123
95 94 108 130 148 159 165 171 191 146 95 124 147 142 119 92 122 101 88 87 37 16 -4 2 -2 6 18 28 34 59 90 144 149 150 141 126 119 84 81 88 100 114 111
102 101 84 85 98 123 137 144 151 178 209 202 143 113 97 113 112 95 112 66 35 35 13 9 8 11 8 1 10 20 50 54 83 132 170 173 169 189 173 142 108 100 98
87 86 86 87 82 75 76 89 94 95 103 140 177 154 157 188 123 69 33 -39 -35 -12 6 21 28 37 47 57 58 39 43 54 61 53 75 82 95 103 128 143 124 132 116
77 63 58 49 49 51 52 47 53 71 85 88 80 69 73 81 53 28 4 -3 -3 -12 -30 -50 -50 -19 15 35 39 45 65 75 71 81 75 69 71 91 100 97 99 91 91
74 75 75 75 72 66 58 57 50 45 47 53 42 20 27 -2 -28 -63 -91 -96 -94 -90 -91 -85 -77 -59 -40 -9 34 69 101 110 120 106 78 60 54 72 79 89 81 80 90
85 74 70 68 61 61 58 58 65 62 50 49 48 22 2 -61 -70 -86 -101 -107 -102 -85 -63 -47 -44 -47 -48 -49 -33 16 74 109 132 116 103 93 91 74 79 90 84 86 83
112 91 69 64 58 49 55 58 54 49 40 22 14 13 -5 -30 -45 -69 -87 -94 -92 -66 -2 14 30 31 27 22 25 31 37 66 101 122 107 80 66 70 98 101 98 95 83
106 104 97 84 80 74 61 50 42 26 18 12 7 8 -7 -21 -33 -44 -53 -20 -5 1 13 15 28 51 58 62 67 72 92 103 93 101 126 120 98 69 53 76 91 97 115
107 110 104 97 103 91 74 63 50 35 28 22 16 12 8 4 9 -1 -18 6 29 41 53 64 69 52 53 63 71 79 79 103 85 102 104 97 97 78 71 72 99 120 114
122 115 120 112 128 115 102 93 65 48 43 35 29 25 22 21 21 4 16 36 39 53 56 59 61 50 51 53 48 61 91 94 86 88 91 89 96 105 111 107 96 138 133

GFSGL_con_3kmhel_096.txt.gz
Helicity
96 93 77 55 41 40 33 38 21 17 13 10 18 17 15 10 12 5 4 7 3 12 27 16 17 19 5 19 18 10 23 46 -106 -62 -12 -92 -120 -111 -89 -66 30 44 69
92 92 77 69 54 39 32 38 34 21 10 9 19 20 28 32 22 19 10 9 7 -0 7 11 6 16 24 43 44 19 2 64 41 -80 -94 -116 -131 -132 -134 -130 -106 40 77
94 113 107 89 75 53 43 32 22 21 23 21 21 27 31 23 28 26 17 12 11 8 6 13 10 23 21 24 40 32 52 54 41 -20 -75 -28 -67 -98 -86 -62 16 13 43
63 115 159 133 101 87 77 61 40 30 30 40 37 41 44 37 31 25 24 18 12 7 8 9 15 13 11 13 21 18 33 47 39 -20 -28 -21 -4 -11 -7 -43 -40 -46 -16
146 169 148 128 83 57 71 76 81 74 65 50 35 30 38 43 40 39 28 16 13 12 12 8 12 8 -3 2 29 3 14 -0 -14 -45 -23 -11 -31 -48 -53 -52 -49 -50 -46
188 191 129 107 67 35 42 66 91 91 58 68 74 51 36 31 26 24 34 35 26 23 16 13 13 17 16 6 -13 -26 -19 -32 -35 -37 -37 -37 -32 -47 -70 -61 -25 11 -58
142 95 70 83 36 34 42 82 79 71 68 62 24 56 74 60 94 79 41 38 44 39 37 33 28 27 24 20 10 -0 -2 -7 20 -24 -41 -29 -35 -21 -17 -44 27 21 14
207 180 137 108 104 24 72 117 108 69 44 43 60 21 13 65 119 112 92 66 59 61 54 47 43 40 74 66 41 26 25 28 35 54 66 56 52 22 62 51 49 37 45
170 123 108 61 44 20 61 133 107 5 -8 36 40 43 56 158 230 297 199 150 134 100 93 103 112 81 90 106 105 79 48 35 54 51 39 30 32 47 74 75 71 70 48
120 93 104 97 83 68 57 65 51 109 68 65 162 188 198 128 272 314 250 185 175 157 105 69 52 97 81 51 64 45 43 28 34 32 37 46 55 56 68 104 92 93 83
99 91 97 104 109 95 84 100 79 100 204 241 247 224 102 144 183 229 198 86 56 26 33 43 33 82 110 101 37 57 50 48 56 58 49 42 44 53 62 83 117 128 118
104 118 122 132 124 123 141 171 201 185 190 204 183 139 165 151 172 233 217 126 72 5 50 63 77 122 88 89 67 90 101 41 26 37 36 49 55 55 60 58 71 104 131
105 125 127 142 155 157 159 167 178 191 194 195 171 154 138 136 113 190 171 190 142 76 42 38 34 54 84 76 91 109 83 63 48 42 38 50 50 47 47 51 52 69 84
122 136 145 164 188 204 201 197 198 214 194 182 163 131 100 107 99 127 141 155 133 102 91 55 37 -7 -31 -10 20 46 57 68 73 77 68 69 73 84 77 77 64 82 76
127 145 181 197 196 198 218 211 192 204 184 165 156 136 116 101 101 91 68 59 50 43 34 11 25 60 63 70 69 67 73 67 84 86 76 60 54 52 78 92 86 96 87
130 147 167 176 188 187 174 187 247 200 213 220 181 156 110 125 138 148 165 157 130 105 27 35 46 44 59 62 86 86 88 121 116 113 134 142 125 124 123 134 131 108 92
131 136 147 160 160 156 161 158 152 156 144 168 152 135 132 110 90 98 123 77 68 52 35 42 27 30 34 30 26 35 29 50 70 64 66 70 66 48 58 76 100 111 147
125 128 134 146 151 156 159 153 139 145 143 139 114 123 155 159 138 140 145 56 75 66 35 20 18 13 7 -4 3 8 17 14 13 24 41 51 63 58 40 48 33 51 66
97 100 108 115 119 116 118 126 125 120 114 104 99 95 127 125 94 98 105 83 86 76 69 51 33 22 14 13 5 -0 8 12 26 42 54 64 68 79 71 74 65 68 62
96 74 81 88 91 99 99 99 101 110 117 128 141 150 143 119 118 106 74 44 26 15 7 -1 -7 -11 -12 -21 -30 -27 -19 1 17 51 73 85 81 89 87 92 95 86 75
94 87 69 71 62 58 64 81 93 107 112 106 97 90 87 81 77 57 32 -0 -23 -41 -61 -83 -106 -117 -111 -90 -88 -88 -69 -37 -3 32 61 83 122 85 77 96 122 124 125
93 73 68 61 62 54 49 46 46 51 57 64 62 53 40 35 29 20 1 -28 -54 -82 -106 -120 -140 -152 -145 -138 -107 -70 -62 -71 -75 -53 13 74 112 123 121 117 89 78 100
105 83 71 73 70 64 61 54 50 45 39 34 33 37 30 25 14 8 -4 -34 -60 -88 -114 -125 -121 -103 -84 -63 -53 -44 -42 -54 -60 -52 -46 -21 21 49 73 108 114 121 119
110 97 82 70 68 65 67 65 63 57 52 47 44 43 41 36 31 26 6 -16 -37 -40 -46 -59 -49 -41 -12 23 22 26 28 23 32 26 10 6 20 45 30 59 54 73 100
114 112 102 88 78 74 74 65 60 52 52 48 46 43 38 30 15 14 12 1 -8 -10 -15 -16 -7 14 36 46 54 59 59 71 70 54 74 71 80 74 63 65 65 88 89
110 104 98 100 99 94 96 88 75 66 63 60 61 53 45 37 25 21 30 27 19 16 -0 6 20 31 44 56 50 57 78 72 75 85 129 85 94 116 113 108 94 126 106

GFSGL_con_3kmhel_099.txt.gz
Helicity
35 48 30 40 30 20 18 24 25 20 29 24 18 18 8 -2 11 15 11 9 3 13 14 24 25 19 -1 8 22 -5 -18 1 -80 -57 -61 -69 -81 -64 -59 -74 -68 -89 -2
32 68 50 44 52 38 29 38 24 18 29 26 20 18 25 21 20 15 12 9 9 4 5 14 15 24 15 26 32 30 -8 12 -68 -63 -52 -61 -61 -58 -75 -76 -72 -44 -54
65 56 40 34 49 50 50 42 38 33 34 26 26 23 20 25 29 22 13 16 11 7 8 18 8 14 20 18 20 16 9 40 16 -38 -37 -49 -48 -55 -45 -54 -45 -34 -27
150 148 131 70 70 68 65 63 52 47 47 45 40 44 43 42 35 24 21 19 16 15 15 9 9 4 5 18 -1 -5 -23 -25 -26 -31 -25 -23 -27 -33 -52 -62 -34 -28 -31
104 163 139 101 101 89 89 97 103 94 81 68 62 53 53 45 49 39 33 27 25 18 19 16 11 16 20 12 20 9 14 1 -20 -34 -26 -27 -27 -38 -40 -34 -45 -33 -21
141 127 119 95 197 151 112 118 116 112 104 87 84 78 80 90 100 72 39 22 20 22 26 29 31 21 25 7 7 -5 -9 -5 -3 -20 -31 -28 -29 -45 -43 -47 -58 -51 -29
63 127 163 183 258 162 98 95 98 82 95 89 83 88 114 119 130 92 59 40 33 46 53 54 55 77 87 63 34 5 -4 -8 -23 3 -4 -20 -17 -28 -28 -44 -55 -53 -15
183 169 127 101 111 85 72 78 90 107 108 86 100 100 100 141 208 197 97 98 119 142 162 158 138 113 93 79 68 52 55 59 50 44 41 25 13 35 26 -8 6 -9 53
170 151 125 90 72 81 31 15 78 122 131 178 143 133 141 162 232 206 130 159 175 182 152 145 112 62 35 12 14 57 59 65 67 49 37 29 22 19 53 67 52 48 13
112 126 82 73 70 66 37 -13 51 73 199 299 219 153 168 196 272 258 144 124 100 62 40 12 21 14 -8 19 7 19 48 51 48 51 59 51 39 40 37 76 66 71 62
136 107 96 83 79 62 62 66 69 128 178 153 124 142 173 291 411 414 235 125 119 103 96 76 63 22 25 55 14 59 60 59 60 44 51 57 51 49 57 71 72 74 74
114 115 101 97 94 92 96 85 106 118 130 107 101 126 133 106 189 218 214 163 159 88 97 89 84 106 124 66 60 89 73 33 51 60 63 63 66 68 68 67 65 52 59
86 107 110 111 117 129 132 142 144 146 133 141 119 111 112 107 123 174 155 168 103 56 60 54 43 65 52 21 52 43 33 55 65 76 67 65 72 68 72 76 86 86 74
84 92 102 121 135 156 161 174 186 188 170 160 152 140 129 135 138 137 126 111 106 100 107 92 91 50 16 37 55 65 70 67 50 57 68 37 31 49 75 102 70 87 81
82 93 108 120 138 166 213 221 211 268 234 193 188 180 158 140 140 134 125 122 121 108 77 87 100 113 94 82 84 89 88 89 91 98 82 65 61 63 66 70 84 93 92
59 73 92 111 139 151 162 211 291 255 244 256 287 199 124 151 148 161 152 133 139 108 81 97 96 93 85 83 87 84 71 72 60 52 47 44 51 42 49 45 56 85 84
90 99 115 118 123 124 119 109 126 175 179 186 193 202 185 145 160 167 136 94 147 90 97 90 83 78 73 63 59 61 55 57 58 54 47 39 43 46 42 45 55 68 70
88 111 105 116 125 134 139 141 132 120 126 133 154 167 163 137 127 143 130 28 76 101 97 92 86 77 66 54 46 38 34 29 30 32 39 54 65 59 50 62 62 52 57
77 95 111 123 134 139 135 124 112 108 115 116 100 76 104 89 76 94 121 116 112 99 90 77 68 57 46 30 17 -1 -8 -11 -21 -13 -13 5 27 35 44 49 51 54 60
96 107 112 118 111 112 112 114 111 108 103 100 101 109 111 98 120 124 116 106 95 87 79 70 66 57 45 27 13 1 -16 -22 -19 -15 -11 -8 -8 -1 -1 20 48 47 41
83 87 88 92 97 104 110 116 114 111 110 109 106 109 99 97 98 96 96 91 81 68 56 44 31 15 0 -19 -38 -52 -64 -68 -66 -61 -56 -30 -12 16 35 50 81 115 115
82 86 88 92 99 95 98 101 102 105 102 94 82 76 45 79 91 89 82 70 58 41 22 8 -7 -24 -39 -48 -64 -85 -106 -109 -103 -91 -87 -64 -31 -1 17 30 50 65 77
77 81 89 94 97 108 94 91 87 83 81 78 75 67 59 63 55 51 44 30 15 -4 -10 -23 -38 -53 -49 -65 -95 -117 -139 -138 -109 -73 -66 -55 -57 -54 -36 -15 -17 -6 25
86 84 86 94 94 82 80 76 67 58 50 41 36 38 37 34 31 31 21 23 8 -2 -19 -29 -32 -46 -42 -41 -47 -54 -52 -46 -35 -37 -6 22 23 2 14 23 24 19 38
95 95 93 87 82 72 75 64 63 58 47 36 33 30 30 27 24 22 18 11 7 8 9 11 -2 -6 -10 -12 -12 -10 5 23 37 54 60 50 45 48 71 70 67 82 90
117 107 98 99 95 83 72 69 64 57 50 49 48 45 39 36 36 34 23 18 14 17 18 19 14 2 -4 -2 -3 6 31 22 49 73 74 73 82 102 106 115 105 136 130

GFSGL_con_3kmhel_102.txt.gz
Helicity
26 26 33 35 32 37 21 31 35 37 23 23 12 11 9 3 11 13 -5 7 1 -3 7 8 12 20 8 7 -9 -28 -42 -48 -51 -27 6 -46 -26 -78 -43 -39 -44 -16 40
34 31 23 16 37 37 32 32 40 35 34 39 36 22 17 15 16 10 6 10 8 4 0 2 -1 5 1 -7 -7 -3 9 24 -17 -25 -32 -38 -51 -35 -39 -36 -36 -31 -14
46 35 49 35 18 36 42 34 40 32 36 34 34 39 31 26 34 19 19 11 10 10 7 11 3 4 3 6 10 12 -9 -15 7 -16 -15 -25 -29 -32 -26 -33 -34 -33 11
57 78 79 56 33 32 44 55 46 44 37 36 31 41 41 43 39 35 25 18 14 16 11 13 16 8 8 8 10 12 -13 -12 -23 -16 -22 -24 -27 -31 -26 -28 -29 -25 -20
131 199 179 145 110 76 51 58 56 53 45 47 33 39 43 51 54 45 39 33 30 31 28 19 17 39 48 35 21 12 0 -18 -23 -22 -24 -30 -18 13 -19 -33 -24 -34 -5
94 81 158 143 178 98 77 72 67 75 76 71 54 66 64 74 128 95 43 24 30 36 39 36 42 41 42 15 20 18 16 7 -9 -16 -15 -15 -12 -33 -31 -32 -35 -32 -7
95 137 135 173 153 190 159 144 107 90 87 85 81 140 113 107 134 61 49 29 43 46 59 52 60 90 75 54 35 6 3 7 15 17 4 -9 -5 -10 6 -14 -23 -27 -30
48 54 52 134 153 186 245 139 98 101 89 71 99 107 123 147 225 162 118 133 181 182 141 118 123 91 75 64 49 44 47 48 53 51 36 28 28 39 23 3 -10 -24 -31
117 144 121 97 97 74 67 139 48 69 60 111 139 175 160 196 279 255 118 107 121 124 133 128 118 105 111 91 47 45 55 71 85 18 4 5 1 5 8 24 -3 21 1
173 159 136 116 89 63 62 77 74 127 179 241 226 259 279 246 332 285 213 101 116 107 113 109 138 108 75 89 37 23 25 77 88 86 60 26 4 20 28 20 35 28 20
227 155 118 124 86 81 68 63 110 142 186 136 123 151 175 193 169 248 330 201 169 131 127 120 126 154 104 74 50 37 -1 34 68 63 76 83 95 78 75 105 68 61 44
157 125 126 119 102 86 75 67 77 81 80 94 94 86 71 95 135 208 221 246 209 171 181 173 121 135 100 68 88 63 25 1 62 68 73 84 90 97 89 64 52 67 60
138 139 121 105 103 97 88 94 111 85 81 91 89 88 80 85 103 125 125 130 112 112 125 89 74 78 41 -5 34 31 33 77 65 55 75 77 58 38 51 79 74 24 39
104 104 100 107 117 115 106 106 93 101 100 100 95 95 99 115 133 134 131 116 116 106 93 77 93 55 20 44 66 81 117 111 100 104 85 56 34 43 52 55 54 62 57
61 59 55 67 97 138 193 222 157 197 225 160 182 175 149 139 158 147 137 144 145 138 120 106 121 120 128 135 132 135 124 105 97 75 58 53 52 45 41 32 36 41 52
63 70 88 78 82 104 115 164 267 247 294 290 286 244 186 193 178 166 152 160 148 110 114 129 128 128 124 115 104 104 97 86 77 67 64 55 52 46 44 42 49 48 46
64 66 69 74 77 80 89 107 140 175 206 233 251 255 264 198 177 146 96 99 127 85 118 124 116 101 98 90 87 74 73 67 60 68 68 70 66 55 49 33 31 27 24
34 90 51 61 65 82 98 100 105 104 123 141 154 152 142 157 172 142 89 58 96 129 133 131 127 121 115 108 101 93 81 70 69 56 53 49 45 41 41 46 43 45 36
63 59 57 64 71 90 81 89 113 116 116 120 108 75 78 68 50 70 111 132 133 132 125 116 109 101 92 83 77 70 67 68 52 51 44 34 20 7 8 14 25 25 27
64 113 61 60 61 65 89 98 100 99 98 106 111 120 87 39 67 88 108 116 118 115 109 104 99 93 92 89 86 85 81 73 67 58 50 38 28 15 0 -4 -7 -10 -8
28 49 49 68 69 78 80 87 96 97 102 99 107 115 110 101 99 103 103 99 100 93 87 82 70 64 56 55 53 46 45 38 33 30 18 12 3 -16 -28 -39 -36 -34 -49
47 72 70 78 96 99 95 98 93 92 85 75 74 77 23 55 87 92 97 96 92 85 80 66 61 57 55 53 42 29 19 15 20 24 14 -1 -15 -22 -32 -42 -49 -36 -44
42 48 62 78 88 112 106 95 96 94 93 87 84 66 50 78 78 79 76 78 71 65 65 55 47 40 45 36 30 17 8 14 13 4 -8 -20 -31 -48 -64 -68 -62 -55 -61
63 45 49 58 72 72 77 89 92 115 100 86 80 72 70 71 70 73 61 61 51 49 46 35 31 22 11 1 -4 -25 -31 -16 -1 -16 -27 -34 -46 -32 -27 -31 -28 -52 13
114 96 86 69 75 72 78 76 77 77 73 74 68 63 61 56 51 46 37 33 30 26 20 18 8 11 1 11 -2 -21 -1 -2 -42 -45 -38 -30 -22 -13 14 32 36 70 81
113 97 77 112 106 97 84 86 77 74 64 59 54 48 44 39 36 38 37 34 24 18 24 13 21 23 12 -1 -3 53 22 -31 -33 13 20 14 0 3 23 48 60 90 85

GFSGL_con_3kmhel_105.txt.gz
Helicity
35 36 42 49 50 41 40 55 56 36 42 40 17 10 12 -3 5 10 4 24 11 -1 0 26 12 14 24 37 62 43 1 0 -9 34 69 29 -9 14 6 -4 -20 71 28
82 52 46 59 57 42 34 41 46 32 39 31 34 21 14 7 25 14 3 5 8 2 0 -2 -4 -2 10 10 18 13 15 4 14 11 -18 -12 -13 46 64 57 60 -34 -10
94 57 72 42 17 33 47 45 34 36 30 23 29 28 19 13 24 16 9 9 16 12 10 3 6 0 5 12 8 7 19 12 11 -7 -2 -25 -18 -21 48 60 104 74 50
292 175 117 56 34 34 51 48 58 48 36 31 33 33 26 23 32 22 26 13 7 10 13 17 19 18 15 14 5 15 3 1 -12 -17 23 -9 -18 16 43 27 -11 -20 -13
195 146 98 95 71 89 98 91 60 58 46 36 37 45 44 26 70 62 28 25 23 7 19 31 17 64 79 62 23 20 20 1 -7 -11 -4 -9 -6 6 3 -10 -30 -29 -23
173 169 128 113 126 115 103 79 78 66 53 57 45 47 50 80 89 101 76 35 37 24 16 23 24 58 47 59 42 34 33 25 12 9 -2 -11 -19 -5 -5 -2 -7 -21 -3
124 140 129 148 185 221 204 150 147 130 82 86 86 96 128 129 104 87 53 36 40 38 35 56 37 97 92 62 24 23 28 45 42 33 21 10 9 19 10 -2 -4 -6 -14
79 73 81 111 162 124 182 206 226 166 83 103 128 112 100 98 156 151 139 64 114 116 132 109 125 123 100 87 66 57 63 47 51 57 57 56 42 41 27 10 2 7 6
67 62 35 20 80 122 163 199 219 215 215 167 142 88 102 129 209 178 189 93 118 137 171 196 152 143 162 142 86 94 78 63 48 30 24 25 10 3 -4 7 22 29 16
206 152 102 87 92 73 51 82 170 203 224 180 182 92 143 197 329 306 278 123 96 92 91 138 182 157 140 141 113 94 78 75 67 43 9 10 8 8 41 49 73 64 34
212 177 193 162 146 141 103 81 83 126 173 210 124 114 116 144 215 297 336 228 236 150 126 139 139 183 179 162 133 131 107 111 95 64 40 89 154 162 123 102 74 66 67
320 232 169 141 93 75 107 94 76 92 88 95 79 70 73 56 84 102 140 164 174 139 167 144 152 165 134 125 139 129 67 85 68 81 70 109 118 91 86 71 63 45 44
275 267 224 159 131 109 97 75 70 48 49 42 49 74 79 77 74 94 101 86 94 84 83 63 62 78 69 28 -20 30 93 119 104 144 167 135 91 75 63 79 81 67 57
212 202 188 163 143 128 98 88 72 74 69 71 78 84 98 103 112 118 106 89 107 112 109 75 90 78 39 78 108 140 161 120 134 117 108 98 84 75 70 55 54 55 59
143 141 123 108 119 144 184 246 159 153 178 185 158 155 121 94 124 123 126 134 132 130 107 113 148 175 186 201 194 183 143 133 112 95 93 84 82 82 73 64 47 52 56
74 74 105 60 55 76 90 114 170 175 195 227 242 178 137 163 124 95 108 112 105 111 99 146 135 140 141 128 121 108 76 85 85 83 87 88 88 88 89 83 81 70 57
114 94 76 87 65 55 56 57 72 101 142 186 199 201 199 169 121 88 97 139 100 120 125 165 158 137 132 119 111 97 99 82 82 80 81 78 84 78 65 66 73 77 78
43 51 41 57 51 55 55 42 47 57 59 94 118 140 131 125 124 120 107 117 100 130 159 154 144 130 120 121 117 114 99 98 87 88 89 91 90 85 78 72 62 54 37
18 45 77 80 98 110 68 74 63 69 93 69 78 76 90 91 114 107 125 128 158 156 148 142 139 132 124 113 109 100 92 90 82 83 87 80 78 72 67 69 65 68 67
63 131 98 79 103 113 114 117 119 116 101 96 79 90 69 83 71 100 130 138 141 147 144 134 125 111 99 94 89 85 85 86 86 90 90 84 75 59 59 60 59 55 51
58 66 85 100 85 104 110 118 111 101 86 82 77 130 135 106 100 98 100 115 128 121 118 116 97 91 90 93 94 88 92 91 96 93 77 61 46 41 36 30 26 31 33
20 31 45 64 75 79 88 85 94 96 87 106 123 97 102 101 88 96 102 98 104 112 103 96 101 101 97 93 84 86 85 89 89 77 64 49 38 26 18 17 21 20 13
24 14 25 15 19 58 84 67 66 68 97 92 96 67 73 64 100 93 96 98 82 76 76 70 71 79 82 71 70 65 65 71 65 56 41 32 25 18 17 9 -2 -11 -12
56 72 58 65 43 44 59 65 75 104 106 107 106 101 90 97 82 101 87 84 74 68 65 59 66 76 65 52 49 38 51 77 55 22 13 4 -7 -20 -32 -54 -82 -90 -70
80 98 85 74 91 83 58 62 69 84 94 102 90 82 80 80 74 76 52 61 60 58 51 52 46 45 27 37 53 54 110 93 45 29 13 -2 -29 -58 -75 -71 -62 -39 -44
95 104 105 111 157 150 99 55 62 86 98 96 87 94 88 82 72 70 61 60 57 48 52 49 46 47 46 34 22 87 74 39 14 31 18 -12 -29 -9 -21 -32 -34 13 23

GFSGL_con_3kmhel_108.txt.gz
Helicity
52 71 64 44 51 44 42 53 33 17 22 24 23 21 18 17 17 7 -11 3 6 -11 -4 -3 -1 -6 -8 0 0 50 16 -7 -12 -42 -28 -5 7 -4 102 92 91 120 77
38 70 79 47 70 48 43 69 36 48 56 28 18 14 16 2 12 26 0 5 23 26 22 -5 -2 8 14 20 26 30 29 9 -10 -17 -27 -3 -13 22 70 98 119 98 95
126 171 105 39 58 67 88 22 67 58 46 40 46 31 5 9 15 33 10 -1 6 15 13 24 19 9 8 2 4 -22 -4 -28 -10 -8 6 -7 3 -16 38 29 33 51 21
96 114 90 18 72 39 53 55 69 64 65 44 42 22 18 4 24 24 20 3 1 13 9 30 33 6 25 10 12 20 10 0 -2 -2 -29 -8 10 -25 13 33 -6 -23 -57
274 291 211 204 179 121 76 89 98 86 44 36 61 51 49 103 96 74 46 34 23 6 10 17 50 93 44 51 40 39 28 13 4 -6 -26 -32 -38 -87 -54 -39 -31 -42 -38
261 228 200 168 168 123 114 113 98 112 103 60 56 62 76 101 103 83 94 68 38 19 21 9 38 113 63 44 37 29 20 17 12 14 6 2 -11 -24 -23 -9 -15 -11 -9
185 180 164 135 120 152 107 115 116 138 141 131 137 179 156 120 96 89 86 38 39 37 38 38 61 97 136 115 63 23 25 19 39 41 20 17 13 12 9 7 11 3 6
156 173 125 127 157 161 181 130 145 162 211 258 225 180 124 96 128 110 98 47 59 94 130 140 193 115 105 84 77 95 90 87 54 29 26 12 6 13 29 25 49 41 25
111 98 89 70 67 66 111 168 214 220 276 373 258 223 128 79 137 151 132 91 146 208 175 231 142 119 148 175 155 116 104 70 68 55 17 -2 -13 17 74 60 72 72 48
105 110 127 102 69 60 74 122 209 227 232 189 147 168 176 189 158 213 226 190 109 42 92 141 174 148 162 175 133 111 101 84 106 124 126 138 107 135 112 73 65 70 64
291 254 187 143 98 109 132 80 96 168 179 197 162 135 110 40 120 186 270 269 271 203 168 131 105 154 169 165 123 109 115 150 182 202 222 214 290 216 92 66 75 67 61
309 267 235 186 162 167 146 156 130 120 142 103 72 46 9 74 117 121 140 167 256 198 174 127 100 126 115 104 109 141 173 143 120 114 197 195 169 136 131 120 128 79 85
354 360 331 308 195 145 128 98 90 96 85 50 14 18 45 59 65 93 86 90 112 84 74 63 61 80 98 93 92 191 195 185 185 175 194 179 157 148 121 68 72 85 111
223 229 292 344 355 332 294 238 201 195 136 86 31 19 57 86 99 103 96 67 66 71 92 75 93 122 164 199 264 222 183 175 182 186 182 155 113 123 92 82 81 68 64
198 211 202 252 231 258 266 240 162 182 184 204 249 218 180 132 115 92 90 102 111 112 103 66 103 132 163 169 171 149 140 143 144 128 119 113 96 89 84 101 93 89 100
242 199 149 139 128 126 143 117 135 116 149 187 216 156 135 115 77 84 105 114 110 122 111 97 80 146 140 129 132 110 73 103 107 87 80 90 74 77 86 84 78 63 59
142 204 187 184 81 69 51 71 89 100 121 157 171 162 176 111 117 109 114 129 99 129 151 193 146 150 166 176 169 133 127 81 104 110 99 98 95 98 99 86 86 70 58
97 73 111 128 161 117 56 16 49 43 66 105 134 138 121 112 106 98 104 122 142 166 198 186 180 172 178 182 175 159 140 124 120 125 125 121 113 112 105 104 92 81 70
60 46 44 48 68 88 102 69 58 23 38 76 39 71 80 77 73 85 124 153 151 191 176 191 185 161 162 144 145 134 134 113 107 117 112 107 98 93 88 86 82 87 70
32 48 111 185 132 166 126 103 103 130 123 38 -16 40 68 92 95 100 156 184 205 197 190 171 163 154 139 142 133 127 125 119 120 115 100 89 83 79 81 76 68 58 51
34 48 71 103 100 83 122 114 126 168 145 166 181 225 161 120 164 119 102 149 191 176 187 192 148 122 107 114 118 111 115 120 117 103 90 80 73 67 59 53 53 60 56
35 26 30 35 56 78 91 132 108 123 149 125 182 147 133 119 184 158 194 151 155 190 139 135 132 123 114 106 102 111 115 126 120 102 92 84 82 82 81 73 65 55 48
50 40 53 28 24 32 43 51 58 84 71 105 104 125 91 114 126 123 134 138 130 103 107 103 105 109 105 94 98 108 118 124 111 96 86 85 84 84 68 61 52 39 37
54 91 94 67 60 26 37 56 41 54 57 105 121 109 48 55 92 162 145 127 114 104 102 92 101 132 113 89 76 60 127 138 87 72 82 69 59 55 53 44 37 21 8
84 48 102 104 112 101 60 65 65 39 61 89 111 123 114 119 137 161 134 128 111 105 92 90 82 76 75 70 89 112 91 92 70 76 35 43 46 36 41 51 33 22 3
115 95 121 107 135 127 112 118 82 79 82 97 88 66 96 103 100 107 106 83 99 86 72 82 74 86 91 73 45 95 99 66 52 60 54 48 51 55 62 59 30 50 46

GFSGL_con_3kmhel_111.txt.gz
Helicity
120 106 82 64 84 127 52 38 30 6 -3 -35 -8 20 -6 0 11 21 13 -10 9 5 0 6 1 23 24 40 39 43 51 48 18 16 23 21 44 14 25 25 71 126 69
117 103 69 51 54 65 58 57 60 24 12 -14 2 -5 11 23 10 16 8 8 0 -6 9 -2 -3 12 1 21 24 31 39 8 -5 -15 -11 44 37 -1 -5 17 48 24 35
59 110 69 43 38 34 41 64 49 21 37 6 18 16 12 13 12 12 22 3 0 5 5 23 16 13 24 11 15 22 4 -2 2 -6 -36 14 1 -37 -9 -5 -31 -55 -38
153 120 115 67 17 81 72 57 92 64 57 35 36 34 30 54 63 52 22 16 9 8 28 25 15 20 11 17 22 21 22 16 12 4 -22 -24 -9 -46 -32 -51 -30 -35 -13
95 141 94 119 134 111 115 95 100 67 80 71 49 44 95 98 79 70 58 53 23 22 24 37 40 58 70 42 29 28 13 5 9 11 6 -10 -29 -51 -46 -32 -45 -43 6
77 175 183 104 95 143 144 142 151 166 100 56 49 118 127 87 81 64 67 76 70 37 30 57 44 85 99 100 69 28 7 11 14 14 17 12 1 -12 -24 -29 -18 -10 -13
128 157 145 176 190 194 153 154 85 162 90 68 138 179 163 120 117 107 74 46 63 71 72 75 85 63 61 57 63 73 107 79 38 28 17 18 37 28 14 23 27 24 34
138 174 194 232 210 209 204 182 125 103 128 177 204 145 146 141 108 89 62 45 141 156 133 117 113 96 109 99 112 111 101 93 79 40 26 24 41 62 43 28 22 27 41
180 209 208 196 163 173 181 171 168 181 203 222 215 268 224 246 288 193 128 109 121 135 139 120 100 120 159 155 110 109 102 96 107 118 140 107 107 115 102 107 116 68 46
138 129 136 132 127 108 97 112 151 201 215 226 238 226 240 151 201 173 147 104 120 127 133 139 154 131 155 161 122 114 121 133 172 234 356 404 317 251 162 85 57 39 46
237 192 176 155 146 104 84 98 129 172 160 157 164 127 95 69 125 197 190 193 124 118 138 131 130 155 179 169 150 131 117 129 167 215 279 281 277 275 232 196 140 63 60
348 341 294 232 181 147 167 130 134 142 149 124 119 112 75 68 95 98 162 222 173 158 85 89 99 149 158 157 154 179 185 168 153 182 224 256 260 219 201 189 179 158 110
346 367 329 343 300 228 183 152 149 151 135 114 92 66 63 55 49 126 174 149 113 85 60 52 70 89 124 141 147 156 155 131 127 163 180 195 164 110 91 88 110 158 162
280 294 311 321 301 321 325 286 227 217 185 161 93 76 33 53 98 128 142 134 130 118 115 90 72 96 127 138 149 143 114 105 110 127 146 138 119 130 123 74 50 95 70
247 229 179 214 228 201 243 253 237 269 178 148 151 138 72 81 82 105 122 115 103 100 100 100 102 113 129 138 141 127 133 169 200 195 195 175 174 181 153 130 94 84 61
159 153 158 167 177 190 162 196 174 159 173 179 167 124 124 101 87 87 87 83 91 104 117 115 127 133 133 145 144 153 166 209 203 171 152 134 135 129 117 114 74 68 62
166 152 126 111 148 137 118 89 145 104 148 167 142 128 88 29 39 71 108 141 137 135 172 128 152 175 193 226 200 146 150 150 161 162 139 126 125 123 108 109 91 67 75
98 92 117 106 80 71 85 107 124 98 63 97 119 88 91 112 124 129 142 142 155 191 171 176 178 177 194 210 206 165 161 160 166 149 145 137 151 135 115 108 91 76 60
143 170 130 92 69 85 94 105 116 108 121 101 50 60 74 105 119 124 135 138 165 181 194 223 195 184 169 169 173 165 136 163 162 141 127 125 132 108 109 102 91 105 94
47 68 107 107 80 94 136 131 168 167 125 55 -6 -13 6 41 68 81 104 171 185 201 231 216 195 183 161 146 160 172 163 161 149 140 130 118 113 102 99 88 74 56 48
71 67 58 75 86 82 94 119 108 120 145 87 32 -20 -45 37 80 141 125 210 218 232 223 186 153 132 141 155 170 166 155 134 124 121 113 98 91 81 83 77 68 65 61
28 39 50 35 30 56 56 72 109 103 142 158 139 89 52 67 97 137 121 156 203 203 186 161 141 134 122 118 136 160 141 124 115 107 90 80 75 77 77 78 86 90 93
59 56 64 62 37 33 39 35 47 68 69 75 106 99 73 60 82 144 139 148 145 142 128 132 161 153 121 100 109 123 126 115 90 72 83 88 88 90 91 95 100 105 112
81 73 76 117 96 60 49 40 47 48 57 62 77 117 108 76 66 121 138 141 121 102 99 124 153 150 131 96 98 130 130 101 74 83 83 74 76 87 90 90 95 99 104
86 73 82 136 164 135 84 60 88 69 47 52 79 99 102 94 60 89 140 144 127 121 102 98 102 107 108 105 105 96 76 77 64 56 52 63 66 62 63 72 85 97 99
91 99 82 104 91 150 153 128 121 104 90 70 74 104 129 138 149 156 154 160 141 125 106 99 84 83 88 100 107 102 86 84 73 40 44 49 48 45 48 66 77 98 96

GFSGL_con_3kmhel_114.txt.gz
Helicity
78 70 88 120 92 70 27 -2 7 19 27 -8 23 40 19 9 4 9 -3 -15 25 12 12 4 9 40 35 38 48 52 60 61 44 25 5 6 6 15 -4 29 35 54 32
98 101 92 115 120 104 54 16 6 13 12 23 5 10 31 22 12 9 7 9 7 1 -11 -4 -13 2 10 20 37 40 33 32 12 4 -3 6 27 36 12 19 11 1 -17
103 104 76 67 131 104 68 54 43 5 6 32 29 11 11 10 25 24 15 4 9 1 -3 0 0 19 14 12 14 11 21 23 -5 0 8 6 -11 -25 -13 -13 -8 -24 -10
204 96 62 43 75 50 36 61 68 28 14 26 30 28 58 61 66 47 39 20 15 19 33 34 10 14 32 24 29 32 23 25 19 11 15 12 -6 -10 -10 -26 6 5 38
231 120 45 -3 67 61 56 64 54 65 36 45 67 86 85 84 75 57 50 42 43 40 57 55 48 69 75 51 39 29 31 31 24 18 15 18 12 1 -13 -17 -11 24 17
40 72 63 42 84 105 171 125 138 93 15 71 85 107 104 77 62 47 64 57 68 70 80 70 52 71 77 93 70 37 16 29 33 33 28 32 30 17 24 21 22 23 12
212 -5 100 137 100 67 132 167 161 171 167 70 123 127 111 99 110 90 79 63 83 84 78 85 73 65 65 68 86 119 128 90 53 35 41 37 46 37 39 38 21 11 0
69 88 115 106 87 100 104 136 170 180 184 118 97 132 78 85 98 91 99 97 125 138 132 123 101 90 90 84 109 113 111 96 77 57 35 38 33 27 28 23 4 -10 12
51 48 73 134 168 148 123 121 166 225 227 207 142 115 114 104 141 143 108 130 159 174 146 125 110 136 160 137 124 114 111 135 138 179 211 215 212 164 136 76 64 56 57
109 121 185 211 192 159 117 127 139 147 178 209 206 181 140 175 255 195 127 144 135 98 117 129 170 150 176 174 140 130 158 168 210 244 257 308 320 334 287 142 38 11 20
135 117 166 197 176 113 109 110 133 164 173 191 202 186 187 172 188 172 133 94 87 86 75 115 160 154 150 142 124 117 105 134 201 247 275 283 261 241 222 194 142 58 10
210 220 238 168 140 114 137 126 131 147 161 151 136 149 141 145 164 176 154 102 87 94 134 131 105 113 135 152 150 161 172 174 184 185 204 213 229 231 238 227 158 121 80
343 297 329 332 307 290 194 145 143 123 107 130 134 144 137 123 138 189 214 146 149 131 111 62 71 105 137 153 141 154 145 125 132 163 171 173 177 182 183 176 160 120 116
239 266 220 231 294 363 352 291 219 202 154 130 139 137 109 76 106 109 77 113 144 135 141 115 109 112 112 101 126 140 130 131 137 147 166 171 162 174 184 156 188 145 158
173 194 193 165 187 218 256 276 235 214 190 180 123 121 103 88 81 88 93 97 100 103 91 95 98 102 122 137 142 142 147 164 173 168 187 204 205 179 175 141 130 121 135
97 87 65 82 83 110 122 129 192 188 255 221 122 151 132 109 110 123 137 120 98 103 139 123 99 101 103 112 131 147 172 177 172 179 194 186 185 177 158 143 116 114 108
123 128 100 95 91 88 124 140 128 153 177 203 179 135 113 108 97 95 77 93 86 125 142 144 144 133 127 124 142 136 141 151 153 164 155 152 146 144 138 139 124 103 94
113 150 140 130 97 113 135 126 131 153 110 91 73 90 111 64 56 53 102 95 117 145 143 165 166 160 160 150 136 137 154 170 157 140 146 142 137 127 129 125 119 108 104
83 102 91 92 100 117 115 111 103 111 97 89 86 86 77 47 57 86 117 142 157 163 180 200 174 144 130 131 132 149 140 135 115 116 118 120 121 108 110 99 85 93 81
63 79 87 86 99 91 87 77 77 80 81 64 54 22 40 78 93 147 188 166 142 155 180 185 152 133 106 100 116 136 144 134 116 114 113 110 106 96 92 89 90 92 106
38 53 68 81 96 105 101 108 107 109 72 65 50 31 4 39 47 92 141 147 162 189 152 129 106 89 67 86 124 135 132 116 100 98 100 97 92 92 80 80 92 105 98
43 38 43 51 59 70 65 64 78 87 76 69 76 66 36 25 25 54 77 107 139 129 122 118 88 56 78 103 125 142 140 118 108 100 95 96 93 96 99 94 90 81 82
65 56 49 48 47 39 45 50 58 62 75 63 55 75 66 36 34 52 87 117 117 102 93 92 89 99 105 105 94 98 101 91 83 78 78 75 67 66 64 72 78 81 82
91 77 86 86 87 73 62 54 38 29 47 71 74 74 90 96 70 67 75 109 113 104 96 92 79 93 100 110 97 96 92 75 70 59 56 51 50 55 57 58 59 69 85
95 89 95 88 85 114 117 91 60 44 56 72 79 81 79 90 67 78 81 129 133 129 110 101 91 87 102 92 91 92 65 62 56 34 31 25 21 25 35 40 49 71 75
80 73 88 109 108 98 110 129 119 85 83 59 83 76 75 94 84 95 111 136 148 153 136 122 89 67 88 77 75 59 53 37 42 30 33 30 29 23 29 30 28 62 76

GFSGL_con_3kmhel_117.txt.gz
Helicity
65 44 48 46 38 53 33 39 32 44 33 28 7 17 34 37 20 20 -6 -26 -21 29 12 -7 34 74 48 31 21 27 31 35 14 22 21 -3 6 22 35 18 15 18 4
113 86 69 50 64 72 58 42 55 37 37 -20 3 16 25 26 24 5 15 11 14 -12 -21 1 -10 25 30 37 44 35 27 26 26 10 13 17 27 6 -7 -0 10 8 6
135 143 113 107 83 63 50 59 57 49 35 36 26 18 36 37 27 34 35 21 18 20 18 -21 -17 33 13 12 22 13 14 26 28 24 15 24 22 -7 -11 -4 14 56 60
157 172 110 146 127 58 48 46 64 56 54 38 39 45 39 43 53 56 56 54 57 29 30 24 19 26 22 35 40 36 35 29 33 40 38 31 22 12 4 -3 41 50 105
186 156 127 146 119 94 78 50 34 33 54 89 80 67 69 66 69 89 69 64 31 5 50 54 54 54 51 35 48 39 41 48 52 49 45 41 29 22 10 10 16 37 51
238 193 119 136 130 119 107 109 82 47 35 81 89 92 95 86 88 72 59 64 47 52 69 85 70 75 70 85 68 48 42 53 48 40 44 44 36 27 28 19 18 30 44
247 241 230 136 150 150 85 86 112 98 185 143 124 111 100 75 82 67 33 47 61 67 78 86 80 74 72 78 107 118 104 78 52 45 41 37 36 33 35 29 28 13 -5
193 128 148 179 196 218 107 97 84 122 149 201 190 65 88 82 70 64 74 72 99 126 145 137 101 98 95 87 108 117 101 85 77 62 58 47 41 41 32 34 48 58 48
62 58 103 172 164 211 200 143 125 96 169 206 210 224 87 94 150 97 67 93 150 169 143 115 84 88 129 115 116 116 125 135 151 205 198 218 216 194 116 70 70 73 78
46 60 50 36 57 111 138 118 87 126 206 228 213 168 155 99 121 74 87 137 157 167 159 173 151 91 121 128 117 118 145 153 153 191 220 258 250 243 238 145 68 62 41
28 48 57 81 105 138 138 134 124 109 145 147 144 127 119 122 153 131 138 146 150 150 150 122 86 101 128 128 118 118 158 176 209 223 231 239 256 232 204 182 156 73 45
208 178 130 110 182 104 87 79 100 126 136 135 141 132 125 121 141 153 115 112 109 123 95 110 113 125 175 191 184 223 211 190 179 218 214 229 211 215 203 186 148 124 103
225 215 189 243 186 178 97 106 142 132 129 120 108 118 121 117 153 180 179 187 179 164 112 111 125 134 152 168 175 194 154 141 137 165 154 173 179 171 147 149 150 135 142
181 222 220 203 244 276 222 196 178 149 131 106 101 101 93 120 116 129 128 165 180 132 123 110 119 135 135 115 129 142 127 116 123 130 156 179 194 213 229 175 156 128 132
125 145 164 153 153 157 197 212 178 173 160 168 170 146 123 108 106 103 121 118 109 101 129 128 129 128 130 133 141 138 134 148 164 166 185 190 203 208 226 198 181 174 160
116 114 89 97 86 77 57 59 116 127 102 143 169 190 201 142 88 101 126 130 112 104 120 121 127 125 127 129 133 148 162 168 177 184 195 193 197 195 187 181 161 154 142
86 97 126 129 112 106 104 117 147 125 142 164 202 208 147 98 132 119 78 104 100 118 135 134 139 126 122 122 123 117 128 146 145 162 169 178 175 180 173 175 159 132 122
74 103 67 45 53 77 86 85 109 112 136 132 119 93 141 143 84 87 112 89 116 93 116 135 132 125 102 111 113 117 123 140 152 149 154 153 149 139 142 139 125 103 90
88 99 79 70 69 76 69 60 55 64 93 106 109 102 84 74 57 46 60 73 85 96 105 144 136 117 72 76 88 108 121 120 111 126 140 134 123 119 127 123 120 123 106
60 72 78 74 79 75 74 69 70 65 65 74 65 58 63 65 56 39 37 44 60 87 118 139 117 71 80 80 89 106 113 117 109 108 112 115 110 107 102 98 91 84 71
35 45 57 62 63 58 48 53 51 56 55 55 63 69 59 54 54 58 62 78 61 102 129 127 116 112 85 76 88 111 117 102 105 102 101 103 98 102 87 77 75 78 77
49 43 46 49 54 59 53 47 46 51 54 57 59 68 68 61 42 48 74 73 68 87 114 118 98 87 78 70 71 115 135 128 107 94 91 87 79 65 53 52 58 65 74
74 67 63 61 56 60 64 58 50 37 32 50 64 61 71 67 60 46 47 54 68 86 83 79 88 94 104 90 95 106 105 90 84 86 76 63 65 64 56 61 64 68 66
94 89 90 84 87 82 86 82 72 60 49 26 42 52 47 52 71 70 55 60 75 80 94 96 91 83 96 88 74 80 90 89 81 66 66 62 55 53 54 56 55 55 61
101 99 90 95 93 90 87 94 97 83 78 75 46 55 63 67 81 82 66 64 91 125 115 103 101 86 104 88 72 71 61 65 67 61 58 52 45 38 39 36 35 40 50
84 86 98 112 110 96 100 101 104 102 100 93 94 88 70 64 66 69 78 85 95 131 136 130 105 81 82 68 58 57 45 28 60 68 68 47 24 15 14 7 4 21 28

GFSGL_con_3kmhel_120.txt.gz
Helicity
86 71 33 -4 -33 -9 17 17 22 33 29 19 46 71 -27 -27 -27 -19 -20 -15 -38 -19 -6 28 -1 43 43 38 43 26 22 28 20 38 44 26 18 14 13 8 15 21 32
74 90 83 52 30 6 5 12 36 34 43 38 30 23 45 24 27 -6 5 19 12 6 37 42 28 36 32 42 36 21 25 26 29 12 28 34 35 18 2 -2 18 41 66
134 107 103 90 78 61 48 56 53 48 45 44 49 11 27 30 42 11 18 13 25 26 36 37 40 47 47 43 38 33 35 34 32 34 29 34 34 25 20 27 58 103 99
179 168 129 124 104 98 83 73 68 63 69 66 56 52 43 42 41 30 35 44 42 41 52 36 35 40 53 51 48 50 43 38 36 41 40 35 26 23 19 28 64 109 120
191 181 148 161 133 118 104 87 95 86 75 81 80 68 69 65 71 67 58 47 40 46 99 54 64 47 42 39 56 52 59 46 37 40 37 38 32 24 24 20 27 36 94
117 149 186 181 172 146 111 76 95 97 96 107 92 84 87 91 81 81 65 59 51 54 37 53 77 77 74 79 55 44 70 74 71 63 50 38 30 31 31 30 27 30 43
142 155 134 169 117 130 109 137 114 119 126 90 87 86 124 97 94 82 60 64 69 53 45 62 70 80 78 76 110 132 138 120 74 60 53 46 47 47 48 56 51 46 45
101 102 95 84 159 94 138 145 144 150 106 118 118 142 120 107 108 115 95 60 67 85 79 93 89 91 88 71 86 110 118 113 76 64 62 70 56 53 51 57 55 72 70
85 82 63 31 126 91 129 236 155 144 103 98 120 140 162 165 160 122 103 74 77 83 93 105 99 106 106 89 83 118 121 119 135 177 167 152 163 148 81 68 73 69 85
23 -16 7 96 64 93 133 196 190 105 78 89 136 162 155 162 281 248 102 110 83 87 126 150 156 105 133 106 71 81 108 102 87 113 161 195 207 212 223 146 84 109 76
16 28 26 48 52 110 132 125 114 124 129 147 173 131 129 105 88 67 85 101 84 112 128 123 134 156 152 172 95 101 119 137 166 148 158 157 166 167 169 165 155 87 63
72 65 58 24 79 111 83 108 80 115 178 115 83 93 62 52 66 59 71 83 112 120 117 87 99 135 157 158 141 173 248 199 164 162 178 177 156 180 162 159 167 166 172
137 121 92 94 137 98 104 58 136 171 92 54 50 99 104 88 103 126 102 102 110 121 138 135 147 154 148 149 170 152 162 168 191 158 165 160 129 115 140 151 144 145 166
168 156 153 179 164 153 141 191 158 86 83 90 116 122 98 130 146 138 143 135 159 145 134 156 159 157 155 125 127 128 116 108 106 111 131 153 155 161 148 115 109 120 126
158 156 130 134 144 128 162 192 153 158 164 157 158 129 123 149 162 166 163 132 160 129 130 142 125 127 126 127 130 122 114 119 131 138 146 156 164 169 173 163 144 148 143
140 130 100 128 148 114 112 129 158 152 110 159 137 85 149 175 193 214 212 170 157 160 160 144 138 122 128 117 117 127 133 131 133 136 148 156 165 166 156 156 157 151 144
84 42 65 61 12 20 42 42 46 72 100 89 96 109 123 107 133 160 165 122 137 179 166 154 147 115 123 119 98 96 109 131 127 131 134 141 156 173 169 166 153 134 132
61 90 69 85 84 73 90 72 42 52 44 42 73 73 58 40 33 83 89 80 105 97 85 88 115 101 90 108 107 109 83 79 110 122 136 142 142 139 150 148 138 134 122
78 86 90 94 93 81 78 84 105 100 84 71 75 73 63 56 41 43 37 95 130 115 65 73 115 146 104 84 72 72 93 105 88 95 107 108 113 111 118 112 107 102 81
36 57 63 61 66 68 69 63 55 50 44 53 67 73 58 52 56 77 80 85 109 118 127 134 120 89 88 71 72 91 102 104 104 99 101 97 92 94 91 78 68 67 71
28 34 42 41 44 47 50 60 57 58 62 64 60 56 54 67 56 47 64 71 76 76 88 116 145 152 135 127 111 125 100 95 75 74 88 104 85 74 69 75 72 69 72
38 37 39 45 48 45 40 34 31 30 29 34 44 44 37 53 56 52 55 65 59 62 77 115 123 103 92 93 88 101 114 113 109 118 115 121 129 161 143 148 115 120 120
82 72 74 75 70 71 68 57 50 47 44 34 36 46 53 48 52 54 50 59 59 50 58 62 82 89 88 87 83 96 106 94 85 89 93 94 89 85 80 84 83 85 84
96 103 98 98 97 97 95 96 89 78 70 52 47 46 39 49 40 44 51 59 62 40 44 56 69 69 80 78 72 70 68 77 81 72 73 71 64 65 68 66 60 58 62
84 88 100 108 110 107 104 99 91 92 89 89 80 76 60 61 31 37 53 61 61 63 50 64 74 61 58 54 53 49 66 88 71 71 63 62 61 56 54 51 49 50 50
92 86 85 92 94 106 120 120 116 105 111 116 99 92 92 91 68 52 57 59 75 76 56 78 78 59 60 49 36 48 74 72 72 75 71 65 64 61 53 43 38 39 30